Date StartTime U_cm/s V_cm/s W_cm/s Ustd_cm/s Vstd_cm/s Wstd_cm/s Uvar_(cm/s)^2 Vvar_(cm/s)^2 Wvar_(cm/s)^2 KE_(m/s)^2 TurbulentKE_(m/s)^2 HorizWindSpeed_cm/s FrictionSpeec_cm/s DragCoef SpeedOfSound_m/s SonicTemperature_C Pressure_mb 
11/21/2014  00:00:00      -81.348      -31.113       -8.992       24.016       29.402       12.032      576.766      864.479      144.779        0.463        0.079       87.094        7.187        0.007      334.568        4.627      859.937
11/21/2014  00:01:00      -52.824      -22.369        3.057       20.188       30.424       16.990      407.568      925.646      288.662        0.246        0.081       57.365       10.382        0.033      334.580        4.647      859.939
11/21/2014  00:02:00      -43.796        5.503      -11.231       26.512       18.698       24.020      702.865      349.597      576.977        0.185        0.081       44.140       19.945        0.204      334.674        4.804      859.949
11/21/2014  00:03:00      -23.685       50.363        0.423       32.800       67.680       24.547     1075.854     4580.531      602.572        0.468        0.313       55.654       28.279        0.258      334.680        4.812      859.948
11/21/2014  00:04:00       -8.298      -16.681        0.379       29.306       31.886       17.826      858.865     1016.713      317.762        0.127        0.110       18.631       20.987        1.269      334.665        4.787      859.952
11/21/2014  00:05:00      -19.680       69.937      -16.242       41.446       38.260       30.162     1717.800     1463.805      909.771        0.482        0.205       72.654       13.269        0.033      334.754        4.934      859.956
11/21/2014  00:06:00        6.934       70.408       -5.194       25.789       31.612       17.665      665.077      999.334      312.051        0.350        0.099       70.749       11.513        0.026      334.659        4.779      859.955
11/21/2014  00:07:00      -30.070      111.368      -15.005       32.221       58.116       19.264     1038.221     3377.480      371.114        0.916        0.239      115.356       22.211        0.037      334.828        5.058      859.955
11/21/2014  00:08:00       -2.095       32.374        7.674       32.089       18.745       18.156     1029.733      351.363      329.647        0.141        0.086       32.441       12.811        0.156      334.751        4.930      859.954
11/21/2014  00:09:00       19.695       76.032      -11.544       25.710       27.005       16.637      660.988      729.283      276.776        0.398        0.083       78.541       14.813        0.036      334.634        4.736      859.964
11/21/2014  00:10:00       16.963        6.053       -2.975       13.429       35.337       17.680      180.334     1248.707      312.576        0.104        0.087       18.011       19.828        1.212      334.593        4.667      859.968
11/21/2014  00:11:00        9.812       38.201        2.034       15.336       38.798       20.512      235.207     1505.297      420.729        0.186        0.108       39.441       25.875        0.430      334.588        4.659      859.972
11/21/2014  00:12:00      -24.628       79.097      -17.907       17.247       17.986        7.027      297.469      323.510       49.379        0.393        0.034       82.843        3.501        0.002      334.650        4.765      859.978
11/21/2014  00:13:00       -4.560       29.901       -5.859       17.711       14.152       11.979      313.677      200.270      143.485        0.080        0.033       30.246        9.808        0.105      334.628        4.725      859.974
11/21/2014  00:14:00       34.865       20.786       -7.038       34.941       15.552       14.202     1220.844      241.872      201.683        0.168        0.083       40.591       13.571        0.112      334.704        4.852      859.957
11/21/2014  00:15:00       54.590       56.298       -5.699       25.254       19.180       19.852      637.741      367.882      394.089        0.379        0.070       78.419       17.186        0.048      334.736        4.906      859.955
11/21/2014  00:16:00       50.996       29.984       -7.549       19.051       16.075       14.219      362.922      258.414      202.193        0.219        0.041       59.157        7.200        0.015      334.726        4.890      859.965
11/21/2014  00:17:00        1.045       13.040       13.308       13.102       11.316        9.395      171.668      128.059       88.263        0.037        0.019       13.082        7.585        0.336      334.570        4.629      859.962
11/21/2014  00:18:00        8.031        1.706        3.495        9.828       10.512        7.303       96.580      110.497       53.332        0.017        0.013        8.210        3.750        0.209      334.622        4.717      859.974
11/21/2014  00:19:00       11.641        1.372       11.978       23.082        9.511       10.222      532.765       90.459      104.480        0.050        0.036       11.721        6.976        0.354      334.699        4.844      859.995
11/21/2014  00:20:00       10.187       -9.385        8.411       13.048       29.178       10.187      170.260      851.346      103.778        0.069        0.056       13.851        8.416        0.369      334.777        4.974      860.006
11/21/2014  00:21:00       36.951       28.184       -2.423       17.581       16.579       11.484      309.084      274.876      131.893        0.144        0.036       46.473        5.771        0.015      334.917        5.204      860.011
11/21/2014  00:22:00       47.435       25.532        7.898       24.883       18.236       13.534      619.159      332.544      183.159        0.205        0.057       53.869        9.102        0.029      334.865        5.120      860.012
11/21/2014  00:23:00       58.004        6.643        9.532       19.105       22.541       17.590      364.984      508.104      309.423        0.234        0.059       58.383       11.818        0.041      334.756        4.939      859.997
11/21/2014  00:24:00       82.894       49.734       13.935       26.151       25.668       21.042      683.884      658.832      442.775        0.566        0.089       96.669       13.535        0.020      334.831        5.064      859.970
11/21/2014  00:25:00       76.603       49.187       28.998       38.845       19.034       22.829     1508.919      362.301      521.163        0.576        0.120       91.035       24.861        0.075      334.808        5.025      859.943
11/21/2014  00:26:00       21.177       33.288       44.235       26.975       32.385       24.549      727.677     1048.792      602.671        0.295        0.119       39.453       25.233        0.409      334.714        4.869      859.941
11/21/2014  00:27:00       65.144       47.562        8.643       41.691       44.991       23.427     1738.168     2024.176      548.805        0.545        0.216       80.659       22.544        0.078      334.785        4.987      859.946
11/21/2014  00:28:00       27.263       10.270        3.612       14.042       33.248       13.104      197.192     1105.439      171.707        0.117        0.074       29.133       13.142        0.203      334.736        4.907      859.933
11/21/2014  00:29:00       -5.621       19.440       35.303       11.605       17.004       14.674      134.666      289.138      215.326        0.115        0.032       20.236       12.147        0.360      334.649        4.761      859.935
11/21/2014  00:30:00       21.458        4.759        7.812       27.030       13.774       12.891      730.619      189.710      166.186        0.082        0.054       21.979       11.017        0.251      334.729        4.893      859.933
11/21/2014  00:31:00       50.356       21.289       15.800       20.199       17.316       19.707      407.986      299.835      388.373        0.217        0.055       54.671       11.995        0.048      334.790        4.996      859.927
11/21/2014  00:32:00       33.474       39.298        3.761       19.099       10.641       15.353      364.784      113.223      235.711        0.170        0.036       51.623        7.366        0.020      334.692        4.831      859.917
11/21/2014  00:33:00       20.338        3.996        4.352       17.508       17.452        7.702      306.516      304.567       59.321        0.056        0.034       20.727        5.681        0.075      334.610        4.696      859.917
11/21/2014  00:34:00      -15.184        7.676       -0.273       11.462       11.028        5.313      131.386      121.622       28.228        0.029        0.014       17.014        4.169        0.060      334.640        4.745      859.917
11/21/2014  00:35:00      -33.460      -11.473        1.104       24.471       16.946       13.204      598.812      287.155      174.333        0.116        0.053       35.372        9.291        0.069      334.360        4.282      859.911
11/21/2014  00:36:00       10.332       17.694       16.476       16.123       14.466       16.300      259.936      209.255      265.677        0.071        0.037       20.490       14.046        0.470      334.337        4.243      859.904
11/21/2014  00:37:00      -28.572       -0.961       -5.582       23.038       22.211       14.041      530.745      493.336      197.150        0.103        0.061       28.588        8.878        0.096      334.411        4.368      859.892
11/21/2014  00:38:00      -59.645      -13.409       -4.250       43.909       24.180       19.868     1928.013      584.681      394.729        0.333        0.145       61.133       21.644        0.125      334.549        4.595      859.883
11/21/2014  00:39:00     -112.957      -64.093      -10.836       50.684       27.852       24.483     2568.829      775.718      599.417        1.046        0.197      129.874       15.479        0.014      334.280        4.148      859.849
11/21/2014  00:40:00      -99.188      -44.619       -9.764       36.078       17.767       22.024     1301.629      315.669      485.057        0.701        0.105      108.761       10.698        0.010      334.338        4.245      859.832
11/21/2014  00:41:00     -110.722      -24.260       -2.846       37.591       44.204       22.300     1413.108     1953.979      497.268        0.836        0.193      113.349       15.335        0.018      334.304        4.190      859.809
11/21/2014  00:42:00      -92.476      -28.478       -0.316       45.723       37.271       25.712     2090.561     1389.142      661.120        0.675        0.207       96.762       22.274        0.053      334.099        3.847      859.793
11/21/2014  00:43:00      -81.744      -30.024        6.787       35.061       50.194       24.419     1229.260     2519.474      596.299        0.599        0.217       87.083       25.397        0.085      333.980        3.652      859.771
11/21/2014  00:44:00      -70.605        1.285       -5.988       41.281       35.919       21.881     1704.123     1290.194      478.762        0.425        0.174       70.616       18.267        0.067      334.103        3.855      859.750
11/21/2014  00:45:00      -11.970       -3.531        3.853       25.737       26.660       17.430      662.404      710.769      303.817        0.092        0.084       12.479       15.086        1.461      334.087        3.827      859.747
11/21/2014  00:46:00      -20.883       -7.296        2.127       25.805       25.410       19.758      665.905      645.658      390.389        0.110        0.085       22.121       14.815        0.449      334.040        3.750      859.758
11/21/2014  00:47:00     -127.294      -36.862       -5.970       52.445       41.880       31.381     2750.479     1753.928      984.779        1.154        0.274      132.523       32.129        0.059      333.866        3.462      859.782
11/21/2014  00:48:00      -66.009       27.892       -5.547       41.280       33.016       20.349     1704.030     1090.073      414.078        0.419        0.160       71.660       16.494        0.053      333.886        3.495      859.804
11/21/2014  00:49:00      -90.524       25.507       -7.532       20.221       26.307       14.395      408.890      692.033      207.220        0.510        0.065       94.049        7.363        0.006      333.820        3.385      859.832
11/21/2014  00:50:00     -127.660       36.998      -10.532       50.299       27.046       16.540     2530.013      731.479      273.584        1.066        0.177      132.914       17.009        0.016      333.665        3.128      859.855
11/21/2014  00:51:00     -185.972       45.650      -15.900       37.673       35.185       19.914     1419.248     1237.972      396.574        1.999        0.153      191.493       13.329        0.005      333.641        3.088      859.873
11/21/2014  00:52:00     -193.755      -25.772      -26.410       48.250       60.595       31.078     2328.030     3671.752      965.861        2.293        0.348      195.461       21.708        0.012      333.643        3.091      859.902
11/21/2014  00:53:00     -151.380      -32.262      -24.795       54.679       52.128       34.648     2989.841     2717.372     1200.462        1.574        0.345      154.780       20.226        0.017      333.737        3.246      859.926
11/21/2014  00:54:00     -148.529      -47.070       -4.535       51.106       39.171       26.596     2611.793     1534.403      707.322        1.457        0.243      155.809       22.901        0.022      333.774        3.308      859.928
11/21/2014  00:55:00     -182.471      -67.294      -16.524       61.699       41.573       27.982     3806.752     1728.311      783.012        2.221        0.316      194.484       29.368        0.023      333.864        3.455      859.921
11/21/2014  00:56:00     -212.862      -32.990      -25.585       65.567       58.508       32.823     4299.049     3423.221     1077.352        2.792        0.440      215.403       33.112        0.024      333.998        3.677      859.918
11/21/2014  00:57:00     -238.874      -46.206      -34.273       57.493       60.734       33.879     3305.483     3688.579     1147.809        3.425        0.407      243.302       23.690        0.009      333.950        3.597      859.914
11/21/2014  00:58:00     -262.223      -44.978      -20.718       54.294       48.715       34.653     2947.815     2373.129     1200.843        3.887        0.326      266.053       29.114        0.012      333.871        3.465      859.928
11/21/2014  00:59:00     -262.961      -29.416      -25.485       57.652       40.086       34.815     3323.806     1606.849     1212.112        3.840        0.307      264.601       30.813        0.014      333.803        3.352      859.932
11/21/2014  01:00:00     -290.128      -24.260      -24.439       57.490       52.583       36.481     3305.123     2764.992     1330.885        4.638        0.370      291.141       32.210        0.012      333.841        3.414      859.935
11/21/2014  01:01:00     -241.007      -37.802      -24.167       70.674       59.310       37.412     4994.752     3517.682     1399.651        3.500        0.496      243.953       34.738        0.020      333.877        3.475      859.928
11/21/2014  01:02:00     -186.578      -39.411       -8.608       78.663       54.885       45.824     6187.864     3012.338     2099.879        2.387        0.565      190.695       45.632        0.057      333.975        3.640      859.929
11/21/2014  01:03:00     -233.364      -33.698      -33.148       62.226       37.542       35.387     3872.077     1409.383     1252.237        3.161        0.327      235.785       23.729        0.010      333.950        3.596      859.933
11/21/2014  01:04:00     -163.136      -60.831       -9.849       61.970       41.255       29.696     3840.291     1701.953      881.855        1.842        0.321      174.108       27.288        0.025      334.013        3.704      859.929
11/21/2014  01:05:00      -77.390      -47.054       -1.227       49.042       34.989       24.790     2405.102     1224.248      614.558        0.622        0.212       90.572       26.530        0.086      334.045        3.759      859.920
11/21/2014  01:06:00     -106.001      -14.003       -3.763       43.084       35.435       22.224     1856.194     1255.617      493.911        0.753        0.180      106.922       22.380        0.044      334.029        3.733      859.914
11/21/2014  01:07:00      -63.873      -28.804       -0.712       30.711       31.703       17.808      943.183     1005.071      317.125        0.359        0.113       70.067       10.815        0.024      334.064        3.789      859.902
11/21/2014  01:08:00      -52.627      -45.801       -5.006       42.630       29.595       19.233     1817.300      875.888      369.891        0.398        0.153       69.766       21.371        0.094      334.141        3.917      859.912
11/21/2014  01:09:00     -106.442      -26.215       -7.170       16.378       11.616       12.056      268.236      134.934      145.337        0.631        0.027      109.622        9.031        0.007      334.087        3.829      859.933
11/21/2014  01:10:00      -79.355      -26.634       -8.593       19.488       21.269       12.796      379.798      452.389      163.737        0.404        0.050       83.706       14.240        0.029      334.134        3.905      859.940
11/21/2014  01:11:00      -78.248       -2.032       -2.352       31.110       20.546       15.854      967.843      422.121      251.348        0.389        0.082       78.275       15.518        0.039      334.139        3.915      859.954
11/21/2014  01:12:00      -83.533       11.549       -8.264       26.419       16.431       13.880      697.985      269.983      192.667        0.417        0.058       84.327       12.220        0.021      334.190        4.000      859.958
11/21/2014  01:13:00      -31.966       12.958        7.860       24.390       17.788       15.222      594.891      316.397      231.696        0.120        0.057       34.493       12.670        0.135      334.329        4.230      859.947
11/21/2014  01:14:00       -7.945       38.348      -13.071       21.912       17.034       17.724      480.143      290.157      314.141        0.139        0.054       39.163       14.482        0.137      334.286        4.158      859.935
11/21/2014  01:15:00       12.183        9.666        2.373       13.542       15.048       10.103      183.391      226.441      102.073        0.038        0.026       15.552        7.813        0.252      334.123        3.888      859.948
11/21/2014  01:16:00      -37.878      -42.080        2.698       25.609       12.080       13.144      655.814      145.932      172.754        0.209        0.049       56.617       12.150        0.046      334.321        4.217      859.972
11/21/2014  01:17:00      -68.408      -33.287       -3.600       10.775       12.010        8.575      116.093      144.237       73.536        0.307        0.017       76.077        4.963        0.004      334.263        4.121      859.987
11/21/2014  01:18:00      -48.786      -34.260       -3.188       13.893       11.614        8.901      193.002      134.879       79.228        0.199        0.020       59.614        7.403        0.015      334.069        3.797      859.995
11/21/2014  01:19:00      -72.811      -28.473       -5.547       11.167       11.751        7.700      124.704      138.075       59.297        0.323        0.016       78.180        4.095        0.003      333.982        3.655      860.009
11/21/2014  01:20:00      -87.495      -49.850        1.109       29.786       21.289       18.620      887.194      453.242      346.701        0.591        0.084      100.699       18.850        0.035      333.830        3.403      860.025
11/21/2014  01:21:00     -104.380      -55.957       -2.332       27.067       23.403       12.220      732.647      547.682      149.335        0.773        0.071      118.433       10.833        0.008      333.902        3.521      860.048
11/21/2014  01:22:00      -92.565      -49.532       -8.607       20.708       20.840       14.831      428.811      434.314      219.962        0.609        0.054      104.984       11.423        0.012      333.876        3.478      860.076
11/21/2014  01:23:00      -87.206      -49.137       -5.956       23.156       17.665       14.556      536.196      312.050      211.891        0.556        0.053      100.097       12.746        0.016      333.934        3.576      860.099
11/21/2014  01:24:00      -83.698      -39.635       -2.335       16.215       21.186       11.469      262.942      448.838      131.528        0.471        0.042       92.608        7.400        0.006      333.986        3.660      860.123
11/21/2014  01:25:00      -87.536      -40.727       -2.932       21.096       14.322        9.915      445.057      205.110       98.309        0.504        0.037       96.547        9.970        0.011      333.970        3.636      860.131
11/21/2014  01:26:00      -44.593      -21.289        1.842       30.138       13.711       12.779      908.288      187.997      163.306        0.185        0.063       49.414       12.058        0.060      333.962        3.622      860.134
11/21/2014  01:27:00      -29.072      -25.659       -1.172       14.802       14.112       11.418      219.113      199.153      130.362        0.103        0.027       38.776        9.409        0.059      333.957        3.616      860.132
11/21/2014  01:28:00      -11.539      -14.153        2.672       13.193       13.283        9.323      174.059      176.446       86.921        0.039        0.022       18.261        9.081        0.247      333.893        3.507      860.121
11/21/2014  01:29:00      -14.235      -38.787       -2.718        8.669        7.760        9.250       75.158       60.217       85.569        0.097        0.011       41.317        4.712        0.013      334.028        3.732      860.116
11/21/2014  01:30:00      -10.683      -29.846       -5.091       12.159       15.317       12.466      147.851      234.606      155.403        0.078        0.027       31.700       10.044        0.100      333.964        3.626      860.121
11/21/2014  01:31:00      -16.898      -25.001       -2.307       15.898       17.712       13.897      252.755      313.704      193.115        0.084        0.038       30.176        9.643        0.102      333.961        3.621      860.142
11/21/2014  01:32:00      -22.097      -20.815        2.806       17.835       14.562       12.029      318.095      212.041      144.707        0.080        0.034       30.357       11.417        0.141      333.937        3.580      860.150
11/21/2014  01:33:00      -54.239      -34.680       -1.038       21.686       13.866       10.009      470.285      192.260      100.186        0.245        0.038       64.378        6.005        0.009      333.991        3.670      860.137
11/21/2014  01:34:00       -9.673      -12.179       10.686       15.879       13.702       10.909      252.155      187.756      119.017        0.046        0.028       15.553        6.372        0.168      333.944        3.591      860.105
11/21/2014  01:35:00      -12.880      -38.184        9.079       25.121       22.764       19.752      631.072      518.188      390.127        0.162        0.077       40.298       17.542        0.189      333.981        3.654      860.072
11/21/2014  01:36:00      -14.147      -39.421      -10.716       24.909       16.217       20.093      620.480      262.999      403.747        0.158        0.064       41.882       12.066        0.083      334.085        3.824      860.044
11/21/2014  01:37:00       -7.314      -55.244      -12.404       20.857       20.840       18.904      435.032      434.287      357.365        0.224        0.061       55.726       14.114        0.064      334.096        3.842      860.035
11/21/2014  01:38:00      -11.168      -37.399      -11.786       11.636       12.577       12.044      135.401      158.173      145.068        0.105        0.022       39.031        4.174        0.011      334.136        3.910      860.026
11/21/2014  01:39:00      -13.082      -20.124      -15.317       21.209       15.454       13.396      449.812      238.840      179.440        0.084        0.043       24.002        7.084        0.087      334.169        3.967      860.023
11/21/2014  01:40:00       -7.815      -29.442       -2.429       19.391       22.329       15.311      376.015      498.599      234.419        0.102        0.055       30.462        7.423        0.059      334.158        3.946      860.021
11/21/2014  01:41:00      -27.554      -26.939       -3.481       20.799       20.141       20.448      432.606      405.666      418.125        0.138        0.063       38.535        8.959        0.054      334.147        3.926      860.033
11/21/2014  01:42:00       -0.533      -33.287       -7.429       24.152       21.919       12.993      583.303      480.453      168.828        0.120        0.062       33.291        9.774        0.086      334.188        3.998      860.055
11/21/2014  01:43:00      -18.273      -13.821        7.066       39.801       23.399       14.408     1584.143      547.536      207.586        0.146        0.117       22.911       12.565        0.301      334.140        3.917      860.080
11/21/2014  01:44:00      -50.745      -17.234        7.048       32.671       29.822       18.042     1067.417      889.356      325.497        0.260        0.114       53.592       17.682        0.109      334.115        3.876      860.095
11/21/2014  01:45:00      -35.909        1.192        2.888       28.031       26.899       17.024      785.745      723.540      289.816        0.155        0.090       35.929       13.571        0.143      333.961        3.620      860.098
11/21/2014  01:46:00      -71.502      -30.882        1.087       35.143       25.872       16.209     1235.035      669.383      262.743        0.412        0.108       77.886       18.824        0.058      333.912        3.540      860.097
11/21/2014  01:47:00      -86.159      -28.413       -2.814       23.067       16.876       12.454      532.105      284.790      155.112        0.461        0.049       90.723        7.032        0.006      333.843        3.424      860.090
11/21/2014  01:48:00      -41.062      -33.660        5.820       30.331       13.523       14.299      919.950      182.858      204.461        0.208        0.065       53.094       12.686        0.057      333.898        3.516      860.095
11/21/2014  01:49:00        4.631       -9.546       19.008       11.510       12.861       12.158      132.486      165.397      147.818        0.046        0.022       10.610        8.119        0.586      333.803        3.359      860.115
11/21/2014  01:50:00       -4.872      -24.793        7.420       14.354       20.392       10.378      206.051      415.827      107.706        0.071        0.036       25.267       10.071        0.159      334.036        3.743      860.121
11/21/2014  01:51:00       -6.140       -8.498        3.298       16.209       15.170       13.002      262.742      230.120      169.042        0.039        0.033       10.484       12.911        1.517      334.026        3.727      860.123
11/21/2014  01:52:00      -17.080      -17.052        9.795       35.323       17.395       15.372     1247.698      302.596      236.284        0.123        0.089       24.135        8.443        0.122      334.066        3.793      860.116
11/21/2014  01:53:00      -34.026      -31.282        3.800       43.110       20.750       21.041     1858.458      430.578      442.711        0.244        0.137       46.221       23.784        0.265      334.164        3.956      860.120
11/21/2014  01:54:00      -82.298      -62.227       -3.089       51.544       29.267       21.374     2656.792      856.559      456.828        0.731        0.199      103.176       20.775        0.041      334.186        3.993      860.129
11/21/2014  01:55:00      -95.414      -53.981       -4.688       41.673       29.343       19.271     1736.672      861.016      371.371        0.750        0.148      109.626       12.444        0.013      333.986        3.662      860.148
11/21/2014  01:56:00     -104.806      -22.063       -2.265       40.427       23.748       17.651     1634.370      563.962      311.554        0.699        0.125      107.103       15.475        0.021      333.777        3.314      860.170
11/21/2014  01:57:00      -65.400      -29.176        7.332       44.818       24.866       20.579     2008.657      618.296      423.501        0.412        0.153       71.613       22.079        0.095      333.722        3.224      860.179
11/21/2014  01:58:00      -48.109      -43.528        0.411       26.152       24.904       11.282      683.938      620.211      127.282        0.282        0.072       64.878       12.445        0.037      333.823        3.391      860.177
11/21/2014  01:59:00      -54.293      -60.024        3.381       29.433       32.032       13.689      866.310     1026.048      187.376        0.432        0.104       80.936       15.632        0.037      333.894        3.508      860.168
11/21/2014  02:00:00      -74.703     -104.092        0.660       25.120       37.776       17.354      631.028     1426.992      301.173        0.939        0.118      128.124        9.864        0.006      334.057        3.779      860.161
11/21/2014  02:01:00      -72.198     -110.408        2.687       48.324       53.389       34.757     2335.231     2850.356     1208.051        1.190        0.320      131.919       34.312        0.068      334.173        3.972      860.163
11/21/2014  02:02:00      -21.038      -74.747        4.265       41.931       31.405       23.783     1758.176      986.282      565.639        0.468        0.166       77.651       12.168        0.025      334.223        4.055      860.162
11/21/2014  02:03:00      -75.838       -9.872        8.458       54.179       27.778       20.908     2935.403      771.603      437.158        0.503        0.207       76.478       24.372        0.102      334.111        3.870      860.173
11/21/2014  02:04:00      -56.833        1.561       -2.992       64.632       44.427       27.494     4177.353     1973.724      755.934        0.507        0.345       56.854       30.091        0.280      333.892        3.504      860.171
11/21/2014  02:05:00      -81.580       26.868      -15.545       46.330       27.670       18.280     2146.475      765.624      334.145        0.543        0.162       85.891       19.381        0.051      333.757        3.280      860.166
11/21/2014  02:06:00      -72.099        8.674       -1.511       31.596       27.114       19.955      998.296      735.189      398.213        0.370        0.107       72.619       15.470        0.045      333.698        3.184      860.160
11/21/2014  02:07:00      -87.104      -17.024       -6.690       34.163       28.945       17.865     1167.093      837.826      319.142        0.512        0.116       88.752       14.668        0.027      333.630        3.072      860.170
11/21/2014  02:08:00     -104.996      -16.618       -2.347       40.126       45.414       28.942     1610.092     2062.429      837.653        0.791        0.226      106.303       24.691        0.054      333.504        2.862      860.187
11/21/2014  02:09:00     -108.444        5.249        2.477       77.789       42.406       33.192     6051.180     1798.241     1101.694        1.037        0.448      108.571       36.742        0.115      333.451        2.773      860.196
11/21/2014  02:10:00     -160.334      -38.465        5.006       67.531       48.613       27.920     4560.465     2363.252      779.548        1.746        0.385      164.884       28.493        0.030      333.482        2.825      860.220
11/21/2014  02:11:00     -119.749      -34.795        3.806       44.614       43.663       30.424     1990.428     1906.423      925.590        1.019        0.241      124.701       25.260        0.041      333.425        2.731      860.246
11/21/2014  02:12:00     -149.982      -22.762       -5.478       62.055       42.163       26.723     3850.797     1777.726      714.106        1.469        0.317      151.700       26.482        0.030      333.438        2.751      860.269
11/21/2014  02:13:00     -144.050       -8.632       -6.459       57.744       70.122       31.156     3334.381     4917.061      970.702        1.504        0.461      144.308       25.142        0.030      333.361        2.626      860.275
11/21/2014  02:14:00     -208.133      -10.259      -14.721       62.273       58.299       32.175     3877.928     3398.783     1035.228        2.598        0.416      208.386       31.979        0.024      333.184        2.330      860.264
11/21/2014  02:15:00     -185.103      -21.162      -12.048       68.281       61.280       32.201     4662.326     3755.222     1036.906        2.215        0.473      186.309       31.411        0.028      333.230        2.406      860.242
11/21/2014  02:16:00     -145.048      -53.299       -2.216       59.081       55.514       34.552     3490.519     3081.758     1193.825        1.582        0.388      154.531       32.795        0.045      333.286        2.500      860.216
11/21/2014  02:17:00     -148.307      -16.896       -8.592       52.116       41.347       35.250     2716.028     1709.598     1242.564        1.401        0.283      149.267       32.031        0.046      333.379        2.654      860.188
11/21/2014  02:18:00     -127.630        0.208       -4.679       43.384       35.181       22.723     1882.188     1237.673      516.328        0.997        0.182      127.630       19.587        0.024      333.572        2.974      860.175
11/21/2014  02:19:00      -54.844      -15.562       10.816       42.559       34.338       23.100     1811.256     1179.072      533.617        0.344        0.176       57.009       21.340        0.140      333.505        2.863      860.158
11/21/2014  02:20:00     -115.277      -80.138       -6.045       41.479       27.332       26.982     1720.469      747.051      728.016        1.147        0.160      140.395       21.785        0.024      333.443        2.760      860.140
11/21/2014  02:21:00     -118.717      -28.918      -15.647       27.599       25.212       18.249      761.694      635.622      333.019        0.845        0.087      122.188       13.644        0.012      333.399        2.687      860.135
11/21/2014  02:22:00      -89.570      -28.458       -6.544       24.527       33.743       17.421      601.566     1138.598      303.508        0.546        0.102       93.982       15.948        0.029      333.416        2.715      860.134
11/21/2014  02:23:00      -52.746      -34.391        6.007       32.821       21.409       16.168     1077.193      458.359      261.416        0.290        0.090       62.967       17.541        0.078      333.492        2.844      860.153
11/21/2014  02:24:00      -83.718      -33.257        0.159       53.455       19.138       19.869     2857.476      366.268      394.774        0.587        0.181       90.082       26.801        0.089      333.587        3.000      860.170
11/21/2014  02:25:00     -123.009      -78.365       -2.146       35.905       29.445       23.047     1289.156      867.018      531.186        1.198        0.134      145.850       20.345        0.019      333.595        3.014      860.187
11/21/2014  02:26:00      -61.830      -63.236       15.281       44.380       29.754       22.613     1969.596      885.323      511.346        0.571        0.168       88.441       20.948        0.056      333.717        3.215      860.169
11/21/2014  02:27:00      -97.154      -85.434       -8.611       39.904       34.641       20.826     1592.345     1200.014      433.726        1.002        0.161      129.375       21.895        0.029      333.755        3.278      860.135
11/21/2014  02:28:00      -70.849      -77.950        1.471       41.679       42.745       19.465     1737.172     1827.106      378.886        0.752        0.197      105.336       20.219        0.037      333.740        3.255      860.099
11/21/2014  02:29:00      -78.502      -66.640       -5.412       45.955       34.136       22.301     2111.868     1165.294      497.343        0.720        0.189      102.973       25.028        0.059      333.900        3.519      860.096
11/21/2014  02:30:00      -31.384      -75.120       -2.160       28.949       38.723       20.497      838.033     1499.458      420.121        0.469        0.138       81.413       15.946        0.038      333.849        3.435      860.121
11/21/2014  02:31:00      -17.953      -52.610        6.040       31.109       39.229       26.192      967.752     1538.920      686.007        0.316        0.160       55.589       28.672        0.266      333.840        3.420      860.159
11/21/2014  02:32:00      -44.048     -125.062       -0.321       27.834       41.070       19.800      774.736     1686.766      392.051        1.022        0.143      132.593       15.711        0.014      333.834        3.409      860.174
11/21/2014  02:33:00      -98.389      -59.795       -5.153       52.974       32.867       19.660     2806.250     1080.259      386.531        0.878        0.214      115.134       17.191        0.022      333.882        3.490      860.149
11/21/2014  02:34:00     -100.913      -51.887       -1.359       42.993       40.571       24.631     1848.406     1646.046      606.675        0.849        0.205      113.471       13.131        0.013      333.736        3.247      860.126
11/21/2014  02:35:00      -65.637      -54.525      -11.986       41.705       27.964       15.037     1739.277      781.995      226.119        0.509        0.137       85.330       10.926        0.016      333.720        3.219      860.115
11/21/2014  02:36:00      -70.205      -71.320        9.119       48.531       26.882       23.216     2355.235      722.629      538.979        0.686        0.181      100.076       21.218        0.045      333.585        2.995      860.132
11/21/2014  02:37:00     -103.158     -125.159       -4.942       60.912       69.000       36.157     3710.280     4760.941     1307.338        1.805        0.489      162.192       38.186        0.055      333.446        2.765      860.156
11/21/2014  02:38:00     -147.685     -114.199      -12.928       44.175       52.668       24.149     1951.393     2773.874      583.171        2.016        0.265      186.688       12.796        0.005      333.408        2.703      860.158
11/21/2014  02:39:00     -123.271     -107.594       -9.758       44.185       30.496       21.279     1952.330      930.029      452.790        1.510        0.167      163.623       12.469        0.006      333.465        2.797      860.145
11/21/2014  02:40:00     -107.275      -71.267       -3.914       42.806       41.467       26.051     1832.385     1719.509      678.679        1.042        0.212      128.790       27.622        0.046      333.466        2.797      860.130
11/21/2014  02:41:00      -73.936      -23.607        0.770       50.304       26.220       19.371     2530.538      687.504      375.219        0.481        0.180       77.613       22.149        0.081      333.515        2.879      860.124
11/21/2014  02:42:00      -32.937      -56.314        0.662       29.835       19.132       13.739      890.152      366.050      188.754        0.285        0.072       65.239       11.026        0.029      333.614        3.043      860.129
11/21/2014  02:43:00       -7.117      -73.014      -13.511       17.662       50.560       16.927      311.955     2556.270      286.530        0.436        0.158       73.360       17.350        0.056      333.611        3.040      860.135
11/21/2014  02:44:00      -70.206     -108.619      -10.603       49.082       44.630       22.665     2409.038     1991.858      513.715        1.088        0.246      129.333       13.766        0.011      333.507        2.868      860.149
11/21/2014  02:45:00      -51.927      -56.199       -2.900       36.583       28.027       21.372     1338.297      785.490      456.744        0.422        0.129       76.516       13.538        0.031      333.509        2.869      860.157
11/21/2014  02:46:00       28.269      -33.475        2.393       22.461       33.417       24.287      504.507     1116.680      589.850        0.207        0.111       43.814       19.374        0.196      333.447        2.767      860.157
11/21/2014  02:47:00       -8.478      -24.807        6.062       28.532       30.905       15.281      814.065      955.111      233.521        0.136        0.100       26.216       10.556        0.162      333.409        2.704      860.143
11/21/2014  02:48:00        0.970      -51.140      -16.611       23.393       37.213       15.754      547.224     1384.810      248.175        0.254        0.109       51.150       10.229        0.040      333.379        2.655      860.128
11/21/2014  02:49:00      -24.402      -63.726        4.295       26.672       36.757       12.448      711.371     1351.082      154.941        0.345        0.111       68.238       11.018        0.026      333.358        2.621      860.115
11/21/2014  02:50:00      -26.400      -73.946       -5.472       38.647       39.473       25.767     1493.619     1558.155      663.930        0.495        0.186       78.517       11.344        0.021      333.394        2.678      860.103
11/21/2014  02:51:00      -32.438      -91.139        5.222       32.574       40.740       21.098     1061.070     1659.727      445.116        0.628        0.158       96.740       14.929        0.024      333.374        2.648      860.108
11/21/2014  02:52:00      -27.914      -72.281        2.566       29.403       42.299       24.401      864.521     1789.173      595.399        0.463        0.162       77.484       17.451        0.051      333.445        2.764      860.108
11/21/2014  02:53:00      -41.200      -57.193       -1.912       31.481       22.285       15.535      991.040      496.640      241.323        0.335        0.086       70.488       12.001        0.029      333.518        2.886      860.138
11/21/2014  02:54:00      -36.112      -70.634      -11.558       42.496       22.045       19.247     1805.916      485.974      370.446        0.454        0.133       79.330       13.005        0.027      333.424        2.731      860.162
11/21/2014  02:55:00      -42.711      -25.960       -3.477       26.788       35.169       16.517      717.607     1236.852      272.820        0.237        0.111       49.981       11.965        0.057      333.390        2.673      860.179
11/21/2014  02:56:00      -57.854      -30.136        0.771       33.208       26.932       15.629     1102.763      725.318      244.275        0.316        0.104       65.232        9.763        0.022      333.359        2.621      860.178
11/21/2014  02:57:00      -56.950      -43.037        3.286       44.020       28.712       20.521     1937.787      824.386      421.109        0.414        0.159       71.383       21.410        0.090      333.265        2.466      860.176
11/21/2014  02:58:00      -37.306      -44.034       10.219       45.042       26.596       20.514     2028.796      707.354      420.828        0.330        0.158       57.712       18.962        0.108      333.286        2.501      860.182
11/21/2014  02:59:00      -39.234      -50.218        6.337       56.437       32.287       22.240     3185.154     1042.441      494.628        0.441        0.236       63.727       17.870        0.079      333.288        2.504      860.194
11/21/2014  03:00:00      -69.893      -75.518        2.306       43.516       41.683       24.382     1893.660     1737.472      594.474        0.741        0.211      102.898       26.458        0.066      333.314        2.547      860.215
11/21/2014  03:01:00      -34.063      -44.193       -0.376       37.548       24.247       18.404     1409.883      587.919      338.725        0.272        0.117       55.797       13.708        0.060      333.297        2.519      860.242
11/21/2014  03:02:00       -8.568      -22.572       -1.413       15.648       17.987       17.900      244.852      323.525      320.407        0.074        0.044       24.143       12.527        0.269      333.265        2.465      860.271
11/21/2014  03:03:00        2.148       -0.840        1.746       16.064       13.807       12.483      258.050      190.635      155.828        0.031        0.030        2.307        7.157        9.626      333.285        2.498      860.320
11/21/2014  03:04:00       17.187       23.341        7.569       10.668       16.825       11.365      113.804      283.080      129.173        0.071        0.026       28.986       10.536        0.132      333.148        2.273      860.375
11/21/2014  03:05:00        5.365       36.689       -0.185       10.607       10.871        8.320      112.507      118.177       69.230        0.084        0.015       37.079        5.870        0.025      333.251        2.444      860.423
11/21/2014  03:06:00       21.932       22.963        3.690        9.709       14.926       10.463       94.270      222.792      109.465        0.072        0.021       31.754        8.376        0.070      333.230        2.406      860.460
11/21/2014  03:07:00        7.022       12.926        0.565       12.621        6.999        8.000      159.299       48.982       63.994        0.024        0.014       14.710        3.490        0.056      333.303        2.530      860.469
11/21/2014  03:08:00       -2.874        4.143        6.802        5.470        6.235        6.692       29.916       38.876       44.788        0.009        0.006        5.042        4.765        0.893      333.294        2.515      860.449
11/21/2014  03:09:00      -23.183        0.431       -3.864       12.294        7.556        5.158      151.147       57.090       26.601        0.039        0.012       23.187        3.508        0.023      333.266        2.466      860.446
11/21/2014  03:10:00      -49.491      -11.133        2.811       12.928       23.512       10.671      167.121      552.805      113.865        0.171        0.042       50.728       10.414        0.042      333.266        2.467      860.435
11/21/2014  03:11:00      -19.888      -18.609        7.754       21.042       14.824        9.864      442.769      219.736       97.291        0.078        0.038       27.236        8.676        0.101      333.295        2.516      860.431
11/21/2014  03:12:00      -11.697      -17.040        2.620       16.884       12.974       12.687      285.071      168.320      160.952        0.052        0.031       20.668       10.220        0.245      333.367        2.636      860.419
11/21/2014  03:13:00      -56.482      -33.127       -0.986       21.057       15.189       11.340      443.386      230.717      128.606        0.255        0.040       65.480        9.585        0.021      333.337        2.584      860.397
11/21/2014  03:14:00      -67.816      -35.939       -2.407       16.652       12.226        8.005      277.285      149.471       64.074        0.319        0.025       76.750        2.106        0.001      333.283        2.497      860.370
11/21/2014  03:15:00      -57.202       -2.527       -7.645       10.116       10.500        6.845      102.336      110.245       46.856        0.180        0.013       57.258        3.265        0.003      333.320        2.557      860.359
11/21/2014  03:16:00      -55.000        3.525       -7.684        9.543        8.309        6.250       91.060       69.035       39.059        0.165        0.010       55.113        3.452        0.004      333.187        2.335      860.362
11/21/2014  03:17:00      -65.085       11.619       -5.629       14.365       10.863        7.973      206.364      118.007       63.561        0.240        0.019       66.114        5.314        0.006      333.140        2.260      860.376
11/21/2014  03:18:00      -50.408        4.733       -1.075       12.441       13.797        8.903      154.787      190.353       79.261        0.149        0.021       50.629        6.793        0.018      333.147        2.271      860.411
11/21/2014  03:19:00      -42.183      -22.100       -6.827       20.760       11.831       11.399      430.969      139.970      129.942        0.151        0.035       47.622       12.114        0.065      333.328        2.571      860.440
11/21/2014  03:20:00      -59.260       -6.684       -3.734       16.484       14.072       12.060      271.724      198.029      145.452        0.209        0.031       59.635       10.852        0.033      333.082        2.163      860.460
11/21/2014  03:21:00      -63.173        2.837       -3.677        8.227        7.831        7.256       67.676       61.321       52.645        0.210        0.009       63.236        4.818        0.006      333.165        2.301      860.477
11/21/2014  03:22:00      -82.658       -8.788       -9.394        6.751        6.097        5.038       45.579       37.172       25.384        0.355        0.005       83.124        2.892        0.001      333.192        2.346      860.495
11/21/2014  03:23:00      -87.996       -5.667      -10.525        5.451        4.476        3.395       29.708       20.039       11.529        0.397        0.003       88.178        1.501        0.000      333.238        2.420      860.527
11/21/2014  03:24:00      -91.115       -9.662       -9.390        8.373        9.099        7.151       70.101       82.785       51.137        0.434        0.010       91.625        5.091        0.003      333.239        2.424      860.563
11/21/2014  03:25:00      -66.114      -19.422       -2.279       24.238       18.675       14.080      587.479      348.754      198.252        0.294        0.057       68.908       12.262        0.032      333.017        2.059      860.578
11/21/2014  03:26:00      -95.845      -23.279       -5.006       26.953       26.372       17.103      726.476      695.487      292.527        0.573        0.086       98.631       18.980        0.037      332.667        1.478      860.574
11/21/2014  03:27:00      -69.415        7.471       -3.145       41.323       34.048       22.175     1707.590     1159.265      491.731        0.412        0.168       69.816       16.988        0.059      332.668        1.482      860.549
11/21/2014  03:28:00      -76.612       -6.715       -8.912       24.892       26.901       15.721      619.591      723.674      247.138        0.379        0.080       76.905       12.805        0.028      332.738        1.596      860.536
11/21/2014  03:29:00      -69.963      -25.186       -3.377       24.016       20.238       12.033      576.768      409.557      144.801        0.334        0.057       74.359        9.636        0.017      332.671        1.487      860.528
11/21/2014  03:30:00      -76.464      -29.149       -4.518       25.074       13.253       11.708      628.693      175.643      137.081        0.383        0.047       81.832       12.227        0.022      332.648        1.448      860.529
11/21/2014  03:31:00      -95.084      -36.983       -5.077       14.740       15.344       11.226      217.275      235.443      126.029        0.551        0.029      102.023        8.326        0.007      332.604        1.374      860.529
11/21/2014  03:32:00      -79.705      -38.624       -5.438       24.171       25.863       12.948      584.214      668.896      167.646        0.465        0.071       88.570        9.739        0.012      332.540        1.268      860.519
11/21/2014  03:33:00      -86.775       -9.545       -3.059       35.618       23.507       17.604     1268.625      552.593      309.895        0.488        0.107       87.299       18.070        0.043      332.503        1.209      860.504
11/21/2014  03:34:00      -38.912      -14.473       -0.428       24.699       28.754       12.378      610.053      826.777      153.221        0.166        0.080       41.517       11.582        0.078      332.514        1.225      860.495
11/21/2014  03:35:00      -66.287      -21.890       -9.004       26.865       17.171       11.830      721.717      294.857      139.945        0.306        0.058       69.808       11.726        0.028      332.581        1.337      860.490
11/21/2014  03:36:00      -73.705       -9.652       -2.866       28.229       24.744       16.691      796.890      612.243      278.600        0.361        0.084       74.335       12.865        0.030      332.547        1.281      860.491
11/21/2014  03:37:00      -45.052       -2.730       -1.256       24.741       20.304       14.029      612.097      412.233      196.801        0.163        0.061       45.134       12.566        0.078      332.593        1.356      860.487
11/21/2014  03:38:00      -20.174      -11.071       -3.900       21.054       18.360       10.898      443.264      337.087      118.758        0.072        0.045       23.012        7.689        0.112      332.688        1.515      860.468
11/21/2014  03:39:00      -47.485        0.932       -8.645       25.617       28.885       15.395      656.246      834.362      236.992        0.203        0.086       47.494        8.390        0.031      332.749        1.615      860.445
11/21/2014  03:40:00      -69.219      -14.999       -6.865       20.317       32.365       15.804      412.767     1047.525      249.755        0.339        0.086       70.825       11.442        0.026      332.709        1.549      860.432
11/21/2014  03:41:00      -59.099      -10.351       -8.975       16.116       18.190       11.205      259.734      330.891      125.556        0.220        0.036       59.999        7.549        0.016      332.697        1.530      860.435
11/21/2014  03:42:00      -22.716      -10.293       -1.564       18.152        9.890       13.743      329.482       97.812      188.870        0.062        0.031       24.939       12.182        0.239      332.809        1.714      860.451
11/21/2014  03:43:00      -14.958       -1.873       -7.495       10.663       21.359        7.639      113.708      456.198       58.359        0.046        0.031       15.075        8.400        0.311      332.870        1.816      860.457
11/21/2014  03:44:00      -15.212      -34.065        4.660       13.771       19.689       12.118      189.643      387.676      146.854        0.107        0.036       37.307        4.818        0.017      332.722        1.571      860.424
11/21/2014  03:45:00      -23.443      -51.975       -9.303       10.473        8.107        6.720      109.680       65.727       45.157        0.178        0.011       57.017        2.896        0.003      332.798        1.695      860.391
11/21/2014  03:46:00      -21.643      -34.336       -8.422        8.868        7.082        5.888       78.635       50.154       34.668        0.094        0.008       40.588        2.552        0.004      332.899        1.862      860.344
11/21/2014  03:47:00      -37.746      -35.635       -5.634       10.784        8.699        6.300      116.297       75.666       39.689        0.148        0.012       51.910        4.254        0.007      332.830        1.748      860.300
11/21/2014  03:48:00      -61.746      -26.172       -6.836       18.063        9.750        7.916      326.275       95.063       62.664        0.251        0.024       67.064        7.365        0.012      332.636        1.427      860.268
11/21/2014  03:49:00      -80.812      -26.113       -8.471       14.344       16.372       10.196      205.764      268.045      103.965        0.393        0.029       84.926        4.895        0.003      332.545        1.277      860.260
11/21/2014  03:50:00      -81.360      -15.674       -2.270       23.472       16.023       13.532      550.929      256.745      183.122        0.393        0.050       82.856       12.938        0.024      332.588        1.348      860.264
11/21/2014  03:51:00      -78.005      -21.289       -3.333       19.488       17.190        9.745      379.800      295.499       94.964        0.366        0.039       80.858        8.342        0.011      332.657        1.461      860.288
11/21/2014  03:52:00      -90.546      -16.101       -4.083       32.537       20.265       15.615     1058.626      410.652      243.834        0.509        0.086       91.967       17.042        0.034      332.599        1.366      860.335
11/21/2014  03:53:00     -118.617       18.170      -14.545       27.074       20.764       16.762      732.986      431.136      280.962        0.803        0.072      120.001       13.199        0.012      332.500        1.203      860.371
11/21/2014  03:54:00     -100.495       49.438       -5.554       36.850       29.420       25.552     1357.909      865.533      652.925        0.772        0.144      111.997       21.206        0.036      332.697        1.528      860.398
11/21/2014  03:55:00     -116.387       62.371      -15.462       44.203       23.286       23.404     1953.940      542.228      547.724        1.036        0.152      132.045       23.793        0.032      332.712        1.552      860.422
11/21/2014  03:56:00     -119.455       36.924      -15.431       39.447       29.369       23.779     1556.084      862.516      565.422        0.943        0.149      125.031       18.437        0.022      332.688        1.514      860.444
11/21/2014  03:57:00     -129.037       -9.378      -18.860       36.973       26.953       20.321     1367.039      726.441      412.963        0.980        0.125      129.378       17.784        0.019      332.613        1.388      860.443
11/21/2014  03:58:00     -136.392      -49.526      -11.611       30.828       30.495       25.428      950.367      929.949      646.608        1.186        0.126      145.105       14.115        0.009      332.574        1.325      860.441
11/21/2014  03:59:00     -107.362      -13.661      -14.136       50.600       38.723       22.748     2560.351     1499.449      517.479        0.824        0.229      108.227       25.932        0.057      332.482        1.173      860.438
11/21/2014  04:00:00     -167.183        3.481      -18.876       40.754       29.050       20.220     1660.881      843.915      408.866        1.562        0.146      167.219       15.077        0.008      332.491        1.187      860.432
11/21/2014  04:01:00     -150.681       38.000      -15.955       79.913       30.502       38.996     6386.095      930.357     1520.681        1.662        0.442      155.399       41.164        0.070      332.577        1.328      860.441
11/21/2014  04:02:00     -111.403       57.924        1.806       58.737       37.621       29.980     3450.059     1415.337      898.778        1.077        0.288      125.562       14.504        0.013      332.840        1.765      860.433
11/21/2014  04:03:00     -127.793       71.950      -16.095       41.812       27.414       31.245     1748.258      751.546      976.246        1.262        0.174      146.655       26.092        0.032      333.011        2.047      860.423
11/21/2014  04:04:00     -142.631       -8.618      -14.268       30.712       42.546       18.797      943.255     1810.181      353.325        1.186        0.155      142.891       12.442        0.008      332.759        1.631      860.417
11/21/2014  04:05:00     -146.384       -9.666      -19.673       23.061       30.518       14.331      531.827      931.374      205.389        1.179        0.083      146.703        4.309        0.001      332.599        1.366      860.426
11/21/2014  04:06:00     -128.757       13.598      -14.677       19.956       33.309       17.167      398.246     1109.488      294.693        0.939        0.090      129.473       10.483        0.007      332.561        1.304      860.455
11/21/2014  04:07:00     -127.739       21.812      -11.257       31.610       42.024       19.349      999.169     1765.976      374.370        1.003        0.157      129.588       17.445        0.018      332.711        1.551      860.494
11/21/2014  04:08:00     -128.826       52.506      -12.591       37.351       33.039       18.969     1395.075     1091.605      359.809        1.118        0.142      139.115       15.970        0.013      332.876        1.825      860.543
11/21/2014  04:09:00      -97.992      -10.780      -12.526       36.979       56.353       21.422     1367.464     3175.684      458.902        0.744        0.250       98.584       17.547        0.032      332.936        1.922      860.585
11/21/2014  04:10:00     -120.675      -16.405      -11.893       28.142       43.964       15.141      791.978     1932.858      229.254        0.896        0.148      121.785       10.105        0.007      332.688        1.514      860.584
11/21/2014  04:11:00     -153.010       40.677      -17.891       48.749       38.589       26.524     2376.478     1489.122      703.539        1.498        0.228      158.325       20.101        0.016      332.766        1.642      860.551
11/21/2014  04:12:00     -184.066       44.654      -14.047       37.791       34.821       21.017     1428.135     1212.533      441.704        1.958        0.154      189.405       13.518        0.005      332.755        1.624      860.521
11/21/2014  04:13:00     -191.087       31.685      -25.128       32.567       43.631       25.302     1060.633     1903.652      640.184        2.088        0.180      193.696       17.487        0.008      332.622        1.402      860.486
11/21/2014  04:14:00     -129.087      -16.278      -18.652       49.866       30.373       31.751     2486.603      922.514     1008.100        1.085        0.221      130.109       30.798        0.056      332.655        1.459      860.452
11/21/2014  04:15:00     -133.693        3.460       -9.412       39.777       46.816       23.228     1582.242     2191.733      539.551        1.114        0.216      133.738       17.483        0.017      332.797        1.695      860.442
11/21/2014  04:16:00     -128.236        8.942      -11.931       49.805       38.505       20.805     2480.550     1482.670      432.860        1.053        0.220      128.548       19.787        0.024      332.788        1.679      860.476
11/21/2014  04:17:00     -151.256       44.276      -18.227       48.036       31.474       27.990     2307.485      990.633      783.423        1.463        0.204      157.603       20.084        0.016      332.826        1.742      860.521
11/21/2014  04:18:00     -167.724       50.191      -23.065       44.022       29.866       25.304     1937.932      891.970      640.307        1.733        0.174      175.072       18.216        0.011      332.655        1.459      860.536
11/21/2014  04:19:00     -209.370       60.556      -23.441       32.980       28.595       20.565     1087.699      817.673      422.903        2.519        0.116      217.951        7.783        0.001      332.719        1.563      860.524
11/21/2014  04:20:00     -129.035       32.043      -14.469       50.495       32.453       20.649     2549.727     1053.173      426.367        1.096        0.201      132.955       20.335        0.023      332.674        1.491      860.501
11/21/2014  04:21:00      -86.862       -4.400       -7.197       35.253       25.202       23.678     1242.766      635.144      560.647        0.503        0.122       86.973       20.706        0.057      332.680        1.500      860.473
11/21/2014  04:22:00      -94.496      -12.919      -11.100       38.550       20.079       15.926     1486.095      403.178      253.623        0.568        0.107       95.375       13.885        0.021      332.539        1.268      860.451
11/21/2014  04:23:00      -98.730       -4.390       -8.850       54.007       37.407       26.663     2916.745     1399.315      710.922        0.744        0.251       98.828       31.214        0.100      332.442        1.106      860.441
11/21/2014  04:24:00      -51.264       -5.707       -0.859       34.453       24.884       20.576     1187.006      619.200      423.374        0.245        0.111       51.581       10.895        0.045      332.392        1.023      860.437
11/21/2014  04:25:00      -74.118      -28.215      -10.066       35.210       19.306       10.362     1239.718      372.731      107.379        0.406        0.086       79.307        7.683        0.009      332.507        1.214      860.430
11/21/2014  04:26:00     -104.568      -50.992       -0.212       46.593       33.971       26.306     2170.888     1154.059      692.001        0.878        0.201      116.339       28.534        0.060      332.541        1.271      860.423
11/21/2014  04:27:00      -94.916      -32.285        1.122       33.946       28.407       16.289     1152.359      806.961      265.331        0.614        0.111      100.256       14.766        0.022      332.551        1.286      860.425
11/21/2014  04:28:00     -116.721      -52.286       -4.925       26.492       36.873       20.129      701.843     1359.589      405.158        0.942        0.123      127.896       19.767        0.024      332.564        1.307      860.453
11/21/2014  04:29:00     -123.018      -27.079       -8.536       39.479       31.664       25.645     1558.586     1002.616      657.675        0.958        0.161      125.963       24.030        0.036      332.500        1.203      860.515
11/21/2014  04:30:00      -96.359      -12.709       -6.094       71.090       42.622       30.876     5053.837     1816.668      953.324        0.865        0.391       97.194       28.978        0.089      332.432        1.090      860.581
11/21/2014  04:31:00     -110.002      -25.688       -1.629       56.450       41.847       27.631     3186.556     1751.165      763.479        0.923        0.285      112.962       26.507        0.055      332.399        1.036      860.640
11/21/2014  04:32:00     -172.561        1.903      -15.219       45.064       43.657       24.251     2030.738     1905.931      588.131        1.727        0.226      172.572       20.012        0.013      332.374        0.993      860.671
11/21/2014  04:33:00     -123.740       -7.403      -14.318       41.475       31.328       25.553     1720.164      981.419      652.964        0.946        0.168      123.961       21.860        0.031      332.464        1.144      860.667
11/21/2014  04:34:00     -141.341       19.254      -13.588       41.719       43.010       20.773     1740.454     1849.824      431.504        1.228        0.201      142.647       11.297        0.006      332.498        1.200      860.650
11/21/2014  04:35:00      -80.940      -13.673       -3.783       46.473       45.422       23.421     2159.729     2063.202      548.553        0.576        0.239       82.087       19.308        0.055      332.444        1.110      860.678
11/21/2014  04:36:00      -73.351       -8.033       -1.908       31.449       28.937       18.545      989.063      837.352      343.932        0.381        0.109       73.790       12.924        0.031      332.457        1.132      860.722
11/21/2014  04:37:00      -50.169      -11.351       -5.588       16.382       16.854       20.030      268.361      284.069      401.199        0.182        0.048       51.437       10.739        0.044      332.462        1.139      860.772
11/21/2014  04:38:00      -60.689       -6.031       -0.610       28.484       27.164       18.190      811.315      737.869      330.877        0.280        0.094       60.988       11.683        0.037      332.426        1.082      860.814
11/21/2014  04:39:00      -78.972      -13.337      -11.124       15.653       21.284       13.387      245.004      453.001      179.212        0.371        0.044       80.090       10.193        0.016      332.533        1.256      860.835
11/21/2014  04:40:00      -68.042      -19.304      -10.477       16.080       33.288       14.727      258.559     1108.077      216.871        0.335        0.079       70.727       15.870        0.050      332.523        1.241      860.839
11/21/2014  04:41:00      -72.663      -34.996       -6.618       20.207       31.911       17.197      408.306     1018.332      295.733        0.414        0.086       80.651       13.906        0.030      332.485        1.178      860.834
11/21/2014  04:42:00      -59.055      -20.620        1.357       17.920       21.119       15.361      321.127      446.018      235.967        0.246        0.050       62.551       10.606        0.029      332.394        1.029      860.827
11/21/2014  04:43:00      -35.727      -22.841       -7.313        8.258        7.507        5.491       68.195       56.359       30.153        0.100        0.008       42.405        2.573        0.004      332.458        1.132      860.818
11/21/2014  04:44:00      -40.400      -19.852       -7.082        7.035        5.443        4.839       49.492       29.629       23.417        0.109        0.005       45.014        2.187        0.002      332.520        1.236      860.828
11/21/2014  04:45:00      -82.746      -14.857       -8.085       19.831       12.846        8.563      393.265      165.033       73.332        0.388        0.032       84.069        7.775        0.009      332.515        1.227      860.849
11/21/2014  04:46:00     -116.073      -34.877       -8.787       22.171       27.766       13.706      491.563      770.959      187.852        0.811        0.073      121.200        5.620        0.002      332.481        1.173      860.865
11/21/2014  04:47:00      -95.839      -22.615       -6.953       19.877       19.043       15.669      395.113      362.633      245.528        0.537        0.050       98.471        9.049        0.008      332.396        1.030      860.882
11/21/2014  04:48:00      -52.584      -30.437       -0.295       28.159       14.319       13.547      792.931      205.040      183.517        0.244        0.059       60.758       15.738        0.067      332.373        0.993      860.874
11/21/2014  04:49:00      -85.401      -18.566      -13.785       13.578       16.531        8.295      184.353      273.269       68.803        0.418        0.026       87.396        4.802        0.003      332.405        1.046      860.863
11/21/2014  04:50:00      -84.462      -13.558      -12.814       15.958       12.712       11.179      254.665      161.591      124.962        0.401        0.027       85.544        9.483        0.012      332.404        1.043      860.853
11/21/2014  04:51:00     -103.501      -23.323      -10.769       17.651       17.551       11.198      311.546      308.045      125.406        0.606        0.037      106.096        8.375        0.006      332.441        1.105      860.839
11/21/2014  04:52:00     -109.431      -10.321      -15.287       14.909       19.230       14.762      222.269      369.805      217.903        0.656        0.040      109.917        5.472        0.002      332.413        1.058      860.833
11/21/2014  04:53:00      -76.403      -19.846       -6.971       35.906       20.620       15.182     1289.213      425.185      230.490        0.411        0.097       78.938       17.676        0.050      332.319        0.903      860.832
11/21/2014  04:54:00      -91.128       -8.041      -12.502       24.757       18.919       14.712      612.926      357.914      216.447        0.486        0.059       91.482       12.729        0.019      332.391        1.025      860.839
11/21/2014  04:55:00      -57.302       -0.013       -9.476       30.991       17.294       15.898      960.433      299.074      252.751        0.244        0.076       57.302        8.886        0.024      332.533        1.258      860.850
11/21/2014  04:56:00      -70.872       -4.080       -5.145       25.313       17.977       14.984      640.731      323.166      224.526        0.313        0.059       70.990       15.294        0.046      332.540        1.268      860.856
11/21/2014  04:57:00      -97.722       -4.560      -12.116       17.883       15.316       14.259      319.815      234.583      203.325        0.524        0.038       97.829       10.383        0.011      332.419        1.070      860.856
11/21/2014  04:58:00      -86.306      -29.453       -8.391       17.433       18.459       11.940      303.915      340.721      142.575        0.459        0.039       91.194        9.636        0.011      332.386        1.013      860.859
11/21/2014  04:59:00      -87.336      -23.331      -15.709       14.327       16.862       10.612      205.269      284.344      112.610        0.451        0.030       90.398        4.176        0.002      332.440        1.102      860.877
11/21/2014  05:00:00      -50.891      -22.411       -2.928       25.672       12.287       12.964      659.070      150.963      168.075        0.204        0.049       55.607       14.547        0.068      332.464        1.143      860.888
11/21/2014  05:01:00      -43.803      -15.883        0.438       14.057       17.062       10.736      197.598      291.100      115.261        0.139        0.030       46.594        8.957        0.037      332.570        1.318      860.888
11/21/2014  05:02:00      -42.023      -17.279       -3.052       13.184       16.540       13.015      173.822      273.560      169.390        0.135        0.031       45.437        9.169        0.041      332.544        1.274      860.887
11/21/2014  05:03:00      -66.221      -29.421       -8.256       12.760       12.815        9.307      162.811      164.234       86.612        0.287        0.021       72.462        5.175        0.005      332.556        1.295      860.881
11/21/2014  05:04:00      -56.787      -32.506      -11.457       11.973       10.682       10.138      143.361      114.113      102.784        0.239        0.018       65.432        8.580        0.017      332.539        1.267      860.885
11/21/2014  05:05:00      -70.926      -28.833      -10.299        8.777       10.124        6.300       77.033      102.503       39.686        0.309        0.011       76.562        4.532        0.004      332.558        1.298      860.895
11/21/2014  05:06:00      -62.012      -32.968      -11.421        6.983        8.298        6.010       48.761       68.852       36.121        0.261        0.008       70.231        4.955        0.005      332.619        1.399      860.907
11/21/2014  05:07:00      -52.108      -21.261       -8.808        6.195        6.207        5.679       38.381       38.522       32.249        0.168        0.005       56.278        3.815        0.005      332.711        1.554      860.938
11/21/2014  05:08:00      -62.242      -30.178      -13.757        8.134        8.109        6.987       66.160       65.758       48.820        0.258        0.009       69.172        4.045        0.003      332.769        1.647      860.962
11/21/2014  05:09:00      -82.176      -29.206       -9.892        9.491        9.813        7.465       90.073       96.295       55.732        0.397        0.012       87.212        4.547        0.003      332.626        1.410      860.985
11/21/2014  05:10:00     -101.754      -26.166       -7.809       28.036       22.392       17.244      786.008      501.411      297.349        0.634        0.079      105.065       18.730        0.032      332.496        1.194      860.999
11/21/2014  05:11:00      -92.384      -35.776       -1.291       20.502       20.286       14.526      420.330      411.533      211.013        0.543        0.052       99.069       11.357        0.013      332.475        1.162      861.029
11/21/2014  05:12:00      -61.181      -16.109       -1.290       18.787       16.091       11.105      352.947      258.918      123.329        0.237        0.037       63.267        9.846        0.024      332.483        1.174      861.044
11/21/2014  05:13:00      -42.416       -4.482       -5.662        7.261        7.551        4.120       52.723       57.013       16.971        0.099        0.006       42.652        3.041        0.005      332.826        1.743      861.033
11/21/2014  05:14:00      -42.590      -21.394       -6.019        8.557       10.187       11.144       73.226      103.768      124.178        0.130        0.015       47.662        7.165        0.023      332.854        1.788      861.016
11/21/2014  05:15:00      -44.056      -19.660       -6.224       12.084       12.626       11.736      146.016      159.411      137.724        0.140        0.022       48.244        9.953        0.043      332.679        1.499      861.001
11/21/2014  05:16:00      -39.142      -26.967      -11.105       10.380        8.851        5.496      107.751       78.340       30.202        0.130        0.011       47.532        4.563        0.009      332.558        1.299      860.983
11/21/2014  05:17:00        2.777      -13.029       -8.785       26.338       15.400        5.424      693.682      237.157       29.416        0.061        0.048       13.321        6.466        0.236      332.759        1.631      860.948
11/21/2014  05:18:00        1.123       -0.966       13.420       13.374       22.045       12.646      178.863      485.967      159.909        0.050        0.041        1.481       15.691      112.206      332.685        1.509      860.922
11/21/2014  05:19:00      -36.949       -7.324       -3.270       21.866       15.692       10.226      478.129      246.234      104.572        0.113        0.041       37.668       13.176        0.122      332.577        1.331      860.901
11/21/2014  05:20:00      -71.605      -23.074       -9.519       21.092       18.324       10.865      444.856      335.772      118.051        0.332        0.045       75.231       10.461        0.019      332.369        0.986      860.884
11/21/2014  05:21:00       -0.563      -29.553       12.772       30.240       30.228       21.546      914.445      913.752      464.229        0.166        0.115       29.558       22.900        0.600      332.382        1.008      860.866
11/21/2014  05:22:00       27.843       -5.884       19.523       10.577       20.691       11.717      111.864      428.115      137.284        0.093        0.034       28.458        8.651        0.092      332.479        1.167      860.829
11/21/2014  05:23:00       26.510       -5.972        4.472       12.616       19.858       12.486      159.164      394.351      155.902        0.073        0.035       27.175       12.316        0.205      332.612        1.387      860.788
11/21/2014  05:24:00      -37.297      -24.009       -1.197       44.077       21.346       10.762     1942.817      455.633      115.815        0.224        0.126       44.356        4.555        0.011      332.683        1.506      860.757
11/21/2014  05:25:00      -74.583       -5.284       -5.374       25.844       16.850       16.500      667.925      283.911      272.264        0.342        0.061       74.770       11.610        0.024      332.464        1.143      860.740
11/21/2014  05:26:00      -66.851      -12.748       -3.636       25.193       15.806       12.612      634.695      249.837      159.058        0.284        0.052       68.056       14.016        0.042      332.549        1.284      860.725
11/21/2014  05:27:00      -34.281      -11.189       -3.168       18.812        9.842        7.842      353.902       96.861       61.502        0.091        0.026       36.061        7.414        0.042      332.553        1.290      860.721
11/21/2014  05:28:00      -32.240       -2.290        0.053        6.385        8.931        5.985       40.764       79.755       35.825        0.060        0.008       32.321        3.604        0.012      332.659        1.466      860.717
11/21/2014  05:29:00      -23.027        5.558        1.990       10.069        5.417        5.279      101.387       29.340       27.868        0.036        0.008       23.688        2.275        0.009      332.689        1.513      860.722
11/21/2014  05:30:00      -12.243        4.973        0.359        9.714        4.869        5.026       94.363       23.712       25.259        0.016        0.007       13.215        5.415        0.168      332.747        1.610      860.722
11/21/2014  05:31:00      -48.505      -15.025       -4.886       13.646       17.722        6.532      186.201      314.080       42.667        0.157        0.027       50.779        4.399        0.008      332.646        1.443      860.721
11/21/2014  05:32:00      -79.696      -18.733       -8.260       18.598       11.270        8.788      345.880      127.016       77.238        0.366        0.028       81.868        7.906        0.009      332.339        0.938      860.722
11/21/2014  05:33:00     -118.748      -11.301      -12.378       17.928       14.633       10.890      321.402      214.138      118.585        0.752        0.033      119.285        8.064        0.005      332.392        1.025      860.729
11/21/2014  05:34:00      -90.031        7.256      -10.236       13.332       15.828        9.271      177.752      250.527       85.951        0.439        0.026       90.323        9.904        0.012      332.407        1.049      860.726
11/21/2014  05:35:00      -59.238       -9.881       -5.976       23.394       19.691        9.405      547.263      387.721       88.460        0.233        0.051       60.057       12.625        0.044      332.382        1.008      860.727
11/21/2014  05:36:00      -44.313      -31.230       -3.747       23.708        9.084        8.420      562.053       82.528       70.897        0.183        0.036       54.212        9.928        0.034      332.474        1.160      860.723
11/21/2014  05:37:00      -27.575      -24.270        6.796       21.391       12.942       12.047      457.563      167.493      145.138        0.108        0.039       36.734       13.102        0.127      332.404        1.043      860.720
11/21/2014  05:38:00      -87.242       -0.622       -9.981       12.567       12.608       10.153      157.930      158.953      103.090        0.407        0.021       87.244        7.516        0.007      332.243        0.779      860.708
11/21/2014  05:39:00      -67.923       -1.162       -7.923       13.711       19.550       15.201      187.979      382.221      231.075        0.274        0.040       67.933       12.073        0.032      332.227        0.753      860.694
11/21/2014  05:40:00      -70.401      -13.851       -5.959       14.358       13.569        9.183      206.164      184.121       84.319        0.283        0.024       71.750        8.549        0.014      332.153        0.633      860.702
11/21/2014  05:41:00      -80.379      -15.726      -12.575       12.264        9.604       10.056      150.407       92.232      101.125        0.360        0.017       81.903        5.699        0.005      332.196        0.701      860.710
11/21/2014  05:42:00      -74.466       -8.661       -6.794       12.418        9.503        6.626      154.211       90.298       43.903        0.298        0.014       74.968        7.107        0.009      332.148        0.624      860.725
11/21/2014  05:43:00      -65.692       -0.764       -5.865       21.148       10.746       12.347      447.250      115.480      152.444        0.253        0.036       65.697       13.078        0.040      332.155        0.633      860.741
11/21/2014  05:44:00      -61.463       -3.330      -10.917       11.644       10.007        9.475      135.584      100.131       89.784        0.212        0.016       61.553        5.588        0.008      332.191        0.694      860.745
11/21/2014  05:45:00      -38.696      -15.840       -5.763        8.456       12.339        6.115       71.504      152.257       37.394        0.102        0.013       41.812        3.874        0.009      332.185        0.683      860.738
11/21/2014  05:46:00      -47.691      -15.509       -7.210        7.482        8.491        5.628       55.981       72.091       31.670        0.136        0.008       50.149        3.820        0.006      332.091        0.527      860.729
11/21/2014  05:47:00      -82.983      -21.504      -11.498       17.496       11.578        7.536      306.114      134.050       56.787        0.399        0.025       85.724        7.267        0.007      332.065        0.486      860.736
11/21/2014  05:48:00     -110.942      -22.697      -13.080       14.357       12.237       10.202      206.113      149.750      104.085        0.673        0.023      113.240        8.805        0.006      332.025        0.419      860.734
11/21/2014  05:49:00     -118.160      -14.028      -16.744       13.908       11.556        9.507      193.445      133.545       90.392        0.743        0.021      118.990        7.626        0.004      332.041        0.445      860.719
11/21/2014  05:50:00     -105.479      -11.944      -13.258       12.920       15.163        7.636      166.917      229.912       58.311        0.595        0.023      106.153        4.788        0.002      332.129        0.590      860.704
11/21/2014  05:51:00     -100.369       -2.305       -9.712       13.287       10.427        7.486      176.547      108.715       56.038        0.526        0.017      100.396        4.393        0.002      332.060        0.477      860.695
11/21/2014  05:52:00      -69.786       -0.841       -7.481       13.408        7.108        5.636      179.771       50.521       31.760        0.259        0.013       69.791        5.554        0.006      332.062        0.480      860.695
11/21/2014  05:53:00      -70.909       -8.309       -7.760       13.965        8.668        7.721      195.029       75.143       59.617        0.274        0.016       71.394        6.124        0.007      332.144        0.616      860.700
11/21/2014  05:54:00      -78.973      -27.224       -4.708       17.874       15.376       11.434      319.473      236.433      130.742        0.384        0.034       83.533        8.340        0.010      332.112        0.562      860.710
11/21/2014  05:55:00      -64.979      -26.917        5.410       27.324       17.464       13.530      746.626      305.001      183.059        0.311        0.062       70.334       12.684        0.033      332.092        0.530      860.716
11/21/2014  05:56:00      -64.369      -28.095        6.110       40.185       22.729       18.525     1614.812      516.622      343.191        0.372        0.124       70.233       20.162        0.082      332.037        0.440      860.729
11/21/2014  05:57:00     -107.148      -53.299       -1.721       46.305       29.118       15.705     2144.196      847.877      246.648        0.878        0.162      119.672       11.780        0.010      332.065        0.486      860.747
11/21/2014  05:58:00     -113.433      -24.146       -2.840       34.688       33.020       22.090     1203.275     1090.337      487.954        0.812        0.139      115.974       18.635        0.026      331.938        0.276      860.774
11/21/2014  05:59:00     -166.822      -58.664        0.950       70.962       44.046       25.854     5035.676     1940.078      668.413        1.946        0.382      176.836       29.499        0.028      331.836        0.106      860.804
11/21/2014  06:00:00     -168.091      -66.612       -1.369       51.934       56.082       29.292     2697.090     3145.246      858.010        1.970        0.335      180.808       25.471        0.020      331.815        0.072      860.825
11/21/2014  06:01:00     -138.806      -49.955       -1.238       41.060       32.356       18.797     1685.920     1046.893      353.340        1.242        0.154      147.522       16.709        0.013      331.858        0.143      860.839
11/21/2014  06:02:00     -131.404      -59.251       -4.593       45.330       31.246       22.220     2054.834      976.298      493.734        1.216        0.176      144.145       21.452        0.022      331.885        0.188      860.845
11/21/2014  06:03:00     -113.768      -41.815       -0.237       42.140       31.283       20.571     1775.804      978.615      423.174        0.893        0.159      121.209       21.969        0.033      331.879        0.179      860.849
11/21/2014  06:04:00     -141.868      -55.858        1.744       43.381       35.558       23.513     1881.899     1264.367      552.877        1.347        0.185      152.469       24.738        0.026      331.865        0.155      860.846
11/21/2014  06:05:00     -113.690      -49.783       -3.040       47.683       27.165       19.543     2273.708      737.947      381.916        0.940        0.170      124.112       17.689        0.020      331.908        0.226      860.846
11/21/2014  06:06:00     -120.020      -40.460       -7.434       27.687       23.964       14.541      766.598      574.279      211.454        0.882        0.078      126.656       13.720        0.012      331.884        0.186      860.839
11/21/2014  06:07:00     -106.831      -42.428       -8.970       18.045       18.253       12.775      325.623      333.173      163.208        0.706        0.041      114.948        8.892        0.006      331.909        0.229      860.831
11/21/2014  06:08:00     -106.213      -34.656       -5.505       18.899       14.194       11.848      357.181      201.477      140.377        0.661        0.035      111.724       10.012        0.008      331.853        0.136      860.820
11/21/2014  06:09:00     -121.230      -41.299       -9.830       13.544       12.821        9.258      183.435      164.385       85.707        0.847        0.022      128.072        5.455        0.002      331.844        0.121      860.798
11/21/2014  06:10:00     -131.526      -13.949      -13.426       22.846       15.588       14.189      521.947      242.976      201.341        0.932        0.048      132.264       11.684        0.008      331.737       -0.053      860.790
11/21/2014  06:11:00     -101.707      -25.937       -0.862       41.944       28.584       22.677     1759.315      817.019      514.254        0.705        0.155      104.962       21.797        0.043      331.791        0.033      860.772
11/21/2014  06:12:00      -79.759      -26.775       -0.376       48.764       37.844       23.445     2377.913     1432.164      549.662        0.572        0.218       84.133       25.123        0.089      331.747       -0.040      860.764
11/21/2014  06:13:00     -107.218      -25.404       -9.179       37.735       23.121       17.334     1423.927      534.563      300.463        0.724        0.113      110.186       16.153        0.021      331.710       -0.100      860.752
11/21/2014  06:14:00      -58.878      -12.874       -6.065       31.551       29.040       19.496      995.466      843.341      380.101        0.294        0.111       60.269       15.615        0.067      331.747       -0.037      860.736
11/21/2014  06:15:00      -79.227      -16.215       -0.822       42.676       33.467       21.191     1821.200     1120.072      449.039        0.496        0.170       80.870       16.278        0.041      331.803        0.053      860.737
11/21/2014  06:16:00      -70.678      -22.217       -7.813       29.758       25.116       15.398      885.528      630.826      237.099        0.365        0.088       74.088       13.734        0.034      331.804        0.055      860.743
11/21/2014  06:17:00      -56.890      -25.782       -5.946       30.740       26.441       17.766      944.924      699.130      315.634        0.295        0.098       62.460        9.968        0.025      331.799        0.046      860.747
11/21/2014  06:18:00     -113.868      -41.425      -12.021       26.297       33.003       18.087      691.557     1089.168      327.151        0.847        0.105      121.169        9.645        0.006      331.859        0.146      860.743
11/21/2014  06:19:00     -120.088      -51.023      -11.515       44.606       34.118       19.204     1989.684     1164.033      368.782        1.034        0.176      130.478       10.303        0.006      331.733       -0.061      860.733
11/21/2014  06:20:00      -84.085      -15.537      -11.266       55.742       36.323       22.809     3107.148     1319.349      520.246        0.619        0.247       85.509       21.824        0.065      331.693       -0.125      860.731
11/21/2014  06:21:00     -119.625       18.473      -13.876       48.187       41.778       29.694     2321.964     1745.400      881.707        0.990        0.247      121.043       25.509        0.044      331.726       -0.071      860.719
11/21/2014  06:22:00     -125.484       24.425       -9.994       41.116       37.275       25.102     1690.512     1389.452      630.126        1.008        0.186      127.839       16.510        0.017      331.786        0.026      860.701
11/21/2014  06:23:00     -111.245       31.420       -7.357       54.585       29.250       27.023     2979.470      855.556      730.234        0.899        0.228      115.597       11.018        0.009      331.748       -0.038      860.687
11/21/2014  06:24:00     -163.020       21.848      -16.041       42.225       37.914       16.498     1782.919     1437.484      272.180        1.540        0.175      164.477       12.225        0.006      331.751       -0.032      860.673
11/21/2014  06:25:00     -121.382        6.739      -13.791       32.663       32.310       18.540     1066.842     1043.928      343.748        0.871        0.123      121.568       17.544        0.021      331.751       -0.032      860.670
11/21/2014  06:26:00     -116.433      -26.884       -7.529       44.268       43.406       24.542     1959.640     1884.067      602.334        0.939        0.222      119.496       24.640        0.043      331.696       -0.120      860.670
11/21/2014  06:27:00      -93.390      -18.383       -3.456       51.414       35.885       24.572     2643.368     1287.731      603.803        0.680        0.227       95.182       24.956        0.069      331.691       -0.131      860.670
11/21/2014  06:28:00     -134.057        6.856      -13.694       50.061       51.979       30.514     2506.073     2701.789      931.081        1.217        0.307      134.232       21.794        0.026      331.721       -0.082      860.677
11/21/2014  06:29:00     -149.682       35.565      -26.701       52.135       47.993       30.577     2718.034     2303.329      934.973        1.517        0.298      153.849       15.542        0.010      331.665       -0.174      860.695
11/21/2014  06:30:00     -191.836       24.728      -25.268       54.116       46.642       30.928     2928.523     2175.492      956.537        2.205        0.303      193.423       22.988        0.014      331.562       -0.344      860.727
11/21/2014  06:31:00     -173.698       27.500      -13.970       36.531       38.196       21.763     1334.488     1458.950      473.609        1.719        0.163      175.862       18.486        0.011      331.554       -0.357      860.763
11/21/2014  06:32:00     -145.460       47.585      -15.654       46.533       43.429       20.586     2165.276     1886.057      423.765        1.407        0.224      153.045       17.768        0.013      331.539       -0.382      860.778
11/21/2014  06:33:00     -144.787        4.651      -19.345       22.369       35.085       19.884      500.369     1230.953      395.359        1.174        0.106      144.861       10.581        0.005      331.627       -0.235      860.775
11/21/2014  06:34:00     -126.427      -32.562      -17.409       34.853       33.621       28.031     1214.764     1130.368      785.718        1.024        0.157      130.553       23.263        0.032      331.669       -0.167      860.759
11/21/2014  06:35:00     -180.443       41.741      -17.250       37.050       29.745       19.590     1372.673      884.752      383.776        1.862        0.132      185.208       10.220        0.003      331.683       -0.144      860.755
11/21/2014  06:36:00     -157.786       22.137      -12.898       32.195       34.196       19.451     1036.544     1169.336      378.323        1.407        0.129      159.332        8.849        0.003      331.718       -0.086      860.771
11/21/2014  06:37:00     -175.741       27.324      -12.572       24.836       32.391       20.402      616.823     1049.163      416.237        1.694        0.104      177.853       13.059        0.005      331.724       -0.076      860.801
11/21/2014  06:38:00      -79.871      -26.823       -6.133       40.671       31.056       19.217     1654.159      964.479      369.291        0.506        0.149       84.254       22.796        0.073      331.730       -0.066      860.823
11/21/2014  06:39:00     -104.020       -0.197      -12.572       25.957       26.075       17.817      673.757      679.913      317.458        0.632        0.084      104.020       14.283        0.019      331.836        0.108      860.851
11/21/2014  06:40:00      -94.678      -19.349       -9.691       19.518       25.305       13.484      380.943      640.324      181.832        0.532        0.060       96.635       10.882        0.013      331.828        0.095      860.876
11/21/2014  06:41:00     -115.788      -35.843       -9.439       31.224       17.550       16.857      974.917      307.999      284.168        0.817        0.078      121.209       17.221        0.020      331.862        0.150      860.890
11/21/2014  06:42:00     -145.489      -31.405      -15.286       31.024       18.329       17.618      962.490      335.969      310.389        1.200        0.080      148.839       18.006        0.015      331.912        0.232      860.899
11/21/2014  06:43:00     -142.373      -42.632       -3.352       32.678       26.017       23.674     1067.871      676.889      560.475        1.220        0.115      148.618       19.860        0.018      331.930        0.262      860.906
11/21/2014  06:44:00     -124.548      -31.492       -3.690       32.341       27.629       20.694     1045.966      763.373      428.237        0.938        0.112      128.468       19.274        0.023      331.952        0.298      860.909
11/21/2014  06:45:00     -132.049      -27.080      -15.081       38.320       24.891       19.510     1468.453      619.577      380.621        1.043        0.123      134.797       21.780        0.026      331.953        0.299      860.909
11/21/2014  06:46:00     -104.317       -7.819       -9.496       24.126       21.566       14.655      582.086      465.110      214.762        0.615        0.063      104.610       10.762        0.011      331.923        0.250      860.896
11/21/2014  06:47:00      -99.623      -18.287       -6.135       28.511       22.718       16.270      812.897      516.097      264.698        0.594        0.080      101.287       15.563        0.024      331.932        0.265      860.879
11/21/2014  06:48:00     -109.622      -31.826       -2.137       28.117       20.462       12.019      790.564      418.692      144.451        0.719        0.068      114.149       12.289        0.012      331.933        0.266      860.867
11/21/2014  06:49:00     -100.299      -24.026       -2.057       25.127       24.781       16.293      631.386      614.097      265.449        0.608        0.076      103.137       12.448        0.015      331.876        0.174      860.863
11/21/2014  06:50:00      -89.238      -25.960       -6.076       24.093       18.300       14.144      580.484      334.886      200.047        0.489        0.056       92.937       12.841        0.019      331.860        0.146      860.864
11/21/2014  06:51:00     -114.054      -22.988       -3.521       37.166       20.507       21.846     1381.319      420.520      477.231        0.791        0.114      116.347       23.893        0.042      331.796        0.042      860.865
11/21/2014  06:52:00      -93.990      -31.138       -2.004       26.649       26.655       17.885      710.158      710.473      319.874        0.577        0.087       99.013       11.655        0.014      331.741       -0.048      860.864
11/21/2014  06:53:00      -90.485      -20.969       -3.425       36.300       29.120       19.787     1317.654      847.960      391.534        0.560        0.128       92.883       21.804        0.055      331.747       -0.038      860.856
11/21/2014  06:54:00      -69.965      -14.537       -1.128       33.225       18.877       16.975     1103.888      356.333      288.161        0.343        0.087       71.459       16.775        0.055      331.754       -0.026      860.849
11/21/2014  06:55:00      -74.716      -16.197       -1.906       42.188       24.175       15.298     1779.818      584.420      234.015        0.422        0.130       76.451       14.683        0.037      331.783        0.021      860.848
11/21/2014  06:56:00      -85.496      -27.633       -8.209       18.968       18.084       11.411      359.801      327.018      130.222        0.448        0.041       89.851        6.411        0.005      331.768       -0.006      860.846
11/21/2014  06:57:00      -72.457      -15.908       -5.609       26.679       15.273       15.263      711.774      233.275      232.957        0.336        0.059       74.183       11.559        0.024      331.768       -0.004      860.849
11/21/2014  06:58:00     -105.047      -32.888      -16.418       21.150       27.154       12.723      447.313      737.313      161.883        0.687        0.067      110.075       12.409        0.013      331.960        0.311      860.856
11/21/2014  06:59:00      -82.425      -23.323       -7.408       23.407       18.040       13.804      547.877      325.426      190.541        0.423        0.053       85.661       12.523        0.021      331.957        0.306      860.857
11/21/2014  07:00:00      -73.743      -34.567        1.666       24.458       20.397       13.751      598.214      416.036      189.084        0.392        0.060       81.443       13.152        0.026      331.930        0.263      860.860
11/21/2014  07:01:00      -58.973      -30.568       -4.645       30.409       19.017       13.188      924.695      361.662      173.921        0.295        0.073       66.424       13.612        0.042      331.973        0.333      860.873
11/21/2014  07:02:00     -105.715      -49.865       -5.285       17.986       19.072       11.667      323.513      363.725      136.123        0.726        0.041      116.885        8.522        0.005      332.009        0.391      860.902
11/21/2014  07:03:00     -108.388      -54.922       -3.247       26.795       29.454       17.614      717.948      867.541      310.260        0.833        0.095      121.509       14.241        0.014      331.937        0.274      860.934
11/21/2014  07:04:00     -103.141      -71.033       -7.038       22.905       21.677       15.561      524.617      469.891      242.159        0.848        0.062      125.235       10.426        0.007      332.059        0.476      860.979
11/21/2014  07:05:00      -97.396      -56.243       -1.606       25.988       20.642       14.122      675.386      426.082      199.427        0.698        0.065      112.469       12.200        0.012      332.087        0.521      861.007
11/21/2014  07:06:00      -87.366      -62.314       -0.927       31.746       19.002       19.028     1007.790      361.091      362.055        0.662        0.087      107.312       18.866        0.031      332.100        0.544      861.026
11/21/2014  07:07:00      -88.558      -55.573       -4.099       28.818       22.162       15.213      830.479      491.153      231.421        0.625        0.078      104.551       14.046        0.018      332.117        0.571      861.034
11/21/2014  07:08:00      -58.371      -34.629        1.116       28.994       21.016       16.795      840.629      441.676      282.062        0.309        0.078       67.870       13.272        0.038      332.023        0.416      861.025
11/21/2014  07:09:00      -59.012      -42.932        1.842       29.521       19.623       14.271      871.487      385.053      203.671        0.339        0.073       72.976       13.748        0.035      332.033        0.434      861.001
11/21/2014  07:10:00      -35.213      -34.792        8.553       25.476       16.235       14.197      649.038      263.587      201.543        0.182        0.056       49.502       10.746        0.047      332.081        0.512      860.971
11/21/2014  07:11:00      -71.231      -61.554        2.635       38.868       39.021       18.498     1510.741     1522.674      342.183        0.612        0.169       94.142       18.411        0.038      331.997        0.373      860.955
11/21/2014  07:12:00      -99.833      -82.061       -0.439       45.749       40.910       30.804     2092.966     1673.625      948.875        1.071        0.236      129.231       29.600        0.052      332.069        0.492      860.949
11/21/2014  07:13:00     -101.453      -67.600        3.582       39.853       40.180       28.950     1588.272     1614.401      838.117        0.946        0.202      121.912       24.215        0.039      332.077        0.505      860.950
11/21/2014  07:14:00      -81.336      -60.886       11.610       64.105       32.892       30.139     4109.491     1081.893      908.372        0.828        0.305      101.601       30.509        0.090      332.040        0.443      860.965
11/21/2014  07:15:00     -101.326     -106.578       -0.254       40.793       42.335       24.674     1664.057     1792.278      608.784        1.284        0.203      147.057       26.002        0.031      332.107        0.555      860.982
11/21/2014  07:16:00      -89.124      -49.643        2.302       40.897       33.165       24.720     1672.526     1099.907      611.069        0.690        0.169      102.017       25.458        0.062      332.044        0.452      860.984
11/21/2014  07:17:00      -56.866      -38.481        4.278       40.103       30.019       21.280     1608.225      901.136      452.830        0.385        0.148       68.662       23.329        0.115      332.096        0.536      860.988
11/21/2014  07:18:00      -72.020      -41.720       -2.398       38.373       26.297       21.435     1472.452      691.558      459.456        0.478        0.131       83.231       22.645        0.074      332.033        0.433      860.998
11/21/2014  07:19:00      -65.038      -12.602        3.734       44.030       22.969       20.525     1938.606      527.591      421.294        0.364        0.144       66.248       24.377        0.135      331.899        0.213      861.023
11/21/2014  07:20:00     -108.787      -18.965       -1.245       45.943       27.753       16.856     2110.746      770.246      284.124        0.768        0.158      110.428       18.592        0.028      331.858        0.145      861.059
11/21/2014  07:21:00     -109.795      -25.715       -3.706       44.709       26.632       20.587     1998.855      709.274      423.843        0.793        0.157      112.766       21.424        0.036      331.794        0.039      861.101
11/21/2014  07:22:00     -116.185      -22.740       -3.376       41.100       32.404       24.898     1689.197     1049.991      619.903        0.869        0.168      118.389       23.825        0.040      331.730       -0.065      861.141
11/21/2014  07:23:00     -138.354      -28.002       -7.240       46.187       31.106       29.320     2133.250      967.560      859.683        1.197        0.198      141.160       26.950        0.036      331.746       -0.040      861.183
11/21/2014  07:24:00      -98.111      -36.089       -1.912       48.640       42.512       27.921     2365.839     1807.289      779.561        0.794        0.248      104.538       28.765        0.076      331.840        0.114      861.220
11/21/2014  07:25:00      -98.714      -29.714       -0.237       36.384       25.455       18.585     1323.824      647.943      345.390        0.647        0.116      103.089       20.152        0.038      331.900        0.213      861.252
11/21/2014  07:26:00     -122.493      -42.270       -5.527       28.533       23.564       19.376      814.153      555.266      375.442        0.928        0.087      129.581       19.935        0.024      331.817        0.079      861.285
11/21/2014  07:27:00      -75.002      -48.624        2.087       42.240       35.674       20.809     1784.186     1272.644      433.028        0.574        0.174       89.384       23.776        0.071      331.886        0.191      861.316
11/21/2014  07:28:00     -114.865      -36.838       -1.095       46.158       30.531       23.425     2130.534      932.170      548.750        0.908        0.181      120.627       20.355        0.028      331.962        0.315      861.344
11/21/2014  07:29:00      -95.728      -29.655       -0.166       45.340       27.085       18.651     2055.729      733.615      347.843        0.659        0.157      100.217       21.636        0.047      332.037        0.441      861.373
11/21/2014  07:30:00      -99.286      -22.420       -0.958       41.660       27.129       18.292     1735.575      735.975      334.597        0.658        0.140      101.786       20.895        0.042      331.981        0.346      861.405
11/21/2014  07:31:00     -112.331      -25.675       -4.095       25.527       17.702       17.450      651.637      313.370      304.501        0.728        0.063      115.228       16.697        0.021      331.938        0.277      861.430
11/21/2014  07:32:00      -97.493      -24.280       -4.566       34.653       21.416       17.705     1200.814      458.663      313.462        0.604        0.099      100.471       18.355        0.033      331.945        0.288      861.463
11/21/2014  07:33:00      -92.068      -31.671        1.089       28.472       19.158       14.277      810.651      367.045      203.846        0.543        0.069       97.363       13.795        0.020      332.072        0.498      861.502
11/21/2014  07:34:00     -121.486        8.353       -8.844       20.393       16.498       14.820      415.889      272.174      219.627        0.791        0.045      121.773        9.548        0.006      332.030        0.428      861.531
11/21/2014  07:35:00     -109.418       -5.289      -12.137       14.814       17.066       10.697      219.449      291.265      114.431        0.639        0.031      109.546        4.150        0.001      332.096        0.538      861.556
11/21/2014  07:36:00      -98.667       -3.179       -8.840       18.657       17.516       10.490      348.066      306.820      110.031        0.529        0.038       98.719        7.733        0.006      332.167        0.655      861.581
11/21/2014  07:37:00     -116.167       16.504       -7.915       23.598       18.690       11.762      556.889      349.328      138.356        0.744        0.052      117.333        4.826        0.002      332.185        0.685      861.616
11/21/2014  07:38:00     -135.615       26.967       -5.776       18.736       21.343       13.082      351.026      455.523      171.151        1.006        0.049      138.270        9.026        0.004      332.287        0.852      861.649
11/21/2014  07:39:00      -99.908      -38.047      -12.701       23.421       23.695       13.669      548.528      561.453      186.831        0.644        0.065      106.907       16.452        0.024      332.292        0.859      861.670
11/21/2014  07:40:00      -84.621      -36.949       -8.275       15.088       23.617       11.998      227.648      557.770      143.947        0.476        0.046       92.336        5.502        0.004      332.346        0.948      861.698
11/21/2014  07:41:00      -69.885      -25.083       -1.758       20.714       19.525       12.121      429.077      381.232      146.920        0.324        0.048       74.250       10.839        0.021      332.356        0.966      861.710
11/21/2014  07:42:00      -73.746      -12.017       -5.665       13.965       15.992        9.884      195.010      255.753       97.684        0.308        0.027       74.718        8.495        0.013      332.405        1.047      861.723
11/21/2014  07:43:00      -84.645      -20.244       -6.091       13.479       10.394       11.660      181.675      108.034      135.956        0.402        0.021       87.033        9.199        0.011      332.515        1.227      861.741
11/21/2014  07:44:00      -72.297      -26.891       -8.162       10.630       13.902        7.731      112.993      193.259       59.774        0.319        0.018       77.136        5.411        0.005      332.618        1.399      861.756
11/21/2014  07:45:00      -35.454      -31.620        0.193       25.339       18.996       12.110      642.042      360.849      146.648        0.170        0.057       47.506       14.625        0.095      332.718        1.562      861.778
11/21/2014  07:46:00      -38.061      -24.495       -4.327       16.437        6.976       10.266      270.166       48.669      105.383        0.125        0.021       45.262        8.727        0.037      332.726        1.575      861.802
11/21/2014  07:47:00      -48.177      -22.972       -3.968        6.662        6.574        5.313       44.383       43.212       28.227        0.149        0.006       53.374        4.016        0.006      332.676        1.494      861.805
11/21/2014  07:48:00      -39.237      -10.187       -2.987        7.767        5.741        3.786       60.327       32.962       14.331        0.088        0.005       40.538        4.492        0.012      332.832        1.752      861.816
11/21/2014  07:49:00      -30.845       -1.913       -1.795        4.083        3.611        2.641       16.674       13.040        6.973        0.050        0.002       30.904        1.625        0.003      332.852        1.786      861.833
11/21/2014  07:50:00      -11.065       20.389        0.649       13.801       15.594       12.657      190.462      243.181      160.202        0.057        0.030       23.198       12.452        0.288      333.102        2.198      861.852
11/21/2014  07:51:00       18.479       18.052        8.392       13.745       12.723       10.393      188.917      161.882      108.007        0.060        0.023       25.834        6.787        0.069      333.228        2.404      861.874
11/21/2014  07:52:00       16.687       37.765        7.592       17.792       18.689       14.519      316.546      349.269      210.806        0.132        0.044       41.287       11.761        0.081      333.179        2.325      861.902
11/21/2014  07:53:00       33.954       28.997       -3.113       12.178       14.213       16.833      148.315      201.996      283.347        0.132        0.032       44.651       11.187        0.063      333.148        2.273      861.927
11/21/2014  07:54:00       30.236       18.854        1.078       14.900       14.353       12.240      222.007      206.015      149.825        0.092        0.029       35.633        9.226        0.067      333.187        2.337      861.954
11/21/2014  07:55:00       50.326       27.376       -0.854       14.545       13.107       15.966      211.560      171.786      254.922        0.196        0.032       57.290        8.843        0.024      332.981        1.998      861.984
11/21/2014  07:56:00       66.555       32.273       -2.146       19.009       14.378       14.680      361.350      206.719      215.508        0.313        0.039       73.967        7.402        0.010      333.010        2.045      862.001
11/21/2014  07:57:00       98.579       57.996        1.721       25.758       14.685       17.517      663.483      215.639      306.835        0.713        0.059      114.374        9.294        0.007      332.909        1.879      862.013
11/21/2014  07:58:00      115.778       73.313       -3.330       19.771       23.471       22.046      390.883      550.903      486.015        1.011        0.071      137.038       12.172        0.008      332.866        1.808      862.022
11/21/2014  07:59:00      108.597       70.854       -9.586       26.617       28.164       25.279      708.450      793.211      639.022        0.952        0.107      129.667       13.830        0.011      332.852        1.784      862.034
11/21/2014  08:00:00       92.873       61.047       -6.934       32.770       24.190       25.415     1073.881      585.147      645.940        0.735        0.115      111.140       16.850        0.023      332.882        1.833      862.046
11/21/2014  08:01:00       80.979       69.315       -1.255       27.327       15.509       16.159      746.744      240.531      261.125        0.631        0.062      106.593        7.969        0.006      332.861        1.799      862.054
11/21/2014  08:02:00      108.086       79.878       17.473       30.609       30.443       27.853      936.882      926.761      775.814        1.050        0.132      134.399       23.766        0.031      332.934        1.920      862.049
11/21/2014  08:03:00       85.057       67.747       30.201       45.519       36.035       42.333     2071.974     1298.534     1792.118        0.895        0.258      108.740       31.835        0.086      333.000        2.028      862.036
11/21/2014  08:04:00       33.206       35.119       17.437       33.004       26.034       29.235     1089.257      677.784      854.678        0.263        0.131       48.332       23.121        0.229      333.153        2.280      862.022
11/21/2014  08:05:00       56.567       67.845       38.199       40.621       33.096       43.002     1650.044     1095.345     1849.172        0.693        0.230       88.333       26.639        0.091      333.154        2.284      862.014
11/21/2014  08:06:00       89.945       54.882       53.952       59.714       39.611       36.207     3565.732     1569.015     1310.965        1.023        0.322      105.366       35.265        0.112      333.105        2.203      862.027
11/21/2014  08:07:00      123.475       57.301       38.755       60.563       43.634       45.426     3667.843     1903.910     2063.482        1.383        0.382      136.123       31.478        0.053      332.915        1.889      862.033
11/21/2014  08:08:00       93.978       53.042       23.722       65.657       56.324       41.171     4310.825     3172.386     1695.089        1.069        0.459      107.913       28.432        0.069      333.023        2.067      862.037
11/21/2014  08:09:00       28.577       72.209       65.159       40.583       38.022       34.466     1647.002     1445.696     1187.882        0.728        0.214       77.658       22.681        0.085      333.290        2.508      862.037
11/21/2014  08:10:00       -9.827       95.664      122.437       46.469       59.091       34.891     2159.330     3491.776     1217.377        1.555        0.343       96.167       33.352        0.120      333.087        2.171      862.024
11/21/2014  08:11:00       74.347       96.760       84.193       52.042       43.862       54.672     2708.406     1923.898     2989.024        1.480        0.381      122.024       43.317        0.126      332.832        1.751      862.021
11/21/2014  08:12:00       55.320       95.388       86.233       64.777       47.705       42.953     4196.086     2275.763     1844.949        1.395        0.416      110.269       42.363        0.148      332.930        1.914      861.999
11/21/2014  08:13:00       94.927       78.871       53.313       47.577       41.461       36.928     2263.602     1719.052     1363.699        1.171        0.267      123.417       24.972        0.041      332.985        2.004      861.978
11/21/2014  08:14:00       84.385       48.958       13.528       50.532       54.746       36.571     2553.459     2997.110     1337.471        0.829        0.344       97.559       25.096        0.066      333.033        2.082      861.974
11/21/2014  08:15:00      129.063       79.491       11.773       52.502       38.256       36.627     2756.505     1463.498     1341.573        1.434        0.278      151.578       22.447        0.022      332.935        1.920      861.972
11/21/2014  08:16:00       32.005       71.994       74.114       46.677       49.712       41.514     2178.738     2471.280     1723.381        0.904        0.319       78.787       31.113        0.156      333.150        2.276      861.976
11/21/2014  08:17:00       80.429       81.148       36.082       53.384       40.207       41.784     2849.857     1616.605     1745.872        1.028        0.311      114.253       32.491        0.081      333.032        2.082      861.993
11/21/2014  08:18:00       97.129       60.979       10.550       49.237       43.533       39.830     2424.302     1895.107     1586.404        0.958        0.295      114.685       19.030        0.028      332.935        1.921      861.994
11/21/2014  08:19:00       98.304       83.252       18.130       34.507       34.937       30.295     1190.760     1220.593      917.781        1.013        0.166      128.820       19.661        0.023      333.045        2.103      861.982
11/21/2014  08:20:00       59.177       51.135        3.462       37.579       50.854       35.516     1412.163     2586.085     1261.377        0.569        0.263       78.209       30.072        0.148      333.067        2.140      861.967
11/21/2014  08:21:00       15.665       22.070        7.308       37.456       43.377       23.484     1402.968     1881.594      551.488        0.231        0.192       27.064       20.247        0.560      333.327        2.567      861.950
11/21/2014  08:22:00        5.986       38.148       13.359       24.018       40.042       20.631      576.841     1603.339      425.628        0.214        0.130       38.615       20.918        0.293      333.503        2.861      861.944
11/21/2014  08:23:00       16.588       55.096       66.874       30.660       35.977       16.853      940.038     1294.336      284.037        0.515        0.126       57.539       17.344        0.091      333.254        2.448      861.953
11/21/2014  08:24:00       63.786       60.040       28.286       33.620       19.916       31.447     1130.325      396.649      988.940        0.549        0.126       87.599       24.117        0.076      333.088        2.175      861.969
11/21/2014  08:25:00       78.727       62.351        0.009       37.157       24.269       28.673     1380.611      589.002      822.161        0.644        0.140      100.427       13.293        0.018      333.135        2.251      861.978
11/21/2014  08:26:00       84.181       57.248        4.562       24.554       20.710       26.148      602.918      428.899      683.711        0.605        0.086      101.803        9.740        0.009      333.146        2.270      861.994
11/21/2014  08:27:00       91.281       79.473       13.826       26.302       29.370       26.809      691.771      862.601      718.697        0.856        0.114      121.029       11.182        0.009      333.209        2.373      862.012
11/21/2014  08:28:00       89.684       65.488       -2.226       30.574       26.685       27.288      934.781      712.113      744.658        0.736        0.120      111.050        8.234        0.005      333.209        2.375      862.033
11/21/2014  08:29:00       75.112       71.644       10.926       36.459       28.484       26.193     1329.291      811.314      686.071        0.686        0.141      103.802       18.153        0.031      333.290        2.508      862.035
11/21/2014  08:30:00       55.765       52.876       15.574       29.421       30.439       36.122      865.584      926.506     1304.820        0.462        0.155       76.848       24.890        0.105      333.435        2.748      862.021
11/21/2014  08:31:00      101.430       79.396       48.586       44.258       31.921       33.369     1958.740     1018.925     1113.479        1.152        0.205      128.809       25.689        0.040      333.348        2.603      862.001
11/21/2014  08:32:00      109.637       62.872       37.971       29.785       22.421       35.063      887.140      502.707     1229.409        1.002        0.131      126.385        9.273        0.005      333.277        2.487      861.988
11/21/2014  08:33:00       95.301       71.127       37.278       22.030       13.266       23.252      485.302      175.990      540.660        0.837        0.060      118.917       12.651        0.011      333.232        2.412      861.983
11/21/2014  08:34:00       88.036       63.733       37.390       29.480       21.935       28.778      869.047      481.159      828.196        0.769        0.109      108.684       18.814        0.030      333.256        2.451      861.998
11/21/2014  08:35:00       72.995       60.711       22.280       31.273       25.863       25.155      978.020      668.916      632.765        0.589        0.114       94.942       21.676        0.052      333.380        2.658      862.001
11/21/2014  08:36:00       33.502       38.156        3.419       34.450       31.036       24.988     1186.784      963.204      624.424        0.268        0.139       50.777       13.658        0.072      333.443        2.762      861.996
11/21/2014  08:37:00       65.548       38.155       18.880       25.856       25.614       27.349      668.554      656.062      747.948        0.409        0.104       75.845        7.644        0.010      333.725        3.229      861.993
11/21/2014  08:38:00       59.238       61.933       28.809       27.791       29.131       36.809      772.364      848.589     1354.893        0.557        0.149       85.701       17.795        0.043      333.667        3.131      861.977
11/21/2014  08:39:00       30.636       45.133       52.929       29.819       22.757       21.973      889.144      517.869      482.828        0.383        0.094       54.549       21.330        0.153      333.578        2.985      861.960
11/21/2014  08:40:00       52.033       61.020       50.327       32.146       30.048       30.380     1033.392      902.856      922.920        0.591        0.143       80.192       21.505        0.072      333.622        3.056      861.941
11/21/2014  08:41:00       23.719       60.509       46.190       24.576       34.785       30.828      603.993     1210.016      950.358        0.456        0.138       64.992       14.390        0.049      333.676        3.147      861.912
11/21/2014  08:42:00       56.259       68.194       64.967       25.536       21.840       25.249      652.096      476.999      637.504        0.690        0.088       88.405       11.151        0.016      333.562        2.957      861.876
11/21/2014  08:43:00       19.262       58.414       61.531       24.823       26.644       13.624      616.160      709.917      185.608        0.454        0.076       61.508       12.184        0.039      333.695        3.179      861.849
11/21/2014  08:44:00       65.179       59.419        9.932       24.911       26.545       35.713      620.544      704.633     1275.435        0.524        0.130       88.198       18.476        0.044      333.589        3.002      861.838
11/21/2014  08:45:00       86.575       55.410       17.376       21.558       24.875       20.948      464.736      618.762      438.837        0.619        0.076      102.788        8.556        0.007      333.580        2.987      861.835
11/21/2014  08:46:00       56.558       46.740        6.990       23.908       30.709       24.408      571.612      943.069      595.744        0.377        0.106       73.372       15.152        0.043      333.786        3.330      861.839
11/21/2014  08:47:00       40.890       61.583        8.975       29.820       30.252       37.590      889.228      915.164     1413.031        0.438        0.161       73.922       22.313        0.091      333.939        3.583      861.846
11/21/2014  08:48:00      -31.628       36.308        7.919       31.164       20.411       27.334      971.202      416.608      747.138        0.226        0.107       48.152       24.240        0.253      333.893        3.507      861.857
11/21/2014  08:49:00       29.294       32.219        4.667       53.457       31.077       21.451     2857.693      965.797      460.136        0.310        0.214       43.546       17.620        0.164      333.958        3.615      861.861
11/21/2014  08:50:00       16.765       39.977        4.685       24.557       25.254       21.451      603.067      637.765      460.136        0.180        0.085       43.350       14.214        0.108      334.053        3.773      861.847
11/21/2014  08:51:00       22.607       58.032       -5.097       22.210       22.843       17.688      493.276      521.823      312.874        0.262        0.066       62.280       10.345        0.028      334.147        3.928      861.835
11/21/2014  08:52:00       15.892        7.691        9.294       15.703       27.344       21.570      246.575      747.674      465.274        0.093        0.073       17.655       14.888        0.711      334.383        4.321      861.829
11/21/2014  08:53:00        1.824       39.524       34.807       12.769       20.478       28.348      163.038      419.352      803.632        0.208        0.069       39.566       10.309        0.068      334.336        4.243      861.821
11/21/2014  08:54:00       -5.741       43.461       65.015       23.509       26.132       15.931      552.668      682.895      253.805        0.382        0.074       43.839       16.662        0.144      334.474        4.471      861.812
11/21/2014  08:55:00       -2.648       37.960       41.248       32.457       29.227       28.710     1053.466      854.246      824.276        0.294        0.137       38.053       13.657        0.129      334.602        4.684      861.796
11/21/2014  08:56:00       33.532       49.355        9.451       37.152       31.882       28.579     1380.300     1016.445      816.738        0.343        0.161       59.668       24.415        0.167      334.292        4.168      861.784
11/21/2014  08:57:00       62.979       50.777        6.156       28.959       28.275       25.232      838.627      799.463      636.642        0.443        0.114       80.899       20.845        0.066      334.114        3.873      861.774
11/21/2014  08:58:00        0.240       32.189       35.798       26.512       53.020       30.437      702.881     2811.169      926.384        0.338        0.222       32.190       32.957        1.048      334.594        4.669      861.777
11/21/2014  08:59:00       -1.834       76.280       84.775       27.421       47.184       40.683      751.886     2226.346     1655.139        0.882        0.232       76.302       29.372        0.148      334.351        4.265      861.771
11/21/2014  09:00:00       92.371       59.911       43.587       35.581       38.843       32.460     1266.012     1508.789     1053.680        0.892        0.191      110.099       32.221        0.086      333.994        3.675      861.775
11/21/2014  09:01:00       40.723       35.102       44.529       37.073       44.127       32.740     1374.425     1947.166     1071.924        0.463        0.220       53.764       32.393        0.363      334.274        4.139      861.768
11/21/2014  09:02:00       61.730       77.020       54.265       37.073       27.478       28.411     1374.408      755.040      807.201        0.781        0.147       98.705       17.222        0.030      334.140        3.915      861.765
11/21/2014  09:03:00       29.352       61.910       45.109       32.521       29.217       27.261     1057.636      853.634      743.149        0.469        0.133       68.516       17.329        0.064      334.311        4.200      861.772
11/21/2014  09:04:00       59.883       44.180       33.039       21.576       16.282       29.662      465.514      265.110      879.837        0.412        0.081       74.417       11.736        0.025      334.248        4.096      861.780
11/21/2014  09:05:00       19.325       31.494       29.272       18.544       20.433       19.003      343.889      417.489      361.119        0.167        0.056       36.950       11.924        0.104      334.465        4.456      861.784
11/21/2014  09:06:00       43.045       76.890       65.647       35.021       25.433       26.486     1226.438      646.863      701.503        0.732        0.129       88.118       17.684        0.040      334.331        4.234      861.780
11/21/2014  09:07:00       60.913       61.532       34.877       44.267       24.441       37.394     1959.592      597.350     1398.304        0.633        0.198       86.583       20.366        0.055      334.174        3.972      861.784
11/21/2014  09:08:00       71.167       40.216       18.143       22.570       20.170       23.597      509.399      406.845      556.815        0.424        0.074       81.744       17.264        0.045      334.084        3.824      861.791
11/21/2014  09:09:00       36.334       63.924       44.446       38.950       34.817       27.694     1517.129     1212.201      766.956        0.544        0.175       73.529       24.129        0.108      334.573        4.635      861.802
11/21/2014  09:10:00       81.101       50.316       34.340       52.014       33.462       51.351     2705.425     1119.676     2636.934        0.837        0.323       95.442       34.886        0.134      334.485        4.488      861.820
11/21/2014  09:11:00       37.637       27.565       57.636       44.438       60.208       36.355     1974.720     3624.954     1321.719        0.621        0.346       46.652       30.086        0.416      334.632        4.734      861.844
11/21/2014  09:12:00       61.517       -9.320       29.212       33.745       88.783       32.454     1138.704     7882.472     1053.242        0.740        0.504       62.219       34.404        0.306      334.278        4.146      861.860
11/21/2014  09:13:00       96.054       51.551       30.946       30.618       28.181       28.200      937.444      794.144      795.214        0.768        0.126      109.014       20.427        0.035      334.231        4.068      861.877
11/21/2014  09:14:00      103.153       55.123       24.857       47.551       29.826       28.198     2261.122      889.619      795.099        0.912        0.197      116.958       21.225        0.033      334.415        4.373      861.880
11/21/2014  09:15:00       12.191       61.870        8.486       31.998       44.995       29.707     1023.873     2024.573      882.510        0.399        0.197       63.059       31.108        0.243      334.714        4.869      861.886
11/21/2014  09:16:00       24.899       40.383        4.097       28.708       40.569       19.303      824.165     1645.860      372.595        0.255        0.142       47.442       13.290        0.078      334.776        4.971      861.893
11/21/2014  09:17:00        6.851       12.096       25.094       28.914       34.618       27.668      836.033     1198.387      765.541        0.181        0.140       13.902       18.544        1.779      334.992        5.331      861.895
11/21/2014  09:18:00       13.393       39.710       77.451       37.674       57.462       35.070     1419.300     3301.825     1229.906        0.685        0.298       41.908       37.980        0.821      334.861        5.113      861.892
11/21/2014  09:19:00       -1.493       18.648       55.210       28.878       31.929       26.525      833.934     1019.490      703.550        0.298        0.128       18.708       24.481        1.712      335.096        5.503      861.895
11/21/2014  09:20:00       -7.879       41.059       62.309       24.641       35.427       28.686      607.163     1255.053      822.885        0.416        0.134       41.808       22.431        0.288      335.006        5.354      861.901
11/21/2014  09:21:00       -9.148       43.676       77.097       24.317       34.984       20.261      591.306     1223.871      410.493        0.508        0.111       44.624       14.941        0.112      335.005        5.351      861.891
11/21/2014  09:22:00      -17.788       42.845       67.482       18.555       26.475       19.300      344.278      700.943      372.507        0.406        0.071       46.391       17.653        0.145      334.966        5.287      861.869
11/21/2014  09:23:00      -34.442        8.992       34.008       22.990       33.917       33.643      528.558     1150.333     1131.841        0.262        0.141       35.596       29.169        0.671      334.913        5.199      861.846
11/21/2014  09:24:00      -42.876       11.972       23.788       35.176       33.962       31.170     1237.378     1153.401      971.558        0.295        0.168       44.516       22.511        0.256      334.883        5.150      861.818
11/21/2014  09:25:00      -21.332        3.900        0.816       28.063       18.655       12.378      787.540      348.009      153.224        0.088        0.064       21.686       13.346        0.379      334.639        4.744      861.787
11/21/2014  09:26:00       -1.596       27.756       49.624       27.075       26.105       30.003      733.075      681.475      900.151        0.277        0.116       27.802       21.311        0.588      335.220        5.709      861.774
11/21/2014  09:27:00       13.340       32.671       67.077       31.517       24.768       27.941      993.335      613.452      780.723        0.407        0.119       35.290       18.264        0.268      335.036        5.403      861.764
11/21/2014  09:28:00       17.096      -42.821       23.720       29.748       53.089       27.359      884.918     2818.458      748.529        0.357        0.223       46.108       29.986        0.423      335.088        5.491      861.745
11/21/2014  09:29:00        9.257       47.094       50.972       22.127       24.389       26.547      489.607      594.809      704.718        0.335        0.089       47.995       16.710        0.121      335.219        5.709      861.722
11/21/2014  09:30:00       -9.525       24.480       51.347       17.222       33.452       23.285      296.606     1119.061      542.208        0.264        0.098       26.267       21.177        0.650      335.311        5.862      861.707
11/21/2014  09:31:00      -11.571       21.172       56.573       14.862       25.129       24.451      220.874      631.489      597.857        0.262        0.073       24.127       19.988        0.686      335.209        5.693      861.696
11/21/2014  09:32:00      -16.693      -32.264       24.635       23.470       50.504       32.503      550.842     2550.648     1056.431        0.304        0.208       36.327       32.096        0.781      335.243        5.747      861.690
11/21/2014  09:33:00       53.442       78.007       42.347       39.693       21.625       35.135     1575.524      467.635     1234.503        0.701        0.164       94.557       31.354        0.110      334.922        5.214      861.682
11/21/2014  09:34:00       39.093      -54.465        7.245       53.202       81.880       36.881     2830.443     6704.387     1360.183        0.772        0.545       67.043       42.866        0.409      335.000        5.344      861.681
11/21/2014  09:35:00      -14.098       25.425       57.257       16.008       25.495       18.874      256.256      649.972      356.246        0.269        0.063       29.072       18.521        0.406      335.452        6.095      861.687
11/21/2014  09:36:00       -6.939       -4.988       41.388       25.452       52.315       29.924      647.803     2736.839      895.463        0.303        0.214        8.546       33.082       14.985      335.526        6.218      861.707
11/21/2014  09:37:00       -1.837      -50.181       12.434       51.235       47.737       41.380     2625.057     2278.789     1712.337        0.464        0.331       50.214       37.061        0.545      335.257        5.770      861.716
11/21/2014  09:38:00       37.406        0.236       15.825       51.330       31.272       28.746     2634.780      977.907      826.308        0.304        0.222       37.407       27.472        0.539      335.190        5.660      861.733
11/21/2014  09:39:00       71.762     -128.737      -12.218       70.212       54.097       39.455     4929.755     2926.536     1556.692        1.564        0.471      147.387       34.479        0.055      334.764        4.950      861.737
11/21/2014  09:40:00       66.895      -20.359       16.962       57.036       61.423       47.273     3253.141     3772.754     2234.705        0.722        0.463       69.924       43.548        0.388      335.130        5.560      861.731
11/21/2014  09:41:00       25.797       34.541       78.997       31.657       97.640       48.666     1002.186     9533.567     2368.422        1.050        0.645       43.111       59.672        1.916      335.227        5.721      861.723
11/21/2014  09:42:00      102.536       84.283       60.963       49.081       51.712       48.958     2408.966     2674.085     2396.871        1.441        0.374      132.730       34.617        0.068      334.902        5.181      861.709
11/21/2014  09:43:00       24.385       36.856       49.821       53.966       51.234       32.654     2912.361     2624.950     1066.269        0.552        0.330       44.192       24.903        0.318      335.408        6.022      861.700
11/21/2014  09:44:00       21.353       10.191       61.522       35.343       87.286       54.307     1249.147     7618.812     2949.251        0.808        0.591       23.660       56.977        5.799      335.449        6.090      861.688
11/21/2014  09:45:00       55.913      -76.616       14.761       45.173       71.206       42.252     2040.585     5070.354     1785.229        0.905        0.445       94.849       37.414        0.156      335.317        5.870      861.669
11/21/2014  09:46:00      110.565     -120.346      -12.558       43.366       37.197       33.695     1880.593     1383.621     1135.343        1.563        0.220      163.425       26.024        0.025      334.929        5.226      861.657
11/21/2014  09:47:00       74.370       28.748       50.306       46.231       54.166       42.300     2137.333     2933.964     1789.262        0.787        0.343       79.733       36.884        0.214      335.180        5.644      861.642
11/21/2014  09:48:00       32.389      -46.034        7.333       30.662       37.076       34.256      940.156     1374.603     1173.443        0.335        0.174       56.287       22.264        0.156      335.161        5.611      861.642
11/21/2014  09:49:00       -1.923       37.740       58.313       28.060       44.484       40.367      787.356     1978.824     1629.522        0.461        0.220       37.789       25.100        0.441      335.481        6.143      861.633
11/21/2014  09:50:00       55.343       99.649       86.875       50.291       41.726       44.342     2529.215     1741.100     1966.171        1.339        0.312      113.985       38.442        0.114      334.877        5.140      861.629
11/21/2014  09:51:00       97.921       60.797       35.115       27.668       43.268       38.999      765.498     1872.135     1520.950        0.934        0.208      115.260       34.054        0.087      334.742        4.916      861.639
11/21/2014  09:52:00       22.225      -12.104        9.472       34.330       18.560       23.223     1178.556      344.484      539.295        0.140        0.103       25.307       17.082        0.456      335.120        5.542      861.639
11/21/2014  09:53:00       48.050       19.344       37.475       43.714       35.802       30.131     1910.904     1281.803      907.898        0.409        0.205       51.798       30.530        0.347      335.293        5.829      861.630
11/21/2014  09:54:00       39.844      -23.639        6.264       38.006       45.440       31.630     1444.471     2064.758     1000.447        0.335        0.225       46.329       31.276        0.456      335.220        5.711      861.628
11/21/2014  09:55:00       47.847       64.097       12.815       30.912       27.373       23.983      955.583      749.282      575.205        0.442        0.114       79.986       19.630        0.060      335.687        6.486      861.601
11/21/2014  09:56:00       20.591       11.218       11.751       28.291       24.874       14.720      800.364      618.705      216.673        0.116        0.082       23.449       13.813        0.347      335.910        6.858      861.596
11/21/2014  09:57:00       20.637       38.943       55.118       28.886       36.793       25.824      834.393     1353.756      666.857        0.392        0.143       44.073       17.747        0.162      335.640        6.409      861.585
11/21/2014  09:58:00        8.214       15.847       49.667       20.463       33.982       17.940      418.744     1154.809      321.856        0.234        0.095       17.849       15.184        0.724      335.848        6.755      861.569
11/21/2014  09:59:00       45.138       43.545        5.878       49.268       40.006       33.211     2427.371     1600.489     1102.991        0.455        0.257       62.718       18.727        0.089      335.521        6.211      861.554
11/21/2014  10:00:00        9.053        8.389       10.863       23.586       26.635       26.245      556.316      709.399      688.793        0.111        0.098       12.342       20.981        2.890      335.728        6.554      861.552
11/21/2014  10:01:00       -7.058       -2.806       16.586       15.057       27.485       17.530      226.711      755.399      307.301        0.081        0.064        7.595        8.153        1.152      335.949        6.924      861.549
11/21/2014  10:02:00       -8.375      -53.460       19.702       29.486       31.286       33.823      869.434      978.790     1143.964        0.315        0.150       54.112       15.728        0.084      335.858        6.772      861.559
11/21/2014  10:03:00      -10.004       17.461       24.854       25.333       27.875       19.198      641.770      777.015      368.562        0.140        0.089       20.124       16.817        0.698      335.946        6.920      861.575
11/21/2014  10:04:00      -63.775      -42.796      -10.377       35.834       37.001       19.343     1284.059     1369.107      374.139        0.452        0.151       76.803        9.406        0.015      335.255        5.769      861.590
11/21/2014  10:05:00       -7.420        2.984       14.413       28.502       22.415       19.446      812.353      502.422      378.158        0.098        0.085        7.998       21.867        7.476      335.664        6.449      861.602
11/21/2014  10:06:00       40.301       29.669       15.764       21.624       20.024       20.789      467.578      400.955      432.179        0.203        0.065       50.044        4.440        0.008      335.389        5.990      861.604
11/21/2014  10:07:00       -4.322       15.241       42.386       28.236       30.101       18.414      797.259      906.091      339.066        0.204        0.102       15.842       13.929        0.773      335.983        6.980      861.611
11/21/2014  10:08:00        7.703       25.881       33.727       26.369       30.384       35.540      695.317      923.205     1263.088        0.237        0.144       27.003       21.738        0.648      335.956        6.935      861.611
11/21/2014  10:09:00       78.496     -125.508        0.184       51.227       57.317       37.272     2624.253     3285.251     1389.201        1.460        0.365      148.034       40.879        0.076      335.498        6.171      861.619
11/21/2014  10:10:00        3.586       17.011       49.859       39.695       39.562       35.676     1575.707     1565.167     1272.794        0.360        0.221       17.385       35.188        4.097      336.196        7.337      861.619
11/21/2014  10:11:00       31.058      103.365       98.462       56.838       44.802       35.697     3230.592     2007.204     1274.293        1.393        0.326      107.930       33.306        0.095      335.605        6.351      861.623
11/21/2014  10:12:00       84.359       74.364       65.206       35.728       37.270       27.318     1276.471     1389.054      746.250        1.015        0.171      112.457       12.252        0.012      335.399        6.008      861.615
11/21/2014  10:13:00       11.517       22.184       14.897       32.624       41.687       21.754     1064.318     1737.815      473.241        0.206        0.164       24.996       26.453        1.120      335.648        6.422      861.612
11/21/2014  10:14:00      -47.031      -22.812        9.568       27.654       32.390       20.428      764.757     1049.091      417.306        0.253        0.112       52.271       15.564        0.089      335.684        6.482      861.579
11/21/2014  10:15:00      -29.873      -30.369        3.774       27.234       28.370       16.951      741.682      804.838      287.349        0.183        0.092       42.599       10.402        0.060      335.685        6.485      861.553
11/21/2014  10:16:00       34.273       13.491       16.291       34.313       54.190       29.042     1177.377     2936.503      843.414        0.329        0.248       36.833       25.893        0.494      335.879        6.806      861.524
11/21/2014  10:17:00       27.568       63.687       69.982       38.829       43.924       39.126     1507.665     1929.313     1530.870        0.734        0.248       69.397       31.890        0.211      335.833        6.730      861.498
11/21/2014  10:18:00       75.568      -17.479       53.858       70.953      104.088       78.274     5034.362    10834.236     6126.888        1.545        1.100       77.563       84.473        1.186      335.767        6.619      861.479
11/21/2014  10:19:00       31.164       11.399       49.443       56.662       56.739       36.116     3210.633     3219.329     1304.394        0.564        0.387       33.183       43.465        1.716      336.001        7.011      861.465
11/21/2014  10:20:00      -10.771       25.193       65.444       24.159       43.683       35.612      583.635     1908.194     1268.200        0.440        0.188       27.399       32.144        1.376      336.502        7.847      861.452
11/21/2014  10:21:00       13.049       11.100       85.772       47.141       77.451       47.740     2222.233     5998.683     2279.069        0.907        0.525       17.131       51.540        9.051      336.214        7.366      861.444
11/21/2014  10:22:00       34.763       53.708       85.966       52.080       60.823       52.150     2712.327     3699.385     2719.584        1.031        0.457       63.976       36.494        0.325      336.156        7.269      861.439
11/21/2014  10:23:00       14.748      129.636      140.638       38.696       67.823       40.168     1497.361     4599.968     1613.459        2.225        0.386      130.473       46.695        0.128      335.790        6.657      861.428
11/21/2014  10:24:00       44.644       54.330       69.888       51.168       70.218       37.388     2618.171     4930.547     1397.857        0.939        0.447       70.319       42.304        0.362      335.847        6.754      861.443
11/21/2014  10:25:00       52.809       47.631       70.928       54.996       61.526       52.545     3024.528     3785.444     2761.021        0.983        0.479       71.116       47.915        0.454      335.757        6.604      861.443
11/21/2014  10:26:00       27.806        7.244       34.062       36.203       33.537       38.128     1310.631     1124.763     1453.730        0.294        0.194       28.735       28.037        0.952      336.065        7.118      861.456
11/21/2014  10:27:00       43.220       41.100       62.151       33.396       27.159       25.345     1115.282      737.638      642.348        0.496        0.125       59.642       18.574        0.097      335.840        6.742      861.460
11/21/2014  10:28:00       38.173       77.921       23.579       35.534       36.940       27.545     1262.664     1364.584      758.727        0.573        0.169       86.769       21.161        0.059      335.702        6.511      861.460
11/21/2014  10:29:00      -10.714       39.419        1.193       19.328       23.507       25.744      373.554      552.583      662.752        0.163        0.079       40.849       15.331        0.141      335.743        6.581      861.466
11/21/2014  10:30:00       -3.885       56.183        5.870       19.551       26.524       25.104      382.224      703.549      630.232        0.246        0.086       56.317        8.409        0.022      335.890        6.825      861.463
11/21/2014  10:31:00       30.905       67.297       -8.048       23.554       26.641       21.169      554.789      709.739      448.113        0.363        0.086       74.054        8.095        0.012      335.691        6.493      861.456
11/21/2014  10:32:00        1.635       -6.353       20.574       26.676       49.230       27.223      711.634     2423.607      741.084        0.217        0.194        6.560       19.697        9.016      336.024        7.048      861.437
11/21/2014  10:33:00       34.977       42.587       21.767       36.501       70.663       33.623     1332.359     4993.194     1130.474        0.548        0.373       55.110       36.573        0.440      336.251        7.428      861.403
11/21/2014  10:34:00       33.840       81.059      -11.240       33.286       47.471       35.666     1107.972     2253.463     1272.076        0.624        0.232       87.839       30.601        0.121      336.448        7.757      861.390
11/21/2014  10:35:00       66.076       60.930       59.152       53.894       39.313       37.683     2904.522     1545.502     1420.009        0.872        0.294       89.880       32.593        0.131      336.006        7.019      861.370
11/21/2014  10:36:00       70.583      115.016       89.146       61.870       42.982       43.131     3827.855     1847.473     1860.291        1.685        0.377      134.947       29.742        0.049      335.768        6.621      861.346
11/21/2014  10:37:00      101.334       74.509       44.677       58.493       38.617       40.600     3421.446     1491.288     1648.344        1.219        0.328      125.778       36.894        0.086      335.853        6.764      861.329
11/21/2014  10:38:00       25.686       64.176       67.876       57.035       51.740       53.377     3253.048     2677.020     2849.135        0.908        0.439       69.126       47.591        0.474      336.316        7.534      861.322
11/21/2014  10:39:00       16.030       59.282       89.069       57.890       60.695       44.664     3351.207     3683.913     1994.883        1.037        0.452       61.411       43.400        0.499      336.302        7.513      861.292
11/21/2014  10:40:00      122.827      119.104       84.532       35.698       28.081       39.662     1274.346      788.557     1573.057        2.003        0.182      171.091       19.986        0.014      335.679        6.472      861.289
11/21/2014  10:41:00      122.865       44.994       25.035       60.364       60.332       53.868     3643.860     3639.954     2901.772        1.396        0.509      130.845       38.481        0.086      335.656        6.436      861.280
11/21/2014  10:42:00      135.336      108.759       41.976       62.687       40.066       48.614     3929.603     1605.323     2363.347        1.990        0.395      173.621       34.378        0.039      335.728        6.554      861.270
11/21/2014  10:43:00      123.498      116.149       38.002       66.614       29.125       42.986     4437.440      848.282     1847.768        1.866        0.357      169.536       41.968        0.061      335.711        6.526      861.264
11/21/2014  10:44:00      -24.587       19.277        6.897       25.500       28.599       19.977      650.251      817.880      399.067        0.145        0.093       31.243       14.534        0.216      336.057        7.104      861.244
11/21/2014  10:45:00       27.424       40.680       35.730       54.486       33.054       33.822     2968.767     1092.562     1143.932        0.444        0.260       49.060       36.058        0.540      336.337        7.572      861.214
11/21/2014  10:46:00       39.326       36.252        4.987       42.231       54.689       28.278     1783.449     2990.855      799.644        0.423        0.279       53.485       18.885        0.125      336.144        7.248      861.176
11/21/2014  10:47:00      -21.026       41.586       10.319       41.393       41.360       32.374     1713.341     1710.657     1048.070        0.337        0.224       46.599       27.339        0.344      336.204        7.348      861.174
11/21/2014  10:48:00       61.253       47.501       -3.789       30.855       22.174       28.228      952.011      491.683      796.812        0.413        0.112       77.513        7.180        0.009      335.959        6.941      861.174
11/21/2014  10:49:00       58.670       60.177       56.178       33.195       31.222       29.909     1101.929      974.782      894.537        0.659        0.149       84.044       19.160        0.052      336.239        7.407      861.176
11/21/2014  10:50:00       23.951      -86.022        7.890       68.784       83.839       49.470     4731.263     7028.911     2447.247        1.112        0.710       89.294       59.865        0.449      336.620        8.043      861.155
11/21/2014  10:51:00       30.018        5.562       62.324       50.485       58.398       49.403     2548.737     3410.366     2440.646        0.661        0.420       30.529       34.749        1.296      336.602        8.013      861.134
11/21/2014  10:52:00        3.801        0.184       46.516       26.965       58.214       26.818      727.131     3388.905      719.191        0.351        0.242        3.806       32.557       73.185      336.482        7.814      861.123
11/21/2014  10:53:00       48.891       60.968       64.837       63.541       45.278       34.199     4037.411     2050.081     1169.574        0.878        0.363       78.150       28.271        0.131      336.346        7.587      861.101
11/21/2014  10:54:00       31.971       77.711       99.383       49.238       52.618       31.658     2424.359     2768.604     1002.247        1.157        0.310       84.031       32.467        0.149      336.482        7.813      861.083
11/21/2014  10:55:00       49.944       42.851       50.924       41.422       46.738       46.756     1715.773     2184.474     2186.127        0.650        0.304       65.808       39.077        0.353      336.385        7.651      861.078
11/21/2014  10:56:00       56.520        8.911       48.706       39.094       50.253       38.752     1528.327     2525.325     1501.706        0.560        0.278       57.218       35.538        0.386      336.328        7.555      861.058
11/21/2014  10:57:00       40.594       26.115       33.186       33.873       39.157       32.660     1147.405     1533.261     1066.698        0.359        0.187       48.269       30.304        0.394      336.263        7.447      861.031
11/21/2014  10:58:00       56.362     -120.084       -4.590       50.561       66.953       45.196     2556.419     4482.716     2042.687        1.335        0.454      132.653       40.638        0.094      336.512        7.863      860.998
11/21/2014  10:59:00       62.635      -25.657       46.642       60.588      118.912       63.400     3670.890    14140.161     4019.504        1.429        1.092       67.686       79.692        1.386      336.474        7.800      860.973
11/21/2014  11:00:00       45.747       91.781      101.862       64.512       54.768       45.314     4161.810     2999.507     2053.391        1.505        0.461      102.551       40.119        0.153      336.347        7.589      860.964
11/21/2014  11:01:00      104.768       59.035       21.020       69.619       41.670       33.129     4846.804     1736.409     1097.509        1.129        0.384      120.256       13.481        0.013      336.150        7.258      860.960
11/21/2014  11:02:00       29.863       33.571       60.535       60.551       50.433       45.439     3666.450     2543.469     2064.727        0.698        0.414       44.931       23.847        0.282      336.792        8.331      860.947
11/21/2014  11:03:00        6.172       30.733       33.872       43.332       51.143       43.658     1877.642     2615.629     1906.009        0.426        0.320       31.346       15.413        0.242      336.855        8.438      860.941
11/21/2014  11:04:00       74.608       56.662       44.278       53.350       69.616       48.347     2846.243     4846.430     2337.419        1.038        0.502       93.686       41.165        0.193      336.704        8.184      860.930
11/21/2014  11:05:00        3.448        2.865       89.596       42.587      113.579       66.595     1813.672    12900.213     4434.894        1.359        0.957        4.483       83.472      346.682      336.712        8.198      860.934
11/21/2014  11:06:00       98.555     -133.378      -11.154       52.584       48.001       29.379     2765.111     2304.054      863.114        1.678        0.297      165.839       33.811        0.042      336.027        7.051      860.915
11/21/2014  11:07:00       85.341      -89.711        7.919       64.249       67.095       38.166     4127.880     4501.740     1456.617        1.274        0.504      123.819       34.796        0.079      336.611        8.028      860.905
11/21/2014  11:08:00       15.516       -8.869       14.992       39.408       56.698       32.503     1552.989     3214.705     1056.441        0.318        0.291       17.872       18.855        1.113      336.894        8.501      860.906
11/21/2014  11:09:00       57.229      -13.601       23.313       60.135       50.809       40.213     3616.246     2581.561     1617.118        0.591        0.391       58.823       19.640        0.111      336.663        8.116      860.901
11/21/2014  11:10:00       57.579      -28.030       53.729       69.614      112.224       67.256     4846.134    12594.296     4523.424        1.447        1.098       64.039       78.738        1.512      336.712        8.197      860.886
11/21/2014  11:11:00       58.643      -30.062       47.258       68.327       74.745       41.864     4668.570     5586.745     1752.625        0.929        0.600       65.899       41.964        0.405      336.748        8.257      860.885
11/21/2014  11:12:00       10.763       39.118       70.147       44.919       35.491       25.129     2017.704     1259.609      631.479        0.524        0.195       40.572       18.641        0.211      337.139        8.912      860.890
11/21/2014  11:13:00       57.949      -74.136       26.811       62.826       78.051       42.043     3947.072     6091.966     1767.636        1.069        0.590       94.097       53.688        0.326      336.732        8.231      860.906
11/21/2014  11:14:00       96.004       82.501       45.930       67.577       51.362       53.976     4566.610     2638.007     2913.402        1.412        0.506      126.583       41.890        0.110      336.495        7.833      860.908
11/21/2014  11:15:00       69.797       74.249       10.626       41.149       34.821       39.308     1693.239     1212.471     1545.137        0.747        0.223      101.905       26.596        0.068      336.356        7.603      860.900
11/21/2014  11:16:00       12.990       25.078       24.172       30.584       16.534       15.491      935.395      273.368      239.982        0.142        0.072       28.243        8.653        0.094      336.656        8.104      860.892
11/21/2014  11:17:00       68.455       47.765        8.590       63.897       32.573       34.766     4082.783     1061.000     1208.697        0.670        0.318       83.472       19.477        0.054      336.599        8.009      860.870
11/21/2014  11:18:00      138.108      103.609       21.515       43.693       38.241       36.634     1909.087     1462.346     1342.016        1.749        0.236      172.652       26.180        0.023      336.476        7.803      860.847
11/21/2014  11:19:00      149.424      123.204        8.657       53.873       31.809       39.738     2902.342     1011.793     1579.095        2.154        0.275      193.667       22.738        0.014      336.292        7.494      860.828
11/21/2014  11:20:00       94.543       72.139       55.596       68.353       54.697       41.019     4672.127     2991.780     1682.570        1.329        0.467      118.921       30.896        0.067      336.795        8.337      860.810
11/21/2014  11:21:00       88.203      101.199       74.263       67.168       53.233       59.972     4511.572     2833.721     3596.684        1.724        0.547      134.242       52.519        0.153      336.659        8.109      860.790
11/21/2014  11:22:00       16.616       87.830      104.429       43.288       48.229       46.849     1873.857     2326.005     2194.864        1.264        0.320       89.388       46.062        0.266      336.768        8.293      860.775
11/21/2014  11:23:00       37.311       84.464      111.437       60.868       67.107       48.530     3704.934     4503.315     2355.163        1.575        0.528       92.338       49.673        0.289      336.902        8.516      860.769
11/21/2014  11:24:00       55.026       94.779      100.241       92.501       58.778       41.544     8556.451     3454.849     1725.916        1.790        0.687      109.594       29.907        0.074      337.147        8.925      860.754
11/21/2014  11:25:00       21.799       86.278      100.125       56.459       68.035       62.176     3187.578     4628.829     3865.814        1.481        0.584       88.990       50.185        0.318      336.766        8.288      860.744
11/21/2014  11:26:00       50.462        0.459       66.984       74.599       98.874       61.842     5565.004     9776.013     3824.429        1.310        0.958       50.464       62.585        1.538      337.103        8.851      860.709
11/21/2014  11:27:00      103.625       36.340       77.446       86.731       90.457       60.908     7522.305     8182.456     3709.775        1.873        0.971      109.812       65.699        0.358      336.738        8.241      860.680
11/21/2014  11:28:00       39.924       29.436       50.860       33.815       46.335       40.660     1143.480     2146.916     1653.264        0.499        0.247       49.603       36.321        0.536      336.920        8.546      860.662
11/21/2014  11:29:00       84.727      114.209       91.328       97.079       62.715       58.373     9424.367     3933.128     3407.459        2.266        0.838      142.205       59.306        0.174      336.845        8.418      860.620
11/21/2014  11:30:00       27.450        6.605       57.726       41.240       47.357       39.967     1700.770     2242.691     1597.322        0.483        0.277       28.233       30.807        1.191      337.069        8.795      860.581
11/21/2014  11:31:00        1.491       78.408       89.943       36.761       43.983       36.787     1351.335     1934.528     1353.279        0.944        0.232       78.422       34.524        0.194      337.112        8.867      860.536
11/21/2014  11:32:00       69.620       44.280       23.175       73.630       34.634       47.640     5421.365     1199.486     2269.559        0.812        0.445       82.509       33.715        0.167      336.981        8.648      860.508
11/21/2014  11:33:00       47.366       12.309       27.766       49.640       60.772       42.241     2464.100     3693.185     1784.267        0.555        0.397       48.939       21.403        0.191      337.005        8.688      860.491
11/21/2014  11:34:00      107.506       69.634       60.707       87.939       75.656       60.843     7733.348     5723.836     3701.919        1.862        0.858      128.088       45.304        0.125      336.986        8.652      860.464
11/21/2014  11:35:00      130.540      113.959       95.468       74.978       67.168       57.847     5621.675     4511.562     3346.306        2.631        0.674      173.284       43.231        0.062      336.863        8.447      860.452
11/21/2014  11:36:00      125.307       86.455       93.864       90.071       73.935       58.583     8112.775     5466.321     3431.958        2.450        0.851      152.238       49.822        0.107      336.724        8.215      860.463
11/21/2014  11:37:00      121.671      103.418      105.990       86.658       79.673       66.727     7509.598     6347.717     4452.545        2.752        0.915      159.685       52.348        0.107      336.786        8.320      860.448
11/21/2014  11:38:00      -32.924      -18.848       45.577       49.871       58.111       39.998     2487.120     3376.880     1599.849        0.549        0.373       37.937       23.711        0.391      337.212        9.035      860.460
11/21/2014  11:39:00      102.204      -79.857       22.028       76.449       78.461       54.438     5844.473     6156.106     2963.483        1.613        0.748      129.703       59.739        0.212      337.036        8.739      860.474
11/21/2014  11:40:00       88.874      -43.297       13.229       55.860       65.922       54.936     3120.320     4345.736     3017.933        1.021        0.524       98.859       44.884        0.206      336.909        8.527      860.490
11/21/2014  11:41:00       26.925      -13.834       43.891       38.236       62.320       42.352     1462.029     3883.720     1793.708        0.499        0.357       30.271       39.153        1.673      336.947        8.591      860.485
11/21/2014  11:42:00       49.527       15.318       21.671       32.446       24.940       27.977     1052.730      621.980      782.697        0.281        0.123       51.842       17.564        0.115      337.021        8.713      860.479
11/21/2014  11:43:00       78.624      -58.261       27.898       72.002       69.204       37.785     5184.311     4789.252     1427.681        1.088        0.570       97.857       34.633        0.125      337.181        8.980      860.468
11/21/2014  11:44:00       23.174       11.318       55.811       49.569       37.287       29.046     2457.065     1390.291      843.663        0.423        0.235       25.790       25.609        0.986      337.471        9.468      860.459
11/21/2014  11:45:00        8.935       42.398       62.311       40.636       57.782       34.505     1651.292     3338.784     1190.621        0.597        0.309       43.329       36.254        0.700      337.635        9.743      860.424
11/21/2014  11:46:00       60.922      -57.897        9.072       33.379       54.405       25.578     1114.184     2959.929      654.214        0.594        0.236       84.044       26.450        0.099      337.167        8.957      860.412
11/21/2014  11:47:00       17.458       22.362       58.422       26.090       28.695       19.936      680.689      823.423      397.453        0.306        0.095       28.370       16.397        0.334      337.796       10.012      860.394
11/21/2014  11:48:00       15.122       37.025       63.705       37.087       40.492       28.679     1375.412     1639.630      822.484        0.475        0.192       39.995       23.850        0.356      337.780        9.985      860.366
11/21/2014  11:49:00       22.123       16.124       71.711       60.407       57.764       40.514     3649.062     3336.670     1641.362        0.726        0.431       27.375       27.399        1.002      337.862       10.123      860.334
11/21/2014  11:50:00       81.856      -53.662       39.442       64.004      107.324       65.203     4096.536    11518.463     4251.438        1.550        0.993       97.878       72.569        0.550      337.381        9.316      860.293
11/21/2014  11:51:00       78.092      -45.957       59.438       67.052       83.710       64.983     4495.939     7007.301     4222.820        1.373        0.786       90.612       68.200        0.567      337.004        8.687      860.277
11/21/2014  11:52:00       62.688       72.694       66.215       80.508       73.622       62.522     6481.526     5420.154     3908.967        1.470        0.791       95.991       56.599        0.348      337.155        8.938      860.250
11/21/2014  11:53:00      107.779      119.864       90.290       69.193       65.008       56.934     4787.696     4226.060     3241.521        2.319        0.613      161.194       34.519        0.046      336.949        8.591      860.228
11/21/2014  11:54:00       50.112      -16.502       28.944       50.577       52.456       34.634     2558.077     2751.683     1199.490        0.506        0.325       52.759       30.268        0.329      337.330        9.230      860.231
11/21/2014  11:55:00       62.018      -65.784       19.092       72.133       88.615       56.404     5203.183     7852.665     3181.421        1.238        0.812       90.409       60.540        0.448      337.211        9.031      860.238
11/21/2014  11:56:00       96.892     -125.903        3.188       74.846       55.746       36.508     5601.946     3107.624     1332.861        1.764        0.502      158.870       37.316        0.055      336.919        8.543      860.240
11/21/2014  11:57:00       18.789      -17.736       -6.066       44.635       79.463       35.714     1992.256     6314.318     1275.495        0.514        0.479       25.838       36.384        1.983      337.199        9.012      860.234
11/21/2014  11:58:00       20.359       34.818       60.023       51.663       47.118       33.595     2669.095     2220.105     1128.634        0.562        0.301       40.334       30.372        0.567      337.593        9.671      860.227
11/21/2014  11:59:00        9.442       98.751      112.535       48.393       73.266       52.077     2341.914     5367.849     2711.968        1.646        0.521       99.201       54.531        0.302      337.287        9.159      860.214
11/21/2014  12:00:00       92.381      117.994       83.721       69.967       59.216       60.362     4895.437     3506.530     3643.607        2.075        0.602      149.856       47.784        0.102      337.119        8.877      860.204
11/21/2014  12:01:00      118.673       74.133       64.850       69.474       64.165       56.010     4826.616     4117.103     3137.116        1.793        0.604      139.925       40.364        0.083      337.268        9.127      860.209
11/21/2014  12:02:00       52.987       43.029       69.483       56.673       51.907       38.707     3211.874     2694.308     1498.227        0.844        0.370       68.258       37.833        0.307      337.277        9.142      860.210
11/21/2014  12:03:00       75.259       92.814       58.562       56.904       67.637       45.894     3238.058     4574.783     2106.272        1.381        0.496      119.492       32.863        0.076      337.391        9.332      860.215
11/21/2014  12:04:00       80.806       42.568       49.352       75.331       80.234       56.913     5674.696     6437.542     3239.126        1.306        0.768       91.333       59.659        0.427      337.401        9.351      860.218
11/21/2014  12:05:00       49.420       31.385       23.783       54.906       43.928       40.773     3014.627     1929.693     1662.406        0.530        0.330       58.543       32.082        0.300      337.481        9.485      860.221
11/21/2014  12:06:00       38.673      -45.395       13.262       35.650       84.113       37.020     1270.919     7075.019     1370.474        0.672        0.486       59.635       37.224        0.390      337.542        9.586      860.216
11/21/2014  12:07:00       50.528       -0.548       34.265       39.653       38.972       33.475     1572.399     1518.795     1120.594        0.397        0.211       50.531       30.427        0.363      337.499        9.515      860.193
11/21/2014  12:08:00       87.631       71.672       53.112       69.063       42.502       42.738     4769.707     1806.403     1826.571        1.202        0.420      113.208       39.204        0.120      337.252        9.101      860.168
11/21/2014  12:09:00       62.304       74.160       76.772       54.781       40.569       37.627     3000.984     1645.804     1415.779        1.067        0.303       96.858       29.380        0.092      337.358        9.278      860.159
11/21/2014  12:10:00      190.879      113.076       40.066       59.627       49.216       55.135     3555.432     2422.217     3039.866        2.992        0.451      221.858       33.654        0.023      336.970        8.624      860.143
11/21/2014  12:11:00      130.902       34.477       27.912       42.219       52.403       46.792     1782.458     2746.070     2189.538        1.291        0.336      135.367       34.471        0.065      337.044        8.753      860.161
11/21/2014  12:12:00       77.726       29.045       29.495       54.602       42.145       45.446     2981.418     1776.223     2065.327        0.729        0.341       82.975       32.974        0.158      337.342        9.251      860.140
11/21/2014  12:13:00       44.655       56.705       13.247       63.397       58.399       43.277     4019.187     3410.456     1872.890        0.734        0.465       72.177       28.733        0.158      337.550        9.600      860.124
11/21/2014  12:14:00       57.244       62.717        1.337       25.774       32.457       30.279      664.305     1053.451      916.794        0.492        0.132       84.914       13.905        0.027      337.153        8.936      860.123
11/21/2014  12:15:00       35.264       33.672       82.045       66.957       75.512       48.854     4483.201     5702.036     2386.707        1.084        0.629       48.758       51.275        1.106      337.515        9.542      860.119
11/21/2014  12:16:00       80.735      -52.543       14.299       89.736       91.015       42.885     8052.509     8283.670     1839.122        1.383        0.909       96.327       57.006        0.350      337.447        9.426      860.098
11/21/2014  12:17:00       66.144     -112.022        2.186       57.891       83.307       51.974     3351.402     6940.035     2701.340        1.496        0.650      130.093       55.061        0.179      337.430        9.397      860.091
11/21/2014  12:18:00       33.501      -14.940        8.358       56.506       82.628       46.692     3192.968     6827.331     2180.188        0.681        0.610       36.682       41.770        1.297      337.623        9.722      860.086
11/21/2014  12:19:00      131.129       51.923       52.198       61.345       68.265       47.376     3763.184     4660.096     2244.497        1.664        0.533      141.035       46.538        0.109      337.390        9.331      860.085
11/21/2014  12:20:00       70.819      101.749      105.277       60.463       59.705       42.581     3655.833     3564.745     1813.184        1.774        0.452      123.969       37.838        0.093      337.408        9.360      860.065
11/21/2014  12:21:00       58.148       65.200       70.584       79.965       53.699       55.777     6394.332     2883.633     3111.118        1.250        0.619       87.363       53.077        0.369      337.518        9.546      860.047
11/21/2014  12:22:00      145.979       58.812       42.124       98.422       72.397       61.791     9686.974     5241.295     3818.142        2.264        0.937      157.381       52.695        0.112      337.295        9.171      860.029
11/21/2014  12:23:00       47.664       88.984       76.712       52.135       41.703       45.452     2718.015     1739.126     2065.841        1.130        0.326      100.946       37.258        0.136      337.718        9.881      860.021
11/21/2014  12:24:00       34.016      121.872      123.878       56.963       66.527       51.918     3244.839     4425.882     2695.473        2.086        0.518      126.530       49.144        0.151      337.695        9.841      860.031
11/21/2014  12:25:00       18.008       -1.159       37.327       39.702       46.365       41.776     1576.227     2149.674     1745.224        0.359        0.274       18.045       33.656        3.479      337.663        9.789      860.026
11/21/2014  12:26:00       66.421       23.984       39.207       79.396       61.109       60.793     6303.760     3734.275     3695.729        1.013        0.687       70.619       59.454        0.709      337.754        9.942      860.015
11/21/2014  12:27:00       43.258       57.493       12.322       45.376       39.357       31.597     2059.026     1548.940      998.352        0.497        0.230       71.949       24.453        0.116      337.732        9.904      860.007
11/21/2014  12:28:00       55.278       71.547       41.570       39.712       35.020       46.732     1577.072     1226.379     2183.862        0.744        0.249       90.413       30.514        0.114      337.864       10.126      859.988
11/21/2014  12:29:00       54.096      113.566      116.415       78.463       54.134       44.962     6156.469     2930.489     2021.562        2.024        0.555      125.792       35.760        0.081      338.000       10.353      859.960
11/21/2014  12:30:00      107.597      155.793      141.368       88.219       69.502       67.970     7782.660     4830.595     4619.864        3.653        0.862      189.337       53.144        0.079      337.453        9.433      859.958
11/21/2014  12:31:00      150.738       82.297       65.323       83.485       84.132       60.690     6969.819     7078.117     3683.266        2.574        0.887      171.741       41.860        0.059      337.537        9.575      859.969
11/21/2014  12:32:00        8.254       60.300       79.807       41.168       45.284       35.303     1694.815     2050.639     1246.278        0.753        0.250       60.862       31.638        0.270      338.155       10.614      859.973
11/21/2014  12:33:00       55.899       73.330       62.623       65.948       43.537       36.231     4349.202     1895.481     1312.683        0.999        0.378       92.206       34.045        0.136      338.026       10.398      859.991
11/21/2014  12:34:00       46.275      -77.475       15.465       81.775       74.624       52.817     6687.129     5568.782     2789.615        1.171        0.752       90.243       56.207        0.388      338.057       10.450      860.019
11/21/2014  12:35:00       61.836     -101.095        5.183       65.088       73.329       34.242     4236.445     5377.196     1172.535        1.243        0.539      118.507       43.399        0.134      337.867       10.130      860.041
11/21/2014  12:36:00       48.148      -58.875       32.901       45.794       68.781       51.246     2097.067     4730.821     2626.162        0.816        0.473       76.055       38.694        0.259      338.008       10.368      860.050
11/21/2014  12:37:00       39.626       -8.608        6.864       49.156       45.868       34.330     2416.332     2103.864     1178.563        0.369        0.285       40.550       25.961        0.410      338.229       10.738      860.041
11/21/2014  12:38:00       63.507       25.238       24.996       76.635       66.080       42.509     5872.855     4366.581     1807.040        0.867        0.602       68.338       30.198        0.195      338.205       10.698      860.031
11/21/2014  12:39:00       62.276       62.911       66.786       62.966       57.901       37.622     3964.691     3352.540     1415.411        1.051        0.437       88.521       31.484        0.126      338.188       10.670      860.040
11/21/2014  12:40:00       11.855      -18.988       35.660       28.970       34.678       28.147      839.288     1202.577      792.252        0.230        0.142       22.385       24.319        1.180      338.543       11.266      860.057
11/21/2014  12:41:00       19.060      -29.273       -0.219       42.911       51.340       29.706     1841.377     2635.773      882.418        0.329        0.268       34.931       16.355        0.219      338.100       10.522      860.047
11/21/2014  12:42:00        1.195      -74.542      -17.806       29.799       62.812       28.307      887.988     3945.296      801.304        0.575        0.282       74.552       17.632        0.056      337.849       10.100      860.044
11/21/2014  12:43:00       27.927       20.813       23.063       19.764       19.639       24.507      390.598      385.700      600.604        0.156        0.069       34.829       15.105        0.188      338.197       10.685      860.057
11/21/2014  12:44:00      115.846       77.951       43.372      130.490       61.526       38.066    17027.554     3785.478     1449.040        2.182        1.113      139.630       35.748        0.066      338.116       10.548      860.034
11/21/2014  12:45:00      165.804      103.502       91.125       88.589       80.426       72.347     7847.979     6468.386     5234.052        3.303        0.978      195.458       63.312        0.105      337.794       10.006      860.007
11/21/2014  12:46:00      114.914       66.242       45.577       86.227       53.689       51.058     7435.164     2882.524     2606.931        1.629        0.646      132.639       48.376        0.133      337.801       10.020      859.995
11/21/2014  12:47:00       86.720       96.434       51.931       94.393       51.796       46.815     8910.051     2682.796     2191.664        1.665        0.689      129.692       54.816        0.179      337.925       10.227      859.969
11/21/2014  12:48:00      127.112       86.878       20.952       48.172       53.665       44.602     2320.513     2879.940     1989.367        1.567        0.359      153.965       33.588        0.048      337.731        9.904      859.953
11/21/2014  12:49:00       44.401      126.987      133.361       73.352       77.574       68.487     5380.575     6017.654     4690.451        2.598        0.804      134.525       60.526        0.202      338.244       10.764      859.909
11/21/2014  12:50:00      127.939      123.245      108.453       83.565       80.499       65.006     6983.065     6480.100     4225.763        3.050        0.884      177.645       63.385        0.127      337.910       10.200      859.894
11/21/2014  12:51:00      136.159       87.699       81.609       97.338       78.722       65.289     9474.608     6197.118     4262.712        2.641        0.997      161.958       58.140        0.129      338.071       10.471      859.875
11/21/2014  12:52:00      135.976       94.438       51.540      101.912       74.153       55.723    10386.053     5498.632     3105.103        2.452        0.949      165.553       49.202        0.088      338.066       10.463      859.840
11/21/2014  12:53:00       68.946       64.172       89.430       88.853       63.355       52.493     7894.899     4013.870     2755.511        1.576        0.733       94.189       51.270        0.296      338.333       10.912      859.848
11/21/2014  12:54:00      119.106       62.573       61.641       95.153       85.538       57.549     9054.169     7316.803     3311.901        2.079        0.984      134.543       64.934        0.233      338.096       10.513      859.854
11/21/2014  12:55:00       96.418       81.012       83.633       71.786       71.370       56.892     5153.182     5093.668     3236.649        1.817        0.674      125.934       52.915        0.177      338.161       10.624      859.865
11/21/2014  12:56:00      171.051       93.312       47.446       87.346       58.125       49.871     7629.243     3378.492     2487.114        2.685        0.675      194.847       31.818        0.027      338.011       10.368      859.830
11/21/2014  12:57:00      139.569       58.439       27.737       70.649       66.724       49.031     4991.336     4452.043     2404.040        1.775        0.592      151.310       31.298        0.043      338.290       10.839      859.813
11/21/2014  12:58:00       63.948        7.504       26.616       50.365       49.854       40.076     2536.602     2485.380     1606.063        0.574        0.331       64.387       28.748        0.199      338.601       11.364      859.833
11/21/2014  12:59:00      119.800      130.643       87.896       72.421       51.070       68.599     5244.766     2608.165     4705.835        2.585        0.628      177.256       45.081        0.065      338.335       10.914      859.826
11/21/2014  13:00:00       81.161      106.301      106.833       76.887       70.304       62.894     5911.586     4942.654     3955.674        2.205        0.740      133.743       51.481        0.148      338.456       11.117      859.807
11/21/2014  13:01:00      117.129       90.886       78.588      111.720       75.346       68.947    12481.454     5677.089     4753.705        2.553        1.146      148.255       69.925        0.222      338.567       11.306      859.781
11/21/2014  13:02:00      130.206       96.998       74.403       91.739       69.027       67.376     8415.997     4764.762     4539.498        2.481        0.886      162.365       55.569        0.117      338.601       11.361      859.780
11/21/2014  13:03:00      183.448      142.826       92.577      106.255       64.857       76.307    11290.152     4206.388     5822.750        4.197        1.066      232.492       71.508        0.095      338.234       10.744      859.800
11/21/2014  13:04:00      199.616       91.990       40.209      104.866       79.334       69.833    10996.808     6293.913     4876.602        3.604        1.108      219.793       52.914        0.058      338.219       10.718      859.812
11/21/2014  13:05:00      107.263       33.673       29.846       76.185       58.104       48.785     5804.206     3376.054     2379.986        1.254        0.578      112.424       31.312        0.078      338.296       10.850      859.846
11/21/2014  13:06:00       70.310       22.586       19.092       46.191       38.860       32.569     2133.616     1510.111     1060.733        0.526        0.235       73.849       25.105        0.116      338.346       10.934      859.884
11/21/2014  13:07:00       52.241       50.975       -3.289       33.119       25.153       28.641     1096.871      632.668      820.332        0.394        0.127       72.991       12.037        0.027      338.265       10.800      859.924
11/21/2014  13:08:00       37.659       39.338      -14.869       28.335       22.582       21.181      802.861      509.950      448.636        0.247        0.088       54.458       13.962        0.066      338.245       10.765      859.946
11/21/2014  13:09:00        8.841      100.960      -22.721       18.972       42.512       16.593      359.949     1807.308      275.317        0.661        0.122      101.347       14.288        0.020      338.141       10.590      859.969
11/21/2014  13:10:00       10.030       80.978      -11.467       29.429       32.161       17.499      866.084     1034.317      306.213        0.450        0.110       81.596       16.314        0.040      338.287       10.836      859.981
11/21/2014  13:11:00       13.959       81.030       -6.117       36.908       34.027       21.086     1362.172     1157.825      444.631        0.488        0.148       82.223       24.515        0.089      338.171       10.642      859.975
11/21/2014  13:12:00       21.660      -24.377       -1.812       37.474       58.151       23.166     1404.277     3381.549      536.658        0.319        0.266       32.609       17.828        0.299      338.333       10.913      859.963
11/21/2014  13:13:00      -11.831      -30.408        6.490       19.841       21.566       22.683      393.661      465.072      514.541        0.124        0.069       32.629       14.224        0.190      338.644       11.435      859.975
11/21/2014  13:14:00        2.756      -16.292       10.651       16.551       27.960       19.782      273.922      781.745      391.327        0.092        0.072       16.524       20.212        1.496      338.871       11.817      859.996
11/21/2014  13:15:00       -6.553       -0.825       21.043       13.444       21.491       11.353      180.734      461.856      128.900        0.063        0.039        6.605       11.609        3.089      338.999       12.032      860.007
11/21/2014  13:16:00       26.677       27.512       13.974       24.747       22.693       20.897      612.415      514.973      436.672        0.161        0.078       38.322       12.923        0.114      338.516       11.220      859.988
11/21/2014  13:17:00      -16.617       45.909       -8.632       26.567       25.479       18.200      705.796      649.204      331.241        0.207        0.084       48.824       14.103        0.083      338.689       11.512      859.989
11/21/2014  13:18:00      -53.192       53.523        0.018       46.970       63.436       40.765     2206.168     4024.161     1661.819        0.679        0.395       75.459       42.516        0.317      338.795       11.688      859.960
11/21/2014  13:19:00     -190.650       12.559      -22.089       59.693       75.290       42.600     3563.223     5668.582     1814.782        2.402        0.552      191.063       30.486        0.025      338.965       11.973      859.932
11/21/2014  13:20:00     -282.242        3.647      -24.481      162.026      108.622       55.617    26252.321    11798.802     3093.268        6.070        2.057      282.266       67.597        0.057      339.055       12.124      859.884
11/21/2014  13:21:00     -364.402     -129.329      -12.181      134.628      101.761       57.006    18124.611    10355.215     3249.663        9.069        1.586      386.671       65.081        0.028      339.103       12.204      859.856
11/21/2014  13:22:00     -136.372      -55.612       23.160      135.936       71.767       56.288    18478.690     5150.567     3168.373        2.451        1.340      147.275       54.092        0.135      339.304       12.544      859.903
11/21/2014  13:23:00     -220.551     -103.350        6.965      140.406       94.903       68.278    19713.982     9006.607     4661.892        4.637        1.669      243.565       78.061        0.103      339.010       12.048      859.931
11/21/2014  13:24:00     -149.622        0.568       -2.846       77.399       73.911       38.028     5990.601     5462.768     1446.130        1.764        0.645      149.623       39.042        0.068      339.251       12.455      859.925
11/21/2014  13:25:00     -188.164      -45.542       -5.636       88.998      101.900       48.229     7920.629    10383.668     2326.073        2.907        1.032      193.597       45.522        0.055      339.280       12.502      859.911
11/21/2014  13:26:00     -119.687      -66.802        3.683      105.858       89.399       42.143    11205.943     7992.244     1776.071        1.988        1.049      137.068       48.053        0.123      339.230       12.419      859.896
11/21/2014  13:27:00     -168.899      -65.516      -11.373       84.259       94.386       49.381     7099.575     8908.742     2438.507        2.569        0.922      181.161       38.609        0.045      339.269       12.485      859.881
11/21/2014  13:28:00     -203.391      -21.051       -5.615      160.602      101.637       67.846    25793.051    10330.120     4603.128        4.128        2.036      204.478       75.033        0.135      339.127       12.245      859.857
11/21/2014  13:29:00     -352.869     -112.881      -12.194      186.405      102.177       65.379    34746.760    10440.056     4274.406        9.342        2.473      370.484       83.605        0.051      339.039       12.097      859.843
11/21/2014  13:30:00     -302.293      -64.027      -11.917       93.790       65.484       46.019     8796.642     4288.104     2117.749        5.541        0.760      309.000       39.488        0.016      339.079       12.164      859.821
11/21/2014  13:31:00     -173.438       -4.901        0.990      110.001      110.790       46.390    12100.152    12274.407     2152.047        2.831        1.326      173.508       44.338        0.065      339.409       12.720      859.817
11/21/2014  13:32:00     -310.236     -216.813       -2.060      181.157      115.778       79.652    32817.968    13404.530     6344.369        9.790        2.628      378.490       94.564        0.062      339.080       12.165      859.792
11/21/2014  13:33:00     -193.635     -143.267        2.896      103.300      100.467       63.847    10670.942    10093.534     4076.434        4.143        1.242      240.873       58.427        0.059      339.009       12.046      859.766
11/21/2014  13:34:00     -243.000      -36.609      -29.400       80.243       89.556       50.239     6438.870     8020.293     2523.953        3.912        0.849      245.743       24.741        0.010      339.253       12.457      859.761
11/21/2014  13:35:00     -371.786     -153.355      -11.539      148.712      130.959       62.871    22115.319    17150.296     3952.806       10.254        2.161      402.173       68.503        0.029      339.058       12.127      859.738
11/21/2014  13:36:00     -309.449      -13.076      -16.941      112.182      102.775       63.228    12584.736    10562.725     3997.828        6.168        1.357      309.726       63.770        0.042      339.174       12.323      859.722
11/21/2014  13:37:00     -328.000      -81.180      -13.588      171.521       91.294       62.367    29419.390     8334.543     3889.622        7.799        2.082      337.897       54.449        0.026      339.254       12.458      859.707
11/21/2014  13:38:00     -393.037     -112.770      -11.625      136.944      105.520       55.357    18753.560    11134.537     3064.407       10.013        1.648      408.895       60.369        0.022      339.050       12.116      859.706
11/21/2014  13:39:00     -182.495      -33.585        4.899       96.666       76.719       54.684     9344.243     5885.816     2990.374        2.633        0.911      185.560       53.759        0.084      339.174       12.325      859.706
11/21/2014  13:40:00     -217.031      -88.025        8.769      129.265      101.791       58.542    16709.412    10361.323     3427.202        4.271        1.525      234.202       53.522        0.052      339.162       12.304      859.687
11/21/2014  13:41:00     -288.912     -207.169       -2.420      117.039      117.629       70.014    13698.077    13836.520     4901.891        7.941        1.622      355.512       70.096        0.039      338.973       11.986      859.668
11/21/2014  13:42:00     -104.600     -137.179       19.765      128.462      159.816       70.023    16502.502    25541.162     4903.258        3.854        2.347      172.508       73.733        0.183      339.083       12.171      859.644
11/21/2014  13:43:00     -225.707     -159.391      -16.966      137.713       68.866       49.571    18964.845     4742.527     2457.289        5.140        1.308      276.313       60.745        0.048      339.108       12.212      859.612
11/21/2014  13:44:00     -227.516     -103.787       -6.365      126.189       60.681       47.021    15923.761     3682.170     2210.951        4.219        1.091      250.070       57.669        0.053      339.157       12.295      859.638
11/21/2014  13:45:00     -182.501      -89.118       -0.742      117.497       81.439       53.945    13805.577     6632.373     2910.105        3.229        1.167      203.098       50.557        0.062      339.247       12.446      859.638
11/21/2014  13:46:00     -195.975     -118.305        0.285      148.601       93.559       56.669    22082.114     8753.233     3211.426        4.322        1.702      228.915       66.812        0.085      339.243       12.440      859.627
11/21/2014  13:47:00     -272.866     -186.320       -8.883      139.785      143.358       62.837    19539.928    20551.389     3948.484        7.664        2.202      330.410       70.799        0.046      339.210       12.384      859.626
11/21/2014  13:48:00     -196.354     -162.723        3.472      127.540      118.377       57.229    16266.514    14013.036     3275.104        4.929        1.678      255.017       72.317        0.080      339.108       12.214      859.627
11/21/2014  13:49:00     -309.931      -42.347       -0.455      162.809      102.287       60.593    26506.736    10462.545     3671.546        6.924        2.032      312.810       78.151        0.062      339.270       12.485      859.610
11/21/2014  13:50:00     -267.025     -127.879       -2.226      143.519      102.556       53.882    20597.822    10517.649     2903.245        6.083        1.701      296.067       60.074        0.041      339.391       12.689      859.622
11/21/2014  13:51:00     -337.694     -161.671      -13.465      185.550      118.752       70.084    34428.988    14101.958     4911.784        9.689        2.672      374.399       80.198        0.046      339.256       12.461      859.630
11/21/2014  13:52:00     -331.690      -63.371      -19.395      135.576      136.248       71.535    18380.984    18563.650     5117.316        7.823        2.103      337.689       57.302        0.029      339.311       12.554      859.637
11/21/2014  13:53:00     -328.410      -92.902      -14.856      179.559      170.582       88.289    32241.486    29098.105     7794.938        9.291        3.457      341.298      107.282        0.099      339.322       12.573      859.629
11/21/2014  13:54:00     -309.546      -17.525      -12.396      125.697      107.822       69.186    15799.856    11625.525     4786.760        6.424        1.611      310.042       69.623        0.050      339.519       12.904      859.637
11/21/2014  13:55:00     -309.215      -71.643      -19.939      124.169      124.632       50.460    15418.057    15533.059     2546.178        6.731        1.675      317.406       61.625        0.038      339.417       12.733      859.663
11/21/2014  13:56:00     -164.442      -48.846        9.699      131.440       99.948       57.364    17276.465     9989.619     3290.601        3.003        1.528      171.543       70.461        0.169      339.591       13.026      859.674
11/21/2014  13:57:00      -90.882      -99.819        5.137       97.919      105.764       59.743     9588.054    11186.119     3569.277        2.129        1.217      134.994       62.940        0.217      339.643       13.116      859.642
11/21/2014  13:58:00     -171.247      -28.963       -1.074       68.100       94.422       39.597     4637.633     8915.470     1567.924        2.264        0.756      173.679       30.288        0.030      339.513       12.896      859.604
11/21/2014  13:59:00     -179.236      -93.385       -1.775       94.271       81.703       38.458     8887.095     6675.416     1479.024        2.894        0.852      202.104       39.788        0.039      339.539       12.938      859.570
11/21/2014  14:00:00     -132.243      -51.321       16.068      123.012       92.153       61.019    15131.936     8492.149     3723.298        2.386        1.367      141.852       62.463        0.194      339.708       13.224      859.559
11/21/2014  14:01:00     -334.615     -201.412      -19.653      163.903      103.869       67.478    26864.069    10788.760     4553.290        9.755        2.110      390.556       61.399        0.025      339.340       12.604      859.585
11/21/2014  14:02:00     -230.234      -79.016       -6.988      162.040      102.348       58.464    26257.119    10475.101     3418.014        4.972        2.008      243.416       64.583        0.070      339.309       12.551      859.605
11/21/2014  14:03:00     -318.002      -23.711      -10.370      142.010      106.508       69.406    20166.803    11343.990     4817.203        6.905        1.816      318.884       77.667        0.059      339.335       12.595      859.612
11/21/2014  14:04:00     -282.439       -6.097       -7.313      187.701      119.651       73.477    35231.672    14316.291     5398.840        6.739        2.747      282.505       89.748        0.101      339.375       12.663      859.633
11/21/2014  14:05:00     -159.156      -68.246        4.497      118.730       98.936       54.578    14096.756     9788.263     2978.751        2.843        1.343      173.171       47.057        0.074      339.385       12.679      859.637
11/21/2014  14:06:00     -345.733     -248.738      -14.285      193.584      151.813       89.686    37474.910    23047.065     8043.630       12.507        3.428      425.913      101.398        0.057      339.223       12.407      859.650
11/21/2014  14:07:00     -350.698     -137.955      -10.203      169.430      146.003       78.847    28706.505    21316.981     6216.926        9.917        2.812      376.856       80.325        0.045      339.210       12.383      859.679
11/21/2014  14:08:00     -298.108     -112.288      -15.104      196.746      152.044       80.187    38708.873    23117.232     6429.986        8.497        3.413      318.555       99.787        0.098      339.222       12.404      859.695
11/21/2014  14:09:00     -214.316      -85.322      -10.115      113.050       95.618       44.619    12780.263     9142.794     1990.817        3.861        1.196      230.676       38.432        0.028      339.183       12.337      859.697
11/21/2014  14:10:00     -191.064      -62.291       -5.396      110.390       88.920       39.872    12186.011     7906.690     1589.787        3.104        1.084      200.962       41.520        0.043      339.325       12.578      859.698
11/21/2014  14:11:00     -186.253      -74.558       -8.357       89.615       79.369       43.880     8030.831     6299.417     1925.429        2.828        0.813      200.622       42.375        0.045      339.269       12.484      859.674
11/21/2014  14:12:00     -147.249      -32.826       -6.594      119.503       66.921       43.980    14280.945     4478.477     1934.279        2.174        1.035      150.863       55.525        0.135      339.237       12.431      859.664
11/21/2014  14:13:00     -131.462       48.059       -3.607       95.849       60.456       48.393     9187.104     3654.920     2341.846        1.739        0.759      139.971       51.229        0.134      339.562       12.980      859.666
11/21/2014  14:14:00     -241.956      -37.651       -1.378      104.726       99.417       49.131    10967.486     9883.703     2413.862        4.161        1.163      244.868       52.877        0.047      339.427       12.749      859.665
11/21/2014  14:15:00     -136.706      -70.977       -6.600       98.525       61.879       36.576     9707.143     3829.052     1337.838        1.932        0.744      154.034       33.709        0.048      339.305       12.544      859.682
11/21/2014  14:16:00      -79.962      -80.232       13.027       92.206       89.096       54.385     8501.943     7938.117     2957.768        1.620        0.970      113.274       52.681        0.216      339.288       12.517      859.680
11/21/2014  14:17:00     -359.969      -84.199      -36.774      153.952      119.510       69.070    23701.372    14282.749     4770.635        9.038        2.138      369.685       76.541        0.043      339.204       12.373      859.681
11/21/2014  14:18:00     -289.222      -28.338      -28.877      135.933      104.638       55.918    18477.748    10949.141     3126.829        5.891        1.628      290.607       67.914        0.055      339.313       12.559      859.675
11/21/2014  14:19:00     -247.857     -141.042        1.662      143.277       92.286       53.470    20528.212     8516.738     2859.022        5.661        1.595      285.177       52.819        0.034      339.225       12.409      859.637
11/21/2014  14:20:00     -270.959     -284.529       -1.024      222.236      145.156       92.964    49388.831    21070.121     8642.260       11.672        3.955      392.906      100.285        0.065      339.109       12.214      859.609
11/21/2014  14:21:00     -175.680     -144.121       20.950      166.373      123.215       74.208    27680.065    15181.866     5506.868        5.021        2.418      227.232       83.024        0.133      339.156       12.294      859.605
11/21/2014  14:22:00     -118.431      -71.838        7.809      142.143       97.437       61.561    20204.742     9493.896     3789.762        2.636        1.674      138.516       67.005        0.234      339.172       12.322      859.595
11/21/2014  14:23:00     -175.612      -33.859       -1.867       95.632       85.085       57.127     9145.469     7239.489     3263.514        2.582        0.982      178.847       53.615        0.090      339.405       12.713      859.604
11/21/2014  14:24:00     -289.835     -206.210      -34.453      135.474      121.961       75.914    18353.232    14874.540     5762.892        8.334        1.950      355.706       86.275        0.059      339.094       12.189      859.600
11/21/2014  14:25:00     -204.948      -89.062      -12.992      135.250       89.445       49.711    18292.493     8000.405     2471.195        3.943        1.438      223.464       51.897        0.054      339.158       12.296      859.618
11/21/2014  14:26:00     -342.847     -246.133       -2.354      156.689      121.583       79.074    24551.369    14782.431     6252.663       11.185        2.279      422.049       80.428        0.036      339.067       12.144      859.630
11/21/2014  14:27:00     -385.863      -70.358      -38.302      164.472      116.549       68.816    27050.911    13583.721     4735.680       10.033        2.269      392.225       71.881        0.034      339.140       12.266      859.634
11/21/2014  14:28:00     -464.871      -71.290      -20.827      165.875      121.857       72.789    27514.627    14849.232     5298.270       13.463        2.383      470.306       71.254        0.023      339.041       12.100      859.627
11/21/2014  14:29:00     -396.914      -84.435      -11.739      158.294      127.189       72.986    25056.985    16176.965     5326.898       10.567        2.328      405.795       84.958        0.044      339.050       12.114      859.636
11/21/2014  14:30:00     -223.684     -127.130      -10.430       71.076       66.149       40.468     5051.854     4375.640     1637.680        3.868        0.553      257.287       30.505        0.014      339.035       12.089      859.608
11/21/2014  14:31:00     -213.368     -115.229      -21.776      128.706       90.088       57.083    16565.353     8115.826     3258.448        4.360        1.397      242.494       52.334        0.047      339.070       12.150      859.616
11/21/2014  14:32:00     -306.053      -88.637      -33.872      164.804       79.384       56.572    27160.418     6301.811     3200.399        6.966        1.833      318.630       64.571        0.041      339.092       12.187      859.592
11/21/2014  14:33:00     -256.426      -63.198      -15.070       98.020      104.166       54.380     9607.908    10850.618     2957.229        4.669        1.171      264.098       41.558        0.025      339.172       12.320      859.588
11/21/2014  14:34:00     -178.818     -128.440       -7.785       87.534      113.066       54.096     7662.121    12784.011     2926.409        3.595        1.169      220.166       52.855        0.058      339.066       12.141      859.582
11/21/2014  14:35:00     -178.393     -110.481        4.317       93.455       67.232       47.086     8733.828     4520.081     2217.124        2.976        0.774      209.834       50.086        0.057      339.130       12.248      859.581
11/21/2014  14:36:00     -317.870      -82.542       -7.012      190.985      105.497       65.248    36475.155    11129.700     4257.353        7.987        2.593      328.412       73.024        0.049      339.065       12.141      859.603
11/21/2014  14:37:00     -330.859     -171.387       -9.609      161.113      143.748       80.164    25957.385    20663.542     6426.266        9.598        2.652      372.614       78.102        0.044      339.007       12.045      859.592
11/21/2014  14:38:00     -287.419      -40.106      -11.353      150.821      105.381       67.090    22746.835    11105.096     4501.075        6.134        1.918      290.204       76.557        0.070      339.053       12.119      859.613
11/21/2014  14:39:00     -203.074      -28.132        6.456       91.928       83.042       54.726     8450.744     6896.042     2994.913        3.020        0.917      205.014       52.436        0.065      339.138       12.262      859.618
11/21/2014  14:40:00     -179.236     -117.477       -9.480       89.020      105.822       46.113     7924.517    11198.250     2126.390        3.363        1.062      214.304       35.718        0.028      339.039       12.096      859.620
11/21/2014  14:41:00     -184.115      -48.864        3.080      125.805      113.913       55.985    15826.860    12976.185     3134.300        3.411        1.597      190.489       60.803        0.102      339.108       12.213      859.607
11/21/2014  14:42:00     -156.802     -162.017       -4.474      162.471       97.547       66.424    26396.877     9515.325     4412.140        4.558        2.016      225.470       74.385        0.109      339.027       12.077      859.593
11/21/2014  14:43:00     -201.592      -25.539       -7.276      101.454       88.219       46.608    10292.945     7782.544     2172.265        3.079        1.012      203.203       51.668        0.065      339.192       12.354      859.604
11/21/2014  14:44:00     -162.500      -44.045       -8.030      103.386       66.923       33.343    10688.733     4478.682     1111.739        2.234        0.814      168.363       35.976        0.046      339.153       12.289      859.624
11/21/2014  14:45:00     -218.238      -42.044        6.072      150.333      104.600       68.736    22600.059    10941.139     4724.577        4.384        1.913      222.251       75.595        0.116      339.107       12.211      859.610
11/21/2014  14:46:00     -260.719      -53.573       -4.675      139.615      100.924       61.376    19492.308    10185.705     3766.963        5.215        1.672      266.166       64.235        0.058      339.055       12.125      859.599
11/21/2014  14:47:00     -311.880      -59.406      -19.382      156.934      150.281       70.129    24628.199    22584.268     4918.147        7.664        2.607      317.487       71.297        0.050      339.026       12.074      859.586
11/21/2014  14:48:00     -120.583      -18.783        8.205      141.288       82.393       61.671    19962.435     6788.631     3803.269        2.275        1.528      122.037       58.963        0.233      339.200       12.369      859.569
11/21/2014  14:49:00     -296.836      -77.473      -18.690      238.885      124.751       62.856    57065.871    15562.863     3950.922        8.551        3.829      306.779       70.451        0.053      339.054       12.122      859.578
11/21/2014  14:50:00     -366.455      -94.527      -25.596      151.552      144.149       75.136    22967.936    20779.015     5645.437        9.663        2.470      378.451       79.828        0.044      339.077       12.161      859.553
11/21/2014  14:51:00     -307.180      -82.846      -17.101      163.873      130.321       68.907    26854.376    16983.598     4748.208        7.504        2.429      318.155       62.274        0.038      339.145       12.276      859.535
11/21/2014  14:52:00     -334.136      -95.263      -27.164      146.220      120.636       50.380    21380.224    14553.142     2538.180        7.996        1.924      347.451       46.321        0.018      338.983       12.001      859.511
11/21/2014  14:53:00     -421.403      -82.345      -30.627      166.972      111.386       66.600    27879.811    12406.813     4435.603       11.500        2.236      429.373       76.802        0.032      338.922       11.899      859.496
11/21/2014  14:54:00     -366.937      -56.671      -13.421      145.573      138.943       70.461    21191.454    19305.193     4964.822        9.174        2.273      371.288       61.160        0.027      339.020       12.063      859.487
11/21/2014  14:55:00     -300.053      -63.446      -15.041      132.715      116.392       65.067    17613.324    13547.100     4233.740        6.483        1.770      306.688       68.232        0.049      339.039       12.097      859.505
11/21/2014  14:56:00     -195.257      -59.283      -10.984      128.839       83.802       50.378    16599.472     7022.721     2537.934        3.395        1.308      204.058       59.608        0.085      339.056       12.125      859.514
11/21/2014  14:57:00     -141.456      -60.236        1.878      161.948       90.309       40.168    26227.029     8155.666     1613.462        2.981        1.800      153.747       57.896        0.142      339.083       12.172      859.509
11/21/2014  14:58:00     -376.931      -57.468      -12.822      160.387      138.192       73.919    25724.108    19097.134     5463.998        9.790        2.514      381.287       80.299        0.044      339.006       12.042      859.489
11/21/2014  14:59:00     -262.149      -65.402       -6.934      153.700      119.457       66.689    23623.824    14269.944     4447.474        5.769        2.117      270.184       64.833        0.058      338.986       12.008      859.494
11/21/2014  15:00:00     -482.428      -89.525      -10.692      180.114      125.525       95.950    32441.059    15756.500     9206.307       14.912        2.870      490.665       99.599        0.041      338.901       11.865      859.490
11/21/2014  15:01:00     -548.720      -67.619      -34.688      167.994      139.822       75.537    28222.089    19550.161     5705.908       18.016        2.674      552.871       74.889        0.018      338.918       11.892      859.494
11/21/2014  15:02:00     -327.477     -132.784      -17.710      105.942      108.496       63.305    11223.696    11771.406     4007.521        7.609        1.350      353.374       46.327        0.017      338.878       11.825      859.519
11/21/2014  15:03:00     -328.419      -98.770       -3.407      164.303      140.183       79.777    26995.365    19651.278     6364.440        8.531        2.651      342.950       87.356        0.065      338.896       11.856      859.546
11/21/2014  15:04:00     -380.036      -66.928      -22.600      160.238      155.728       77.181    25676.059    24251.088     5956.949       10.264        2.794      385.885       75.130        0.038      338.992       12.019      859.567
11/21/2014  15:05:00     -434.870      -85.437      -20.088      152.290      157.232       70.302    23192.155    24722.049     4942.342       12.483        2.643      443.184       62.585        0.020      338.943       11.934      859.595
11/21/2014  15:06:00     -475.229     -118.254      -18.350      164.130      112.754       66.577    26938.776    12713.568     4432.560       14.212        2.204      489.721       64.201        0.017      338.878       11.826      859.624
11/21/2014  15:07:00     -140.501      -55.629        8.807      132.671      112.067       57.597    17601.597    12559.098     3317.374        2.819        1.674      151.113       62.131        0.169      338.921       11.898      859.620
11/21/2014  15:08:00     -211.287      -44.752       -4.933      116.408      123.442       59.230    13550.920    15237.838     3508.142        3.948        1.615      215.974       40.370        0.035      338.990       12.014      859.615
11/21/2014  15:09:00     -209.082      -19.166       19.033      205.285      111.387       77.433    42142.055    12406.975     5995.879        5.248        3.027      209.958      104.690        0.249      338.992       12.019      859.603
11/21/2014  15:10:00     -486.724      -94.899      -12.246      156.499      138.755       71.602    24491.788    19252.951     5126.846       14.745        2.444      495.889       64.071        0.017      338.861       11.796      859.610
11/21/2014  15:11:00     -250.862      -16.961       -8.120      135.303      107.555       65.710    18307.012    11568.038     4317.802        4.873        1.710      251.434       54.751        0.047      339.096       12.192      859.621
11/21/2014  15:12:00     -372.745      -86.813      -35.850      179.350      139.577       68.926    32166.513    19481.627     4750.771       10.207        2.820      382.721       72.732        0.036      338.913       11.886      859.604
11/21/2014  15:13:00     -450.859     -118.280      -20.084      190.172      135.652       75.651    36165.391    18401.536     5723.115       13.897        3.015      466.116       79.284        0.029      338.843       11.767      859.584
11/21/2014  15:14:00     -341.348       47.920      -20.219      126.197      132.227       74.289    15925.780    17483.902     5518.818        7.907        1.946      344.695       63.257        0.034      338.909       11.878      859.601
11/21/2014  15:15:00     -199.434      -39.923        2.987      133.232       96.389       74.474    17750.669     9290.860     5546.449        3.698        1.629      203.391       77.580        0.145      338.946       11.940      859.592
11/21/2014  15:16:00     -271.564     -100.371        2.315      200.911      152.744       66.555    40365.290    23330.774     4429.533        7.596        3.406      289.519       57.483        0.039      338.846       11.773      859.590
11/21/2014  15:17:00     -307.278      -41.736      -15.745      142.649      121.203       68.921    20348.681    14690.242     4750.111        6.809        1.989      310.099       66.071        0.045      338.873       11.818      859.635
11/21/2014  15:18:00     -295.342      -28.667       -9.767      173.688      122.117       65.805    30167.584    14912.670     4330.342        6.877        2.471      296.730       77.606        0.068      338.947       11.940      859.660
11/21/2014  15:19:00     -246.640      -75.300       -9.841      155.508       90.511       69.921    24182.724     8192.279     4888.891        5.192        1.863      257.878       78.700        0.093      338.882       11.833      859.671
11/21/2014  15:20:00     -227.377     -109.789       -3.096      186.541      108.130       82.758    34797.490    11692.044     6848.894        5.854        2.667      252.496       98.086        0.151      338.845       11.771      859.663
11/21/2014  15:21:00     -137.521      -53.761       13.443      149.576      111.304       71.201    22373.102    12388.481     5069.561        3.090        1.992      147.656       73.832        0.250      338.881       11.832      859.680
11/21/2014  15:22:00     -306.284     -153.235        0.920      205.285      134.436       84.334    42142.053    18073.084     7112.274        9.230        3.366      342.478       94.519        0.076      338.834       11.751      859.711
11/21/2014  15:23:00     -267.039     -140.685        1.906      155.860      152.768       89.788    24292.450    23338.150     8061.883        7.339        2.785      301.831       88.241        0.085      338.875       11.821      859.735
11/21/2014  15:24:00     -233.280      -66.650       -3.415      112.215       98.426       56.222    12592.220     9687.646     3160.884        4.215        1.272      242.615       53.191        0.048      338.855       11.787      859.776
11/21/2014  15:25:00     -276.052     -100.286       -9.763      141.641       76.961       60.899    20062.281     5922.974     3708.638        5.802        1.485      293.704       58.659        0.040      338.847       11.773      859.847
11/21/2014  15:26:00     -198.205      -98.630        3.694      147.782       87.523       60.161    21839.630     7660.220     3619.381        4.107        1.656      221.389       68.042        0.094      338.863       11.802      859.870
11/21/2014  15:27:00     -380.236     -339.930       -7.342      229.961      176.500      107.387    52882.002    31152.419    11532.062       17.786        4.778      510.031      115.412        0.051      338.742       11.598      859.859
11/21/2014  15:28:00     -388.242     -142.003      -12.037      263.543      166.353       93.587    69454.808    27673.312     8758.617       13.844        5.294      413.397      116.669        0.080      338.755       11.618      859.895
11/21/2014  15:29:00     -277.793     -160.459        5.508      180.055      128.900       84.945    32419.963    16615.274     7215.591        7.959        2.813      320.805       86.877        0.073      338.743       11.600      859.928
11/21/2014  15:30:00     -301.650     -119.040      -21.472      123.590      110.340       69.907    15274.568    12174.851     4887.036        6.897        1.617      324.289       65.967        0.041      338.763       11.634      859.962
11/21/2014  15:31:00     -219.409     -150.097       14.368      117.840      132.874       63.678    13886.354    17655.482     4054.947        5.323        1.780      265.837       65.804        0.061      338.792       11.682      859.996
11/21/2014  15:32:00     -390.400     -128.207       -5.927      179.497      129.760       73.702    32219.213    16837.632     5431.965       11.168        2.724      410.913       73.420        0.032      338.734       11.584      860.005
11/21/2014  15:33:00     -371.813     -139.270      -22.255      118.000      152.130       55.336    13923.916    23143.659     3062.072        9.912        2.006      397.040       52.554        0.018      338.746       11.605      860.025
11/21/2014  15:34:00     -285.184     -144.811       -9.883      119.029      116.222       57.706    14167.925    13507.544     3329.967        6.670        1.550      319.844       59.863        0.035      338.755       11.619      860.042
11/21/2014  15:35:00     -275.124     -149.920      -16.141      126.152      110.295       53.684    15914.435    12165.024     2881.918        6.469        1.548      313.319       62.112        0.039      338.772       11.650      860.060
11/21/2014  15:36:00     -215.621      -50.995      -17.139      145.101       73.509       52.125    21054.325     5403.515     2717.029        3.927        1.459      221.569       50.491        0.052      338.790       11.681      860.065
11/21/2014  15:37:00     -247.458     -109.608       -9.891      125.317       65.261       43.466    15704.333     4259.063     1889.265        4.760        1.093      270.646       46.414        0.029      338.759       11.626      860.086
11/21/2014  15:38:00     -214.811     -120.650      -10.443       79.801      115.923       48.654     6368.121    13438.203     2367.260        4.149        1.109      246.374       38.032        0.024      338.793       11.683      860.087
11/21/2014  15:39:00     -271.328     -156.102      -10.432       99.247       98.701       53.790     9850.017     9741.830     2893.397        6.029        1.124      313.028       53.613        0.029      338.774       11.652      860.094
11/21/2014  15:40:00     -267.288     -132.698      -13.453      135.381       86.743       63.221    18327.969     7524.305     3996.912        5.953        1.492      298.415       65.164        0.048      338.756       11.622      860.101
11/21/2014  15:41:00     -211.874      -76.782       -5.227       92.863       88.578       44.881     8623.446     7846.072     2014.336        3.464        0.924      225.358       47.468        0.044      338.814       11.721      860.128
11/21/2014  15:42:00     -284.475     -102.862       -9.594      151.743       96.362       68.222    23026.075     9285.581     4654.213        6.427        1.848      302.500       55.941        0.034      338.811       11.713      860.124
11/21/2014  15:43:00     -464.847     -194.440      -20.602      177.099      127.501       76.681    31364.108    16256.461     5880.012       15.390        2.675      503.874       78.324        0.024      338.748       11.608      860.122
11/21/2014  15:44:00     -381.585     -129.439      -10.955      126.014      117.305       63.526    15879.477    13760.461     4035.585        9.807        1.684      402.942       52.067        0.017      338.767       11.639      860.145
11/21/2014  15:45:00     -254.286      -83.798       -6.594      107.272      112.499       58.004    11507.239    12655.917     3364.423        4.962        1.376      267.738       53.575        0.040      338.866       11.807      860.150
11/21/2014  15:46:00     -294.756      -40.193      -25.346      110.329      130.667       54.744    12172.496    17073.915     2996.958        6.068        1.612      297.484       46.980        0.025      338.939       11.928      860.159
11/21/2014  15:47:00     -263.007      -34.425       -8.477      165.256      100.753       69.091    27309.505    10151.143     4773.586        5.632        2.112      265.251       80.832        0.093      338.904       11.870      860.191
11/21/2014  15:48:00     -343.834      -26.551       -5.642      189.084      113.912       66.383    35752.827    12975.832     4406.740        8.604        2.657      344.858       85.302        0.061      338.834       11.752      860.193
11/21/2014  15:49:00     -419.322      -28.900      -13.764      149.661      148.310       75.794    22398.423    21995.771     5744.730       11.349        2.507      420.317       74.868        0.032      338.902       11.867      860.192
11/21/2014  15:50:00     -445.983     -161.531      -20.785      155.236      115.403       70.146    24098.145    13317.898     4920.400       13.387        2.117      474.334       63.210        0.018      338.738       11.591      860.196
11/21/2014  15:51:00     -347.756      -29.382      -13.835      145.381      148.834       74.294    21135.506    22151.554     5519.628        8.539        2.440      348.995       71.468        0.042      338.781       11.663      860.201
11/21/2014  15:52:00     -248.828      -91.098       15.277      176.062      138.997       87.698    30997.684    19320.143     7690.959        6.422        2.900      264.980      106.297        0.161      338.768       11.640      860.198
11/21/2014  15:53:00     -301.730     -108.186        0.213      138.461      108.140       61.692    19171.515    11694.272     3805.947        6.870        1.734      320.539       68.341        0.045      338.706       11.536      860.200
11/21/2014  15:54:00     -218.026     -139.132       -0.072      125.112       77.858       61.679    15652.905     6061.826     3804.251        4.620        1.276      258.637       58.060        0.050      338.691       11.511      860.196
11/21/2014  15:55:00     -276.971      -67.844      -27.873       96.947      117.110       50.355     9398.755    13714.787     2535.633        5.387        1.282      285.159       44.402        0.024      338.730       11.575      860.211
11/21/2014  15:56:00     -268.937      -67.343      -20.465      118.174       89.630       51.308    13965.035     8033.551     2632.517        5.095        1.232      277.241       53.026        0.037      338.771       11.645      860.213
11/21/2014  15:57:00     -244.381      -82.794       -9.935      112.213       86.609       52.225    12591.840     7501.058     2727.441        4.474        1.141      258.025       46.763        0.033      338.720       11.560      860.229
11/21/2014  15:58:00     -269.947      -94.311      -17.945      105.754       79.779       47.269    11183.997     6364.681     2234.341        5.093        0.989      285.947       53.335        0.035      338.686       11.502      860.236
11/21/2014  15:59:00     -189.816      -49.712        3.849      120.978       89.425       44.165    14635.781     7996.866     1950.533        3.154        1.229      196.217       45.859        0.055      338.863       11.802      860.243
11/21/2014  16:00:00     -261.910      -58.628       -9.682       83.604       64.310       38.054     6989.551     4135.818     1448.123        4.235        0.629      268.392       42.603        0.025      338.678       11.488      860.258
11/21/2014  16:01:00     -223.985      -87.638      -11.786       74.050       69.566       40.099     5483.432     4839.389     1607.911        3.496        0.597      240.519       28.395        0.014      338.679       11.490      860.263
11/21/2014  16:02:00     -193.613      -62.716       -1.975       79.571       78.231       42.040     6331.470     6120.114     1767.331        2.782        0.711      203.517       34.645        0.029      338.739       11.590      860.252
11/21/2014  16:03:00     -301.623      -57.896      -15.051      108.752       82.236       45.962    11827.007     6762.790     2112.491        5.762        1.035      307.129       49.390        0.026      338.644       11.433      860.276
11/21/2014  16:04:00     -294.128        0.403      -15.302      111.641      111.853       51.677    12463.724    12511.197     2670.548        5.719        1.382      294.128       58.110        0.039      338.759       11.626      860.262
11/21/2014  16:05:00     -200.496      -25.493       -3.556       87.185       74.671       49.969     7601.249     5575.817     2496.863        2.826        0.784      202.110       35.271        0.030      338.648       11.440      860.240
11/21/2014  16:06:00     -155.289       35.195      -22.383       89.162       67.065       39.905     7949.824     4497.722     1592.412        1.994        0.702      159.227       41.496        0.068      338.814       11.720      860.242
11/21/2014  16:07:00     -179.946       24.834      -19.548       91.591       82.235       53.058     8388.866     6762.545     2815.193        2.567        0.898      181.651       59.320        0.107      338.733       11.583      860.233
11/21/2014  16:08:00      -70.632       -7.182        1.116       65.353       74.492       34.509     4271.049     5549.036     1190.845        0.802        0.551       70.996       25.268        0.127      338.738       11.594      860.209
11/21/2014  16:09:00     -362.539        9.210      -46.854      164.219       78.582       44.325    26967.933     6175.102     1964.675        8.440        1.755      362.656       51.487        0.020      338.665       11.468      860.189
11/21/2014  16:10:00     -220.066      -68.092       -8.602      111.864       80.221       52.311    12513.658     6435.405     2736.464        3.741        1.084      230.359       57.476        0.062      338.673       11.481      860.192
11/21/2014  16:11:00     -351.063      -79.514      -17.276      157.959      156.441       61.510    24951.184    24473.901     3783.537        9.153        2.660      359.955       45.086        0.016      338.652       11.446      860.209
11/21/2014  16:12:00     -352.199     -124.564       -7.315      199.076      161.042       65.790    39631.252    25934.581     4328.301       10.474        3.495      373.578       74.808        0.040      338.658       11.456      860.192
11/21/2014  16:13:00     -410.734      -82.626      -14.681      154.931      128.235       69.321    24003.501    16444.253     4805.407       11.049        2.263      418.962       71.369        0.029      338.672       11.478      860.230
11/21/2014  16:14:00     -377.268      -96.779      -26.089      143.877       91.780       66.390    20700.717     8423.564     4407.697        9.295        1.677      389.483       71.277        0.033      338.561       11.294      860.234
11/21/2014  16:15:00     -356.736     -165.139       -8.343      271.918      186.950       89.454    73939.625    34950.369     8002.072       13.572        5.845      393.105      102.015        0.067      338.574       11.316      860.227
11/21/2014  16:16:00     -307.641     -119.482      -11.367      139.862      126.823       67.471    19561.406    16084.172     4552.337        7.462        2.010      330.029       62.716        0.036      338.526       11.234      860.275
11/21/2014  16:17:00     -395.519      -93.827      -25.470      205.372      124.274       75.336    42177.463    15444.151     5675.467       11.458        3.165      406.496       89.986        0.049      338.510       11.207      860.316
11/21/2014  16:18:00     -353.502     -173.785      -21.510      165.148      152.207       73.232    27273.796    23166.959     5362.960       10.570        2.790      393.910       52.433        0.018      338.444       11.096      860.314
11/21/2014  16:19:00     -340.185      -44.277      -31.274      208.502      197.550       83.985    43472.980    39026.100     7053.533       10.409        4.478      343.054       88.859        0.067      338.445       11.098      860.309
11/21/2014  16:20:00     -401.279     -125.333      -15.827      142.998      155.969       82.062    20448.433    24326.455     6734.146       11.424        2.575      420.397       75.624        0.032      338.369       10.971      860.290
11/21/2014  16:21:00     -370.218      -62.985      -10.207      140.026       83.010       54.655    19607.156     6890.589     2987.124        8.530        1.474      375.537       65.261        0.030      338.394       11.011      860.312
11/21/2014  16:22:00     -552.350      -65.297      -36.783      168.399      194.395       87.389    28358.388    37789.370     7636.878       19.223        3.689      556.196       93.267        0.028      338.361       10.958      860.293
11/21/2014  16:23:00     -379.019      -63.414       -7.430      220.241      151.685      106.527    48506.224    23008.335    11348.034       11.528        4.143      384.288      118.498        0.095      338.337       10.916      860.295
11/21/2014  16:24:00     -305.230      -70.240        2.752      209.356      117.821       67.105    43829.875    13881.781     4503.099        8.015        3.111      313.208       78.232        0.062      338.321       10.889      860.334
11/21/2014  16:25:00     -320.558      -65.180       -7.131      175.163      135.255       61.253    30682.089    18293.818     3751.978        7.988        2.636      327.117       77.900        0.057      338.409       11.038      860.327
11/21/2014  16:26:00     -420.577      -92.222      -19.780      184.224      115.928       72.953    33938.651    13439.375     5322.092       11.923        2.635      430.569       90.554        0.044      338.284       10.828      860.312
11/21/2014  16:27:00     -258.422      -37.476      -22.191      134.727       88.898       54.983    18151.406     7902.780     3023.080        4.887        1.454      261.125       47.094        0.033      338.279       10.819      860.273
11/21/2014  16:28:00     -271.220     -102.992      -24.654      114.527       94.439       54.955    13116.376     8918.642     3020.066        5.491        1.253      290.116       50.214        0.030      338.203       10.690      860.243
11/21/2014  16:29:00     -513.574      -36.738      -33.331      209.386      134.751       90.353    43842.533    18157.728     8163.584       16.818        3.508      514.886      108.098        0.044      338.245       10.763      860.222
11/21/2014  16:30:00     -511.603      -39.812      -39.264      255.708      166.570       93.280    65386.566    27745.546     8701.176       18.333        5.092      513.150      102.510        0.040      338.263       10.793      860.205
11/21/2014  16:31:00     -492.829      -90.693      -25.417      160.435      153.950       84.541    25739.405    23700.491     7147.114       15.416        2.829      501.105       78.959        0.025      338.212       10.705      860.155
11/21/2014  16:32:00     -316.359      -92.852       -7.100      157.400      141.141       73.803    24774.866    19920.858     5446.936        7.944        2.507      329.704       67.683        0.042      338.205       10.695      860.163
11/21/2014  16:33:00     -377.372     -132.244      -19.534      225.676      138.942       75.538    50929.825    19304.856     5706.053       11.810        3.797      399.873       80.674        0.041      338.148       10.599      860.160
11/21/2014  16:34:00     -442.741      -66.437      -40.024      221.853      147.945       79.202    49218.608    21887.691     6272.956       13.969        3.869      447.698      106.387        0.056      338.176       10.646      860.177
11/21/2014  16:35:00     -396.459      -62.753      -42.544      130.404      141.258       80.267    17005.131    19953.686     6442.742       10.316        2.170      401.395       69.451        0.030      338.186       10.662      860.157
11/21/2014  16:36:00     -419.414     -101.917      -17.530      215.528      154.766       87.029    46452.440    23952.598     7574.020       13.228        3.899      431.620       96.391        0.050      338.105       10.526      860.143
11/21/2014  16:37:00     -373.289      -54.165      -18.879      134.962      106.064       71.661    18214.720    11249.557     5135.266        8.861        1.730      377.199       69.239        0.034      338.136       10.579      860.178
11/21/2014  16:38:00     -483.683      -88.720      -50.596      140.161      120.751       53.834    19645.168    14580.874     2898.149       14.074        1.856      491.752       55.809        0.013      338.091       10.504      860.186
11/21/2014  16:39:00     -339.650     -139.336      -28.755      151.762       93.279       63.464    23031.683     8700.889     4027.647        8.567        1.788      367.120       59.839        0.027      338.088       10.499      860.196
11/21/2014  16:40:00     -451.941      -85.589      -25.468      189.217      118.919       83.468    35803.073    14141.624     6966.961       13.456        2.846      459.974       93.536        0.041      338.118       10.548      860.224
11/21/2014  16:41:00     -221.111     -103.534       19.320      207.979      124.639       68.486    43255.311    15534.985     4690.320        6.172        3.174      244.150       75.862        0.097      338.092       10.507      860.260
11/21/2014  16:42:00     -393.101       34.510      -30.581      161.098      136.291       72.020    25952.667    18575.308     5186.935       10.317        2.486      394.613       67.520        0.029      338.235       10.747      860.256
11/21/2014  16:43:00     -386.996     -145.287       -8.436      238.017      142.772       92.128    56652.123    20383.905     8487.616       12.822        4.276      413.369       84.765        0.042      338.188       10.667      860.229
11/21/2014  16:44:00     -351.125      -74.904       -8.675      152.281      148.157       79.807    23189.574    21950.579     6369.166        9.023        2.575      359.026       84.580        0.055      338.112       10.540      860.246
11/21/2014  16:45:00     -357.038      -97.814      -20.830      186.563      104.298       71.182    34805.655    10877.979     5066.893        9.410        2.538      370.194       96.306        0.068      338.090       10.503      860.269
11/21/2014  16:46:00     -227.371       19.598       10.938      171.714      114.606       72.387    29485.642    13134.612     5239.917        5.002        2.393      228.214       81.236        0.127      338.224       10.729      860.269
11/21/2014  16:47:00     -349.134     -103.079      -16.070      196.504      186.392       79.641    38613.948    34741.916     6342.627       10.622        3.985      364.032       89.453        0.060      338.155       10.612      860.256
11/21/2014  16:48:00     -487.397       39.249      -30.748      177.398      163.302       90.499    31470.219    26667.448     8190.110       15.317        3.316      488.975       94.461        0.037      338.134       10.576      860.224
11/21/2014  16:49:00     -384.230      -92.740       -8.522      176.722      171.328       86.334    31230.821    29353.167     7453.490       11.216        3.402      395.264       87.652        0.049      338.100       10.519      860.206
11/21/2014  16:50:00     -335.825      -61.537      -10.749      213.627      192.107       87.916    45636.464    36905.163     7729.215       10.346        4.514      341.417      102.331        0.090      338.176       10.646      860.211
11/21/2014  16:51:00     -399.578      -13.963      -17.051      272.719      185.616       94.869    74375.761    34453.220     9000.101       13.897        5.891      399.822      123.655        0.096      338.133       10.575      860.179
11/21/2014  16:52:00     -407.134      -99.510      -19.753      220.314      171.723       95.576    48538.132    29488.890     9134.845       13.159        4.358      419.118      107.765        0.066      338.089       10.499      860.179
11/21/2014  16:53:00     -336.585     -162.374      -23.371      218.232      163.874       95.590    47625.411    26854.661     9137.358       11.189        4.181      373.704      118.263        0.100      338.024       10.393      860.179
11/21/2014  16:54:00     -134.136      -13.312       10.027      101.796       97.157       51.046    10362.396     9439.498     2605.645        2.033        1.120      134.795       44.708        0.110      338.177       10.651      860.185
11/21/2014  16:55:00     -458.813     -105.600      -45.310      198.317      144.950       86.956    39329.736    21010.494     7561.261       14.579        3.395      470.808       92.740        0.039      338.018       10.382      860.117
11/21/2014  16:56:00     -486.779      -41.714       -6.228      197.342      154.433       83.288    38943.778    23849.612     6936.913       15.422        3.487      488.563       84.311        0.030      338.056       10.447      860.092
11/21/2014  16:57:00     -390.022      -36.974      -25.051      175.321      134.080       78.391    30737.588    17977.346     6145.198       10.447        2.743      391.770       89.479        0.052      338.182       10.657      860.105
11/21/2014  16:58:00     -311.660      -43.492      -16.258      209.754      131.766       76.318    43996.718    17362.220     5824.377        8.322        3.359      314.680       98.141        0.097      338.152       10.607      860.114
11/21/2014  16:59:00     -360.397      -39.579      -32.003      169.807      141.838       65.874    28834.311    20118.070     4339.444        9.287        2.665      362.564       64.259        0.031      338.089       10.501      860.121
11/21/2014  17:00:00     -294.165      -32.703      -16.407      135.592      113.286       72.088    18385.194    12833.693     5196.724        6.214        1.821      295.977       75.710        0.065      338.150       10.604      860.128
11/21/2014  17:01:00     -239.261     -166.413      -25.804      214.147      159.196       94.406    45858.882    25343.515     8912.408        8.284        4.006      291.443      103.734        0.127      338.080       10.487      860.119
11/21/2014  17:02:00     -257.868      -96.954        5.945      153.193      134.794       69.336    23468.164    18169.366     4807.480        6.118        2.322      275.493       60.895        0.049      338.071       10.470      860.139
11/21/2014  17:03:00     -263.243      -34.570      -22.236      181.402      104.171       65.418    32906.863    10851.521     4279.579        5.950        2.402      265.503       81.756        0.095      338.197       10.683      860.156
11/21/2014  17:04:00     -422.994      -71.789      -22.510      252.164      174.451       74.714    63586.722    30433.164     5582.128       14.207        4.980      429.042       90.450        0.044      338.100       10.520      860.127
11/21/2014  17:05:00     -399.190      -48.159      -18.067      133.975      117.488       70.331    17949.216    13803.404     4946.466        9.934        1.835      402.085       56.452        0.020      338.133       10.573      860.139
11/21/2014  17:06:00     -447.658      -60.450      -41.246      224.591      147.663       90.751    50440.915    21804.290     8235.768       14.310        4.024      451.721       99.437        0.048      338.089       10.499      860.169
11/21/2014  17:07:00     -481.574     -121.330      -24.753      219.129      171.588       82.261    48017.583    29442.605     6766.830       16.572        4.211      496.623       82.071        0.027      338.051       10.437      860.144
11/21/2014  17:08:00     -286.372        0.227      -12.507      191.726      163.243       70.518    36759.037    26648.302     4972.831        7.526        3.419      286.372       87.663        0.094      338.167       10.632      860.160
11/21/2014  17:09:00     -297.249      -60.016      -18.268      165.039      124.878       70.796    27237.819    15594.493     5012.048        7.006        2.392      303.247       72.436        0.057      338.156       10.613      860.148
11/21/2014  17:10:00     -429.401      -87.469      -15.492      192.191      135.654       82.483    36937.424    18402.095     6803.518       12.720        3.107      438.219       96.456        0.048      338.098       10.516      860.166
11/21/2014  17:11:00     -322.716     -126.780      -21.449      168.266      162.786       86.162    28313.389    26499.249     7423.870        9.145        3.112      346.726       86.044        0.062      338.048       10.432      860.211
11/21/2014  17:12:00     -491.018      -53.025      -34.382      241.396      163.926       90.033    58272.016    26871.773     8105.987       16.915        4.662      493.873      114.253        0.054      338.079       10.485      860.203
11/21/2014  17:13:00     -326.289      -55.984      -14.091      206.475      134.294       83.867    42631.975    18034.968     7033.683        8.874        3.385      331.057       99.467        0.090      338.037       10.413      860.219
11/21/2014  17:14:00     -509.598     -114.863      -27.178      210.382      181.934       90.471    44260.706    33100.098     8185.030       17.957        4.277      522.383      104.398        0.040      337.999       10.349      860.199
11/21/2014  17:15:00     -283.372      -27.602        5.992      164.872      135.170       84.190    27182.622    18271.033     7087.952        6.681        2.627      284.713       93.828        0.109      338.093       10.507      860.241
11/21/2014  17:16:00     -233.793      -44.995        1.322      156.224      135.021       70.726    24406.055    18230.554     5002.228        5.215        2.382      238.084       80.972        0.116      338.055       10.443      860.252
11/21/2014  17:17:00     -297.425     -101.303       -6.179      178.161      135.993       73.999    31741.184    18494.214     5475.924        7.723        2.786      314.204       75.540        0.058      337.987       10.330      860.237
11/21/2014  17:18:00     -203.378      -68.223       -2.004      195.620      125.974       75.162    38267.015    15869.363     5649.313        5.289        2.989      214.516      105.978        0.244      337.963       10.291      860.228
11/21/2014  17:19:00     -273.581     -173.783       -5.185      238.812      115.808       84.935    57030.988    13411.381     7214.034        9.135        3.883      324.110       96.650        0.089      337.939       10.249      860.228
11/21/2014  17:20:00     -344.936     -174.193      -13.847      271.273      175.860      106.311    73588.786    30926.725    11301.948       13.264        5.791      386.425      127.596        0.109      337.948       10.264      860.199
11/21/2014  17:21:00     -243.099     -183.800      -12.523      154.898      116.435       73.490    23993.347    13557.107     5400.796        6.799        2.148      304.761       72.857        0.057      337.943       10.256      860.200
11/21/2014  17:22:00     -310.745      -88.143       -7.589      142.273      149.133       73.512    20241.700    22240.561     5404.019        7.613        2.394      323.004       76.032        0.055      337.966       10.294      860.210
11/21/2014  17:23:00     -267.929      -41.614       -7.028      202.272      118.610       71.863    40914.052    14068.233     5164.267        6.685        3.007      271.141       91.064        0.113      338.028       10.399      860.214
11/21/2014  17:24:00     -223.836     -125.621        1.405      147.001      104.191       66.793    21609.316    10855.775     4461.260        5.140        1.846      256.677       65.359        0.065      337.953       10.272      860.232
11/21/2014  17:25:00     -246.176     -143.796      -13.169      136.760      103.042       77.949    18703.168    10617.643     6075.969        5.842        1.770      285.096       76.746        0.072      337.937       10.246      860.254
11/21/2014  17:26:00     -245.632      -41.958      -15.501      146.452      143.050       68.403    21448.092    20463.254     4678.926        5.445        2.330      249.190       65.728        0.070      338.067       10.465      860.275
11/21/2014  17:27:00     -163.454     -112.223        6.949      127.700      114.162       76.434    16307.360    13032.998     5842.145        3.726        1.759      198.271       78.398        0.156      337.960       10.284      860.312
11/21/2014  17:28:00     -251.227      -89.828        1.931      199.450      131.015       70.489    39780.389    17164.930     4968.767        6.654        3.096      266.803       81.548        0.093      338.007       10.364      860.335
11/21/2014  17:29:00     -186.773      -90.698        6.669      172.373      148.965       72.236    29712.506    22190.631     5218.081        5.013        2.856      207.630       80.256        0.149      338.031       10.404      860.312
11/21/2014  17:30:00     -351.267     -260.357      -14.375      193.854      163.139       92.036    37579.397    26614.319     8470.620       13.201        3.633      437.235       94.169        0.046      337.913       10.204      860.266
11/21/2014  17:31:00     -242.358      -95.186      -17.096      194.078      151.229       81.435    37666.120    22870.307     6631.670        6.762        3.358      260.380       96.545        0.137      337.940       10.250      860.261
11/21/2014  17:32:00     -311.776     -106.369      -28.708      173.648      134.861       61.544    30153.713    18187.540     3787.633        8.073        2.606      329.421       74.363        0.051      337.982       10.321      860.276
11/21/2014  17:33:00     -121.551      -36.378        0.994       89.037      122.254       60.299     7927.525    14946.127     3635.969        2.130        1.325      126.878       58.796        0.215      338.057       10.449      860.283
11/21/2014  17:34:00     -250.501      -27.392       -2.953      156.039      102.003       66.877    24348.271    10404.707     4472.489        5.136        1.961      251.994       72.999        0.084      338.069       10.466      860.306
11/21/2014  17:35:00     -146.196      -89.014        0.889      167.226      111.455       65.046    27964.601    12422.287     4230.927        3.695        2.231      171.162       83.904        0.240      338.010       10.370      860.335
11/21/2014  17:36:00     -374.725      -24.345       -4.339      189.258      119.611       89.344    35818.563    14306.854     7982.425        9.956        2.905      375.515       92.446        0.061      338.143       10.591      860.345
11/21/2014  17:37:00     -276.805     -131.635       -4.971      175.796      168.998       90.566    30904.245    28560.449     8202.246        8.081        3.383      306.511       85.725        0.078      338.037       10.414      860.350
11/21/2014  17:38:00     -333.472     -122.862       -5.084      206.763      116.906       89.405    42750.797    13666.955     7993.319        9.536        3.221      355.385      105.359        0.088      338.021       10.388      860.386
11/21/2014  17:39:00     -112.494      -48.976       15.664      109.587      114.541       61.334    12009.367    13119.596     3761.885        2.209        1.445      122.693       58.817        0.230      338.090       10.503      860.424
11/21/2014  17:40:00     -223.155     -119.899      -19.301      175.770      111.610       65.328    30895.142    12456.683     4267.771        5.607        2.381      253.326       83.773        0.109      338.063       10.457      860.443
11/21/2014  17:41:00     -230.701      -86.080       -4.994      136.902      118.592       58.652    18742.087    14063.954     3440.069        4.844        1.812      246.237       58.417        0.056      338.095       10.512      860.472
11/21/2014  17:42:00     -213.856      -60.687        1.606      107.901      109.617       49.446    11642.676    12015.842     2444.920        3.776        1.305      222.300       49.559        0.050      338.171       10.638      860.474
11/21/2014  17:43:00     -260.984     -160.297       -7.312      118.583       89.821       61.565    14062.009     8067.723     3790.238        5.989        1.296      306.280       59.799        0.038      338.068       10.465      860.490
11/21/2014  17:44:00     -179.374     -134.585       10.066      186.513      128.508       81.260    34787.032    16514.255     6603.259        5.414        2.895      224.250      100.425        0.201      338.062       10.457      860.477
11/21/2014  17:45:00     -174.487     -148.619        3.323      146.685      116.750       81.358    21516.383    13630.528     6619.094        4.715        2.088      229.202       91.355        0.159      338.062       10.455      860.501
11/21/2014  17:46:00     -213.946     -126.463       -5.455      142.296       95.806       66.457    20248.206     9178.847     4416.566        4.781        1.692      248.527       67.568        0.074      338.056       10.445      860.513
11/21/2014  17:47:00     -257.892      -55.827       -5.651      122.698      101.943       62.588    15054.903    10392.474     3917.295        4.950        1.468      263.865       67.253        0.065      338.130       10.568      860.546
11/21/2014  17:48:00     -166.228      -69.545       -5.649       90.862       63.816       44.236     8255.936     4072.431     1956.864        2.339        0.714      180.189       45.384        0.063      338.163       10.626      860.536
11/21/2014  17:49:00     -129.474      -92.578       -9.256       83.006       81.850       45.305     6889.965     6699.351     2052.541        2.053        0.782      159.167       43.185        0.074      338.084       10.494      860.531
11/21/2014  17:50:00     -226.127      -21.791        0.747      136.025      106.989       60.158    18502.847    11446.680     3619.034        4.258        1.678      227.175       62.064        0.075      338.133       10.575      860.519
11/21/2014  17:51:00     -323.620       11.828       -1.987      191.049      131.191       81.767    36499.688    17211.203     6685.826        8.262        3.020      323.836      103.882        0.103      338.214       10.711      860.499
11/21/2014  17:52:00     -396.000      -53.179      -24.194      192.070      163.955       76.687    36890.693    26881.220     5880.850       11.493        3.483      399.555       92.805        0.054      338.194       10.677      860.490
11/21/2014  17:53:00     -481.165     -147.012      -29.274      155.720      115.146       68.111    24248.654    13258.494     4639.131       14.806        2.107      503.122       60.337        0.014      338.048       10.430      860.488
11/21/2014  17:54:00     -283.029     -103.214        2.014      151.431      122.189       72.888    22931.300    14930.109     5312.662        6.696        2.159      301.262       79.292        0.069      338.070       10.469      860.502
11/21/2014  17:55:00     -421.174      -93.193      -26.548      176.908      133.395       69.232    31296.491    17794.187     4793.126       12.032        2.694      431.361       73.151        0.029      338.028       10.400      860.482
11/21/2014  17:56:00     -438.232      -16.020      -29.022      154.677      159.592       76.291    23924.836    25469.721     5820.328       12.417        2.761      438.524       73.144        0.028      338.142       10.590      860.477
11/21/2014  17:57:00     -484.507     -165.015      -18.188      158.603      107.189       73.959    25155.053    11489.405     5469.906       15.220        2.106      511.837       75.948        0.022      338.001       10.352      860.460
11/21/2014  17:58:00     -296.808     -114.993      -23.128      117.721      105.823       60.575    13858.302    11198.430     3669.315        6.528        1.436      318.305       42.131        0.018      338.015       10.378      860.467
11/21/2014  17:59:00     -245.391     -102.020       -2.816      128.889       94.472       53.218    16612.368     8924.873     2832.191        4.950        1.418      265.754       59.169        0.050      337.985       10.326      860.500
11/21/2014  18:00:00     -218.645      -68.790       -0.837      129.917      128.471       68.520    16878.378    16504.695     4695.016        4.530        1.904      229.211       61.947        0.073      338.068       10.466      860.505
11/21/2014  18:01:00     -286.771      -55.886      -10.813      133.934      118.508       73.499    17938.415    14044.232     5402.075        6.142        1.869      292.165       80.917        0.077      338.040       10.418      860.478
11/21/2014  18:02:00     -298.866        0.857      -19.843      126.307      123.861       65.394    15953.571    15341.590     4276.366        6.264        1.779      298.867       68.204        0.052      338.082       10.488      860.446
11/21/2014  18:03:00     -293.976     -130.468       -9.762      109.350      102.921       58.748    11957.438    10592.651     3451.318        6.476        1.300      321.626       54.124        0.028      338.036       10.411      860.409
11/21/2014  18:04:00     -241.219       14.049       -8.722      109.849       90.448       55.405    12066.718     8180.827     3069.766        4.088        1.166      241.628       54.038        0.050      338.220       10.720      860.385
11/21/2014  18:05:00     -167.398      -22.224       -8.899      127.179       89.416       50.607    16174.510     7995.210     2561.100        2.766        1.337      168.866       50.076        0.088      338.303       10.859      860.367
11/21/2014  18:06:00     -295.599      -43.225      -15.298      133.695      109.552       59.761    17874.344    12001.532     3571.431        6.146        1.672      298.743       59.483        0.040      338.203       10.692      860.328
11/21/2014  18:07:00     -288.348       -4.550      -11.532      199.278      101.071       89.187    39711.621    10215.330     7954.353        7.058        2.894      288.384      100.362        0.121      338.182       10.657      860.304
11/21/2014  18:08:00     -139.776       13.409       26.005      123.794       73.643       62.728    15324.882     5423.229     3934.747        2.253        1.234      140.418       71.223        0.257      338.298       10.852      860.325
11/21/2014  18:09:00      -54.708      -55.185       25.431       82.868       56.720       39.272     6867.077     3217.178     1542.317        0.915        0.581       77.707       44.509        0.328      338.185       10.663      860.384
11/21/2014  18:10:00      -76.418      -47.885       13.568      117.332       84.790       54.537    13766.828     7189.286     2974.338        1.612        1.197       90.181       53.631        0.354      338.281       10.824      860.478
11/21/2014  18:11:00      -68.932     -101.740       16.328       86.045       59.665       51.048     7403.673     3559.942     2605.922        1.447        0.678      122.893       56.608        0.212      338.187       10.666      860.525
11/21/2014  18:12:00      -74.182      -68.296        3.038       55.382       57.047       32.770     3067.148     3254.416     1073.845        0.878        0.370      100.833       35.253        0.122      338.171       10.641      860.552
11/21/2014  18:13:00      -58.219      -96.134       14.042       64.698       58.960       32.773     4185.783     3476.290     1074.049        1.078        0.437      112.388       31.115        0.077      338.182       10.660      860.566
11/21/2014  18:14:00     -209.598      -88.469        0.009      122.087       90.108       45.545    14905.197     8119.451     2074.372        3.842        1.255      227.504       39.157        0.030      338.161       10.622      860.549
11/21/2014  18:15:00     -129.810      -46.548        3.523      112.309       57.888       40.220    12613.278     3351.007     1617.641        1.830        0.879      137.903       40.476        0.086      338.228       10.736      860.513
11/21/2014  18:16:00     -214.872     -126.047        1.750      203.436      101.566       61.317    41386.395    10315.668     3759.794        5.875        2.773      249.114       69.583        0.078      338.129       10.569      860.477
11/21/2014  18:17:00     -191.989      -24.568       -3.583      160.415       87.080       59.123    25732.985     7582.939     3495.488        3.714        1.841      193.555       67.591        0.122      338.253       10.778      860.426
11/21/2014  18:18:00      -93.913     -160.321       16.007      105.011       96.336       56.879    11027.396     9280.665     3235.220        2.916        1.177      185.802       50.844        0.075      338.129       10.567      860.444
11/21/2014  18:19:00     -186.312      -56.136       -8.503      105.099      106.467       48.915    11045.742    11335.244     2392.678        3.135        1.239      194.585       41.322        0.045      338.172       10.639      860.446
11/21/2014  18:20:00     -222.098      -23.562        2.194      140.306      100.910       59.193    19685.727    10182.916     3503.826        4.162        1.669      223.344       59.456        0.071      338.255       10.780      860.441
11/21/2014  18:21:00     -248.124       18.954       -2.132      163.866      107.478       82.347    26852.007    11551.597     6781.079        5.355        2.259      248.847       77.933        0.098      338.296       10.849      860.437
11/21/2014  18:22:00     -230.342      -82.996      -20.609      116.981       93.161       67.708    13684.590     8679.041     4584.323        4.365        1.347      244.839       65.320        0.071      338.172       10.639      860.435
11/21/2014  18:23:00     -196.207      -99.312       -7.140      105.977       97.218       59.360    11231.178     9451.359     3523.636        3.630        1.210      219.909       48.749        0.049      338.163       10.624      860.454
11/21/2014  18:24:00     -258.315      -51.591        8.898      139.686      119.594       74.296    19512.221    14302.823     5519.935        5.439        1.967      263.416       60.592        0.053      338.169       10.633      860.483
11/21/2014  18:25:00     -174.108     -113.166        1.625      163.652      112.619       76.063    26782.060    12683.125     5785.521        4.418        2.263      207.654       87.755        0.179      338.177       10.649      860.479
11/21/2014  18:26:00     -176.877      -70.908       15.118      224.510      130.272       81.893    50404.582    16970.749     6706.390        5.530        3.704      190.561      122.013        0.410      338.172       10.640      860.472
11/21/2014  18:27:00     -301.806     -156.800      -17.798       85.168       93.073       51.049     7253.565     8662.509     2605.982        6.725        0.926      340.107       45.225        0.018      338.179       10.650      860.474
11/21/2014  18:28:00     -230.365        8.139      -10.140      182.247      131.812       62.559    33213.978    17374.471     3913.606        5.386        2.725      230.509       86.999        0.142      338.306       10.865      860.491
11/21/2014  18:29:00      -64.836      -12.922       -4.001      104.364       55.508       38.797    10891.868     3081.113     1505.226        0.993        0.774       66.111       40.197        0.370      338.275       10.814      860.529
11/21/2014  18:30:00     -333.137      -84.297       -9.726      102.139      101.074       46.405    10432.376    10216.040     2153.428        7.049        1.140      343.637       34.078        0.010      338.137       10.580      860.550
11/21/2014  18:31:00     -187.493      -83.037      -10.229       92.435       97.192       46.156     8544.268     9446.253     2130.421        3.113        1.006      205.058       46.636        0.052      338.116       10.546      860.577
11/21/2014  18:32:00     -134.107      -49.743        9.195      116.129       86.308       63.223    13485.865     7449.132     3997.191        2.273        1.247      143.035       70.106        0.240      338.114       10.542      860.588
11/21/2014  18:33:00      -69.409      -42.878        4.097       83.370       68.100       38.581     6950.488     4637.647     1488.498        0.987        0.654       81.585       44.241        0.294      338.149       10.604      860.594
11/21/2014  18:34:00      -87.270      -73.741       -3.417       89.525       59.585       37.565     8014.774     3550.395     1411.094        1.302        0.649      114.253       46.334        0.164      338.115       10.547      860.590
11/21/2014  18:35:00     -116.361        8.612      -12.472       72.965       59.415       28.356     5323.958     3530.173      804.057        1.171        0.483      116.680       28.348        0.059      338.157       10.615      860.598
11/21/2014  18:36:00      -49.154      -86.340        1.425       56.401       43.391       27.535     3181.121     1882.796      758.151        0.785        0.291       99.352       19.655        0.039      338.151       10.608      860.625
11/21/2014  18:37:00      -53.261     -114.340       13.731       73.634       68.392       35.179     5421.979     4677.408     1237.588        1.372        0.567      126.137       45.431        0.130      338.142       10.593      860.633
11/21/2014  18:38:00      -42.657      -89.171       13.425       64.114       61.901       31.581     4110.639     3831.677      997.390        0.944        0.447       98.848       34.621        0.123      338.208       10.703      860.634
11/21/2014  18:39:00       -7.045      -34.526       10.032       29.859       35.047       17.709      891.550     1228.299      313.611        0.189        0.122       35.237       17.374        0.243      338.202       10.693      860.651
11/21/2014  18:40:00      -46.376      -32.003       -0.281       51.991       30.788       20.622     2703.099      947.927      425.246        0.362        0.204       56.347       18.559        0.108      338.231       10.743      860.684
11/21/2014  18:41:00     -189.992      -27.604      -21.063      119.112       58.532       35.337    14187.715     3426.031     1248.701        2.808        0.943      191.986       46.432        0.058      338.177       10.649      860.692
11/21/2014  18:42:00      -81.333       -7.052        8.405       73.797       47.608       33.661     5445.932     2266.489     1133.059        0.779        0.442       81.639       41.112        0.254      338.369       10.975      860.689
11/21/2014  18:43:00      -73.649      -77.485       -4.156       84.594       37.717       33.101     7156.108     1422.536     1095.674        1.056        0.484      106.902       34.563        0.105      338.197       10.686      860.685
11/21/2014  18:44:00     -153.663     -118.019       -7.565       80.944       59.530       40.916     6551.990     3543.792     1674.085        2.468        0.588      193.755       31.974        0.027      338.190       10.669      860.692
11/21/2014  18:45:00      -64.749      -86.302        5.652       54.681       50.973       23.372     2990.006     2598.209      546.241        0.890        0.307      107.890       27.779        0.066      338.183       10.661      860.698
11/21/2014  18:46:00     -126.014      -95.281        0.713       72.989       53.999       44.089     5327.326     2915.914     1943.844        1.757        0.509      157.981       43.963        0.077      338.158       10.618      860.688
11/21/2014  18:47:00      -95.350      -97.678       -5.045       61.546       41.257       29.697     3787.918     1702.176      881.931        1.251        0.319      136.501       20.984        0.024      338.172       10.642      860.679
11/21/2014  18:48:00      -50.042      -64.433        6.509       33.840       43.788       23.573     1145.163     1917.390      555.699        0.516        0.181       81.583       16.553        0.041      338.188       10.668      860.675
11/21/2014  18:49:00      -60.951      -38.451        0.213       23.095       30.876       17.523      533.385      953.355      307.063        0.349        0.090       72.066        6.580        0.008      338.183       10.660      860.666
11/21/2014  18:50:00     -107.585      -60.211        3.466       62.075       46.466       24.854     3853.308     2159.051      617.739        1.092        0.332      123.288       26.018        0.045      338.198       10.682      860.660
11/21/2014  18:51:00     -175.007     -157.528      -14.633       65.009       56.190       34.898     4226.231     3157.294     1217.877        3.213        0.430      235.463       35.899        0.023      338.192       10.671      860.665
11/21/2014  18:52:00     -109.522      -75.845      -22.675       42.259       73.005       26.928     1785.794     5329.711      725.117        1.305        0.392      133.220       22.493        0.029      338.197       10.684      860.639
11/21/2014  18:53:00     -208.486       -2.145      -21.951       51.774       38.570       25.352     2680.528     1487.623      642.701        2.438        0.241      208.497       18.908        0.008      338.270       10.803      860.643
11/21/2014  18:54:00     -266.419      -51.528      -25.206       61.213       59.854       35.807     3746.972     3582.460     1282.159        4.144        0.431      271.356       30.523        0.013      338.319       10.885      860.662
11/21/2014  18:55:00     -185.953        8.164      -15.044       59.050       52.140       31.680     3486.958     2718.584     1003.602        2.104        0.360      186.132       32.717        0.031      338.466       11.134      860.662
11/21/2014  18:56:00     -191.738       27.581      -20.437       59.708       57.376       35.057     3565.002     3291.979     1228.979        2.301        0.404      193.712       25.524        0.017      338.401       11.025      860.684
11/21/2014  18:57:00     -153.522        7.774       -4.294       64.662       76.622       41.074     4181.218     5870.948     1687.100        1.769        0.587      153.719       42.992        0.078      338.321       10.893      860.710
11/21/2014  18:58:00     -163.143      -40.370      -15.803       42.014       41.645       28.801     1765.148     1734.266      829.516        1.641        0.216      168.063       24.858        0.022      338.197       10.684      860.727
11/21/2014  18:59:00     -122.910      -20.029       -5.866       75.918       42.581       33.629     5763.580     1813.166     1130.893        1.212        0.435      124.531       39.046        0.098      338.306       10.868      860.732
11/21/2014  19:00:00     -159.755       -8.498      -15.829       57.046       44.631       33.922     3254.207     1991.900     1150.669        1.612        0.320      159.981       33.311        0.043      338.187       10.667      860.753
11/21/2014  19:01:00      -91.001      -68.665        1.504       76.337       55.782       30.962     5827.273     3111.624      958.623        1.145        0.495      114.001       40.055        0.123      338.177       10.652      860.747
11/21/2014  19:02:00     -155.884      -63.542       -8.394       78.273       48.061       37.671     6126.616     2309.877     1419.085        1.913        0.493      168.338       41.172        0.060      338.271       10.807      860.740
11/21/2014  19:03:00     -144.750      -75.666      -10.984       74.548       60.800       40.948     5557.414     3696.681     1676.704        1.886        0.547      163.334       34.837        0.045      338.264       10.796      860.728
11/21/2014  19:04:00     -215.274     -126.586       -0.333      102.817       84.573       52.779    10571.294     7152.529     2785.673        4.143        1.025      249.734       53.172        0.045      338.187       10.663      860.710
11/21/2014  19:05:00     -175.833     -118.871       -6.465       84.191      107.350       50.155     7088.146    11524.079     2515.528        3.310        1.056      212.244       45.994        0.047      338.215       10.711      860.690
11/21/2014  19:06:00     -215.182     -114.778        4.314      110.837       97.197       60.592    12284.934     9447.229     3671.374        4.244        1.270      243.880       65.093        0.071      338.216       10.714      860.667
11/21/2014  19:07:00     -257.640     -136.850       -6.822       86.672       85.412       51.222     7511.954     7295.230     2623.739        5.129        0.872      291.730       52.043        0.032      338.203       10.692      860.656
11/21/2014  19:08:00     -182.619      -90.481       -0.116      104.878       62.587       43.052    10999.316     3917.161     1853.470        2.915        0.838      203.805       47.809        0.055      338.203       10.693      860.655
11/21/2014  19:09:00     -277.446      -95.032      -14.230      109.422      105.648       51.384    11973.113    11161.437     2640.365        5.599        1.289      293.270       52.161        0.032      338.214       10.711      860.668
11/21/2014  19:10:00     -227.955     -104.834       -0.740       94.367       81.052       44.033     8905.168     6569.466     1938.864        4.018        0.871      250.905       47.840        0.036      338.224       10.726      860.684
11/21/2014  19:11:00     -342.643     -174.098      -27.923       78.564       63.955       49.472     6172.266     4090.257     2447.472        8.060        0.635      384.336       43.051        0.013      338.231       10.740      860.681
11/21/2014  19:12:00     -140.331      -36.265       10.279      107.690       87.755       53.585    11597.191     7701.006     2871.351        2.164        1.108      144.941       62.152        0.184      338.322       10.892      860.664
11/21/2014  19:13:00     -192.468      -68.211       -4.172      102.874       74.225       44.902    10583.155     5509.323     2016.212        2.991        0.905      204.198       52.763        0.067      338.242       10.758      860.632
11/21/2014  19:14:00     -132.657      -61.541      -10.277       85.360       79.940       42.392     7286.338     6390.460     1797.048        1.848        0.774      146.236       37.495        0.066      338.285       10.832      860.601
11/21/2014  19:15:00     -102.695      -63.583       -0.969       92.411       50.776       40.199     8539.760     2578.161     1615.991        1.366        0.637      120.785       46.452        0.148      338.223       10.727      860.556
11/21/2014  19:16:00     -134.418      -26.575       -2.742       89.136       72.857       41.502     7945.297     5308.188     1722.452        1.688        0.749      137.020       49.925        0.133      338.211       10.706      860.535
11/21/2014  19:17:00     -144.112      -62.322        1.227       89.290       75.942       45.163     7972.725     5767.212     2039.735        2.021        0.789      157.010       41.005        0.068      338.205       10.696      860.531
11/21/2014  19:18:00     -157.102      -54.468      -11.724       88.477       62.464       34.927     7828.222     3901.747     1219.896        2.036        0.647      166.276       40.758        0.060      338.283       10.826      860.531
11/21/2014  19:19:00     -231.918      -20.743      -15.269      119.463       64.264       43.159    14271.449     4129.853     1862.682        3.735        1.013      232.844       49.905        0.046      338.337       10.918      860.553
11/21/2014  19:20:00     -265.393      -38.402      -14.600      149.020       87.150       60.103    22206.866     7595.124     3612.393        5.276        1.671      268.157       72.140        0.072      338.297       10.851      860.575
11/21/2014  19:21:00     -217.363      -79.850       -9.372       94.515       72.661       42.013     8933.002     5279.583     1765.110        3.484        0.799      231.565       40.888        0.031      338.249       10.768      860.599
11/21/2014  19:22:00      -77.806      -99.803       10.586       74.994       72.445       49.541     5624.096     5248.350     2454.310        1.472        0.666      126.548       47.547        0.141      338.227       10.734      860.610
11/21/2014  19:23:00     -125.069     -113.098        1.832       81.850       63.287       46.655     6699.502     4005.249     2176.697        2.066        0.644      168.622       41.541        0.061      338.243       10.760      860.604
11/21/2014  19:24:00     -178.385     -138.555        6.160      142.111       77.062       47.204    20195.425     5938.484     2228.247        3.970        1.418      225.873       52.224        0.053      338.356       10.949      860.630
11/21/2014  19:25:00     -108.893     -281.307       -3.871       80.763       52.661       46.554     6522.668     2773.165     2167.264        5.123        0.573      301.648       46.777        0.024      338.379       10.987      860.640
11/21/2014  19:26:00     -162.076     -138.331       -7.250       83.181       76.797       39.177     6919.060     5897.783     1534.849        2.990        0.718      213.082       42.576        0.040      338.330       10.906      860.638
11/21/2014  19:27:00      -47.787     -155.325        9.253       36.525       57.391       29.547     1334.083     3293.718      873.030        1.600        0.275      162.510       27.511        0.029      338.301       10.860      860.646
11/21/2014  19:28:00      -32.497      -77.466        0.945       59.954       62.225       32.193     3594.514     3871.981     1036.401        0.778        0.425       84.006       37.156        0.196      338.309       10.872      860.603
11/21/2014  19:29:00       19.544      -25.992       26.826       41.284       40.996       39.037     1704.354     1680.637     1523.908        0.334        0.245       32.520       23.453        0.520      338.339       10.923      860.566
11/21/2014  19:30:00       26.099      -16.633       42.473       41.145       49.609       36.159     1692.945     2461.083     1307.448        0.411        0.273       30.949       27.958        0.816      338.385       11.001      860.562
11/21/2014  19:31:00        3.014       38.303       75.692       26.599       70.694       33.663      707.526     4997.643     1133.228        0.702        0.342       38.421       39.814        1.074      338.283       10.829      860.581
11/21/2014  19:32:00       68.814      -75.340        7.869       62.665       82.432       42.432     3926.910     6794.962     1800.487        1.150        0.626      102.037       50.250        0.243      338.229       10.737      860.620
11/21/2014  19:33:00       14.253       -0.589       54.808       44.587       60.301       38.159     1988.028     3636.246     1456.143        0.514        0.354       14.265       35.245        6.105      338.216       10.716      860.648
11/21/2014  19:34:00       20.729       22.507       57.405       57.500       49.800       45.531     3306.273     2480.048     2073.082        0.604        0.393       30.598       32.418        1.122      338.200       10.690      860.664
11/21/2014  19:35:00       29.551       18.586       50.750       48.855       60.957       36.860     2386.787     3715.770     1358.663        0.563        0.373       34.910       38.377        1.208      338.147       10.601      860.666
11/21/2014  19:36:00       58.322      -23.030       26.673       61.241       78.481       45.771     3750.435     6159.201     2094.948        0.832        0.600       62.705       57.948        0.854      338.194       10.681      860.677
11/21/2014  19:37:00       94.268      -98.680       -5.142       47.148       50.920       29.114     2222.945     2592.846      847.626        1.216        0.283      136.471       24.077        0.031      338.187       10.668      860.701
11/21/2014  19:38:00       84.352     -117.446      -16.739       62.234       72.067       34.274     3873.106     5193.624     1174.687        1.571        0.512      144.599       28.359        0.038      338.154       10.611      860.702
11/21/2014  19:39:00       31.477       19.277       62.707       63.051       57.782       44.017     3975.371     3338.779     1937.477        0.727        0.463       36.910       45.746        1.536      338.141       10.591      860.690
11/21/2014  19:40:00       80.425     -103.807       -7.216       45.443       75.304       38.796     2065.084     5670.759     1505.102        1.327        0.462      131.317       47.115        0.129      338.106       10.531      860.677
11/21/2014  19:41:00       42.131       18.462       64.312       42.879       64.017       53.910     1838.576     4098.140     2906.315        0.755        0.442       45.999       48.080        1.093      338.080       10.488      860.665
11/21/2014  19:42:00       68.027      -57.248       20.420       54.857      100.852       51.144     3009.341    10171.072     2615.697        1.206        0.790       88.911       60.078        0.457      338.041       10.422      860.653
11/21/2014  19:43:00       39.699      -49.601        0.111       45.556       67.038       38.965     2075.365     4494.113     1518.244        0.606        0.404       63.532       43.200        0.462      338.076       10.481      860.647
11/21/2014  19:44:00       -2.212        4.436       38.327       35.497       39.090       29.224     1260.028     1527.997      854.027        0.257        0.182        4.957       24.999       25.434      338.043       10.426      860.653
11/21/2014  19:45:00        3.145       -7.389       22.969       18.761       39.545       20.866      351.988     1563.828      435.404        0.147        0.118        8.031       23.277        8.401      338.149       10.606      860.665
11/21/2014  19:46:00        9.581        7.727       40.375       45.342       36.296       32.659     2055.900     1317.422     1066.642        0.311        0.222       12.308       31.821        6.684      338.069       10.470      860.669
11/21/2014  19:47:00       13.224       -7.670       36.472       28.141       44.479       26.950      791.940     1978.351      726.277        0.253        0.175       15.287       30.680        4.028      338.080       10.489      860.680
11/21/2014  19:48:00       76.820     -126.800        0.163       66.144       45.781       26.309     4374.986     2095.920      692.181        1.457        0.358      148.254       30.561        0.042      338.106       10.533      860.706
11/21/2014  19:49:00      -19.095      -66.777       34.180       32.749       72.002       33.401     1072.468     5184.233     1115.621        0.668        0.369       69.454       31.664        0.208      338.142       10.591      860.718
11/21/2014  19:50:00        1.414      -21.285       15.390       33.194       26.149       23.622     1101.846      683.753      558.004        0.152        0.117       21.332       13.314        0.390      338.075       10.481      860.728
11/21/2014  19:51:00       27.797      -44.196       28.689       43.477       61.741       29.849     1890.227     3811.890      890.972        0.507        0.330       52.211       28.932        0.307      338.002       10.359      860.716
11/21/2014  19:52:00        1.892       -8.241       13.144       22.375       43.335       33.624      500.659     1877.924     1130.576        0.188        0.175        8.455       32.115       14.426      338.000       10.354      860.710
11/21/2014  19:53:00      -14.283      -44.723        2.973       48.428       40.082       25.746     2345.301     1606.584      662.867        0.341        0.231       46.948       22.437        0.228      338.025       10.397      860.707
11/21/2014  19:54:00        7.662        3.265       22.144       28.496       25.533       25.795      812.027      651.918      665.365        0.134        0.106        8.328       11.755        1.992      338.026       10.399      860.703
11/21/2014  19:55:00       47.678      -40.781       37.665       55.401      108.258       48.474     3069.237    11719.730     2349.686        1.124        0.857       62.740       66.412        1.120      337.984       10.327      860.699
11/21/2014  19:56:00      124.423     -100.812       -8.849       64.873       55.725       34.697     4208.446     3105.223     1203.851        1.712        0.426      160.138       37.564        0.055      337.955       10.278      860.698
11/21/2014  19:57:00       37.366       31.868       66.333       52.673       60.090       54.291     2774.446     3610.862     2947.507        0.807        0.467       49.110       51.224        1.088      337.952       10.275      860.661
11/21/2014  19:58:00       43.571      -55.171       12.096       34.350       64.252       39.822     1179.894     4128.328     1585.769        0.599        0.345       70.301       43.154        0.377      337.981       10.321      860.657
11/21/2014  19:59:00       -3.077       34.028      -10.930       38.832       38.344       14.909     1507.929     1470.291      222.278        0.224        0.160       34.167       17.603        0.265      338.006       10.364      860.709
11/21/2014  20:00:00      -17.432       12.281        2.736       21.930       34.107       24.685      480.940     1163.313      609.360        0.136        0.113       21.324       19.476        0.834      338.186       10.666      860.713
11/21/2014  20:01:00       34.998       17.472        4.381       25.770        9.937       10.886      664.118       98.737      118.512        0.122        0.044       39.117        9.627        0.061      337.972       10.309      860.692
11/21/2014  20:02:00       33.839       39.384       26.594       39.218       25.450       17.297     1538.056      647.722      299.174        0.294        0.124       51.924       16.498        0.101      337.960       10.287      860.661
11/21/2014  20:03:00       39.184       54.462       54.576       60.605       51.813       36.075     3672.987     2684.556     1301.383        0.757        0.383       67.093       31.330        0.218      337.968       10.302      860.656
11/21/2014  20:04:00      120.493       75.204       48.114       41.108       36.060       48.191     1689.882     1300.304     2322.363        1.390        0.266      142.036       34.881        0.060      337.929       10.236      860.649
11/21/2014  20:05:00       97.409       83.398       23.422       38.582       29.223       31.719     1488.564      853.996     1006.081        1.017        0.167      128.233       24.971        0.038      337.873       10.143      860.636
11/21/2014  20:06:00      146.779       76.232       15.811       45.344       38.670       31.518     2056.118     1495.393      993.364        1.607        0.227      165.394       20.499        0.015      337.803       10.023      860.654
11/21/2014  20:07:00      132.032       80.911        0.725       40.600       34.968       29.585     1648.395     1222.766      875.260        1.386        0.187      154.851       18.527        0.014      337.802       10.022      860.677
11/21/2014  20:08:00       34.960       59.466       64.926       35.796       31.515       22.555     1281.379      993.181      508.735        0.588        0.139       68.981       15.804        0.052      337.847       10.098      860.702
11/21/2014  20:09:00       45.590       55.675       55.118       36.635       24.906       26.819     1342.107      620.295      719.271        0.545        0.134       71.960       21.554        0.090      337.786        9.995      860.709
11/21/2014  20:10:00       36.286        8.066       29.693       36.129       63.242       27.870     1305.309     3999.506      776.713        0.417        0.304       37.172       36.690        0.974      337.778        9.981      860.714
11/21/2014  20:11:00       67.289      -71.214      -10.042       33.050       51.780       32.709     1092.331     2681.218     1069.902        0.727        0.242       97.976       31.817        0.105      337.786        9.996      860.712
11/21/2014  20:12:00       28.780      -30.082        8.310       36.774       54.027       38.311     1352.320     2918.957     1467.710        0.377        0.287       41.632       32.642        0.615      337.822       10.055      860.725
11/21/2014  20:13:00       61.553      -42.325       16.370       48.961       50.085       35.671     2397.174     2508.557     1272.433        0.601        0.309       74.701       33.759        0.204      337.869       10.135      860.738
11/21/2014  20:14:00       -0.334       25.315       44.974       23.760       32.756       24.699      564.524     1072.970      610.058        0.246        0.112       25.317       23.418        0.856      337.828       10.065      860.739
11/21/2014  20:15:00       46.225      -83.900        3.397       33.919       38.145       21.874     1150.488     1455.006      478.492        0.614        0.154       95.791       19.606        0.042      337.938       10.251      860.747
11/21/2014  20:16:00       45.105      -68.247       -5.496       25.921       36.534       18.249      671.881     1334.728      333.009        0.453        0.117       81.805        7.278        0.008      337.910       10.203      860.769
11/21/2014  20:17:00        8.058      -66.336       -8.348       21.897       30.098       22.285      479.464      905.873      496.620        0.321        0.094       66.824        9.130        0.019      337.918       10.218      860.789
11/21/2014  20:18:00       71.772      -77.457        2.966       33.385       54.929       28.170     1114.591     3017.232      793.574        0.804        0.246      105.597       29.963        0.081      337.964       10.295      860.784
11/21/2014  20:19:00       17.784       -9.052       42.501       35.540       38.141       22.660     1263.079     1454.705      513.454        0.272        0.162       19.955       23.031        1.332      337.907       10.199      860.741
11/21/2014  20:20:00       63.191        2.199       34.622       56.083       50.806       40.806     3145.294     2581.202     1665.146        0.629        0.370       63.230       37.209        0.346      337.918       10.217      860.698
11/21/2014  20:21:00       76.152        2.865       38.754       60.836       39.364       35.994     3701.056     1549.525     1295.567        0.693        0.327       76.206       34.755        0.208      337.912       10.207      860.696
11/21/2014  20:22:00       33.524       20.115       55.817       52.621       38.086       32.002     2768.917     1450.544     1024.156        0.494        0.262       39.096       23.256        0.354      337.919       10.219      860.714
11/21/2014  20:23:00       17.717       85.357      106.514       38.522       42.707       25.276     1483.935     1823.910      638.893        1.145        0.197       87.176       20.848        0.057      337.896       10.180      860.685
11/21/2014  20:24:00        7.845       60.710       82.846       37.507       43.426       35.327     1406.760     1885.797     1247.993        0.757        0.227       61.215       28.958        0.224      337.876       10.146      860.656
11/21/2014  20:25:00       40.451       88.173       84.455       45.025       39.900       31.445     2027.272     1591.988      988.758        1.057        0.230       97.009       24.606        0.064      337.895       10.178      860.646
11/21/2014  20:26:00       52.653       56.798       63.142       47.767       37.402       32.522     2281.639     1398.884     1057.689        0.736        0.237       77.449       28.883        0.139      337.923       10.225      860.652
11/21/2014  20:27:00       80.497       44.068       13.690       47.988       40.993       29.470     2302.821     1680.434      868.459        0.673        0.243       91.770       22.585        0.061      337.881       10.156      860.627
11/21/2014  20:28:00       22.929      104.309       -8.936       33.179       52.642       25.350     1100.859     2771.173      642.621        0.800        0.226      106.800       26.311        0.061      337.806       10.028      860.640
11/21/2014  20:29:00        6.942       20.990       -1.201       66.021       58.876       27.950     4358.790     3466.406      781.197        0.455        0.430       22.109       28.206        1.628      337.828       10.066      860.664
11/21/2014  20:30:00     -120.645      -29.271      -16.054       25.973       37.335       18.931      674.616     1393.917      358.378        0.905        0.121      124.145       17.155        0.019      338.009       10.370      860.669
11/21/2014  20:31:00      -29.609      -39.373       10.004       52.360       30.605       24.908     2741.535      936.677      620.417        0.341        0.215       49.264       24.845        0.254      337.976       10.314      860.676
11/21/2014  20:32:00       35.587       51.033        4.773       44.518       34.723       20.518     1981.860     1205.667      420.983        0.375        0.180       62.216       16.979        0.074      337.912       10.207      860.648
11/21/2014  20:33:00       34.846       30.955       19.458       22.009       16.852       21.531      484.409      283.975      463.563        0.189        0.062       46.610        6.135        0.017      337.903       10.192      860.637
11/21/2014  20:34:00       49.213       51.803       -7.383       23.773       37.013       18.774      565.161     1369.966      352.481        0.372        0.114       71.452       18.596        0.068      337.923       10.224      860.649
11/21/2014  20:35:00       -2.600      111.444      -24.863       33.333       33.856       17.154     1111.082     1146.230      294.246        0.780        0.128      111.474       17.459        0.025      337.994       10.344      860.662
11/21/2014  20:36:00       50.305       56.528       -2.904       49.027       30.616       29.557     2403.673      937.359      873.631        0.497        0.211       75.671       22.914        0.092      337.947       10.265      860.668
11/21/2014  20:37:00      107.160       45.500       10.753       18.902       22.213       23.817      357.285      493.422      567.248        0.754        0.071      116.420       12.939        0.012      338.000       10.353      860.627
11/21/2014  20:38:00       79.836       52.830       32.342       27.962       34.072       30.213      781.875     1160.931      912.816        0.653        0.143       95.733       20.100        0.044      337.912       10.207      860.577
11/21/2014  20:39:00       78.711       51.873       44.273       63.767       53.502       29.142     4066.197     2862.453      849.273        0.931        0.389       94.267        7.511        0.006      337.677        9.812      860.531
11/21/2014  20:40:00       41.880       48.021       16.524       29.833       25.828       32.493      889.996      667.069     1055.778        0.347        0.131       63.718        9.319        0.021      337.589        9.664      860.519
11/21/2014  20:41:00        6.061       90.994      -17.643       20.785       17.781        9.891      432.014      316.169       97.822        0.474        0.042       91.196        5.943        0.004      337.714        9.874      860.545
11/21/2014  20:42:00       38.892       57.410       -7.383       18.272       25.743       14.567      333.850      662.710      212.184        0.304        0.060       69.343       11.409        0.027      337.729        9.900      860.528
11/21/2014  20:43:00       57.031       33.301        0.879       17.663       21.117       14.232      311.977      445.930      202.551        0.266        0.048       66.042        8.255        0.016      337.703        9.857      860.476
11/21/2014  20:44:00       66.772       37.053       14.832       26.885       17.623       19.100      722.817      310.556      364.802        0.372        0.070       76.364       17.105        0.050      337.655        9.775      860.456
11/21/2014  20:45:00       -0.549        4.049       15.093       12.087       11.563       17.009      146.097      133.705      289.301        0.041        0.028        4.086        8.251        4.078      337.573        9.638      860.493
11/21/2014  20:46:00       19.129       11.298       11.940       20.169        9.126       12.582      406.778       83.276      158.308        0.064        0.032       22.216       10.606        0.228      337.601        9.685      860.510
11/21/2014  20:47:00       48.579       36.005       20.676       20.018       20.738       16.593      400.713      430.059      275.329        0.259        0.055       60.467       14.339        0.056      337.729        9.899      860.477
11/21/2014  20:48:00        8.583       62.545       71.404       17.955       29.589       15.878      322.379      875.485      252.101        0.527        0.072       63.131       14.623        0.054      337.815       10.044      860.427
11/21/2014  20:49:00        8.796       84.219       91.408       28.882       33.510       24.680      834.161     1122.899      609.126        0.905        0.128       84.677       20.346        0.058      337.924       10.227      860.433
11/21/2014  20:50:00       41.826       39.227       58.426       38.652       29.369       27.147     1493.998      862.530      736.971        0.490        0.155       57.343       26.794        0.218      337.851       10.103      860.452
11/21/2014  20:51:00       28.150       42.060       57.817       39.135       28.274       20.653     1531.546      799.432      426.542        0.433        0.138       50.611       21.410        0.179      337.802       10.022      860.468
11/21/2014  20:52:00        9.198       -1.686       22.709       18.037       39.727       30.355      325.333     1578.257      921.440        0.171        0.141        9.351       33.004       12.457      337.769        9.967      860.504
11/21/2014  20:53:00       25.298      -76.680       -5.290       29.473       20.455       17.741      868.659      418.405      314.749        0.407        0.080       80.745       12.411        0.024      337.811       10.039      860.521
11/21/2014  20:54:00       17.523       26.640       39.136       19.288       32.855       28.301      372.034     1079.466      800.918        0.240        0.113       31.887       27.447        0.741      337.691        9.836      860.491
11/21/2014  20:55:00       50.665       32.291       37.278       41.281       35.339       29.054     1704.121     1248.841      844.106        0.440        0.190       60.081       29.781        0.246      337.706        9.861      860.478
11/21/2014  20:56:00       86.372       51.936       27.009       57.626       25.200       28.197     3320.808      635.026      795.090        0.782        0.238      100.784       35.346        0.123      337.690        9.835      860.483
11/21/2014  20:57:00      103.028       57.413       24.223       32.560       22.868       28.173     1060.166      522.944      793.694        0.844        0.119      117.945       21.268        0.033      337.690        9.834      860.491
11/21/2014  20:58:00      105.609       45.194        9.150       29.763       24.404       23.856      885.859      595.534      569.120        0.766        0.103      114.873       18.841        0.027      337.675        9.809      860.510
11/21/2014  20:59:00       69.543       46.751       13.217       25.542       23.349       17.685      652.417      545.171      312.742        0.435        0.076       83.796       11.644        0.019      337.611        9.702      860.529
11/21/2014  21:00:00       94.856       45.937        5.081       21.257       18.002       17.855      451.879      324.081      318.808        0.611        0.055      105.394       11.344        0.012      337.642        9.755      860.558
11/21/2014  21:01:00       82.753       57.801       12.075       21.026       12.843       14.720      442.088      164.930      216.669        0.558        0.041      100.941       11.794        0.014      337.579        9.648      860.559
11/21/2014  21:02:00       70.390       53.951        3.971       22.880       14.139       12.135      523.506      199.902      147.250        0.438        0.044       88.688       10.792        0.015      337.535        9.575      860.543
11/21/2014  21:03:00       54.865       43.619        7.433       23.521       17.797       16.783      553.258      316.718      281.664        0.306        0.058       70.091       13.617        0.038      337.580        9.649      860.518
11/21/2014  21:04:00       32.420       46.854       -2.101       18.820       30.913       19.971      354.204      955.619      398.849        0.248        0.085       56.976       19.643        0.119      337.619        9.714      860.491
11/21/2014  21:05:00       20.766       24.140       -0.047       24.369       22.791       19.158      593.870      519.424      367.035        0.125        0.074       31.843       17.380        0.298      337.622        9.722      860.460
11/21/2014  21:06:00       20.376       23.702      -11.225       14.206       24.970       10.807      201.820      623.495      116.783        0.102        0.047       31.257        6.489        0.043      337.616        9.711      860.443
11/21/2014  21:07:00      -11.353        0.858       -3.406        8.306        5.033        5.796       68.996       25.331       33.591        0.013        0.006       11.385        2.162        0.036      337.659        9.783      860.429
11/21/2014  21:08:00      -41.530      -17.569      -10.965       11.843       15.379        7.385      140.247      236.521       54.535        0.129        0.022       45.093        5.883        0.017      337.505        9.524      860.415
11/21/2014  21:09:00      -53.791      -35.392       -5.391       13.316        8.624       11.391      177.309       74.381      129.753        0.228        0.019       64.390        8.318        0.017      337.545        9.591      860.403
11/21/2014  21:10:00      -18.083      -23.498       10.251       23.581       23.349       14.515      556.048      545.174      210.672        0.115        0.066       29.651       13.307        0.201      337.516        9.543      860.411
11/21/2014  21:11:00       20.067        0.083        6.993       13.906       19.512       13.883      193.387      380.722      192.747        0.061        0.038       20.067       12.915        0.414      337.571        9.636      860.401
11/21/2014  21:12:00       78.283       45.934       18.110       30.588       11.965       18.816      935.635      143.169      354.036        0.500        0.072       90.764       14.189        0.024      337.626        9.727      860.339
11/21/2014  21:13:00        1.761       29.397       40.558       21.254       22.809       16.679      451.736      520.240      278.193        0.188        0.063       29.450       16.022        0.296      337.548        9.595      860.315
11/21/2014  21:14:00       12.170       20.209       15.426       17.559       23.567       14.694      308.301      555.412      215.927        0.094        0.054       23.590       13.388        0.322      337.567        9.627      860.302
11/21/2014  21:15:00      -12.367      -24.358        1.121       14.911       10.170        8.743      222.332      103.430       76.438        0.057        0.020       27.318        7.981        0.085      337.639        9.746      860.281
11/21/2014  21:16:00        4.002       -8.262       -2.755        8.174        8.311        8.609       66.819       69.080       74.119        0.015        0.011        9.181        8.777        0.914      337.656        9.775      860.235
11/21/2014  21:17:00       13.804        5.745        3.657       14.025       13.555        8.304      196.710      183.734       68.957        0.034        0.022       14.952        2.573        0.030      337.573        9.638      860.186
11/21/2014  21:18:00        2.166       -2.224        2.261        7.365       11.321        9.757       54.238      128.169       95.208        0.015        0.014        3.105        8.712        7.874      337.525        9.557      860.169
11/21/2014  21:19:00       72.559       34.447       20.953       34.831       23.316       22.178     1213.166      543.641      491.849        0.457        0.112       80.321       13.366        0.028      337.572        9.636      860.138
11/21/2014  21:20:00       80.036       36.345       33.851       42.520       32.597       33.066     1807.918     1062.535     1093.390        0.642        0.198       87.902       30.114        0.117      337.569        9.631      860.090
11/21/2014  21:21:00       19.897      -32.356       17.112       57.561       48.138       26.611     3313.272     2317.233      708.165        0.404        0.317       37.984       28.581        0.566      337.543        9.587      860.087
11/21/2014  21:22:00      -80.780      -44.698       -3.871       33.952       28.093       22.890     1152.724      789.240      523.932        0.550        0.123       92.322       17.997        0.038      337.379        9.313      860.145
11/21/2014  21:23:00     -148.954      -29.155        3.383       66.312       62.293       35.266     4397.277     3880.399     1243.701        1.628        0.476      151.781       34.896        0.053      337.481        9.483      860.162
11/21/2014  21:24:00      -71.151        0.357        5.497       54.524       33.836       31.418     2972.835     1144.843      987.108        0.510        0.255       71.152       31.954        0.202      337.567        9.628      860.144
11/21/2014  21:25:00      -93.400      -40.035       -8.744       35.661       31.248       21.212     1271.705      976.433      449.957        0.655        0.135      101.619       17.595        0.030      337.319        9.213      860.152
11/21/2014  21:26:00      -53.307        2.718        0.474       50.978       39.917       27.282     2598.779     1593.383      744.301        0.389        0.247       53.376       25.810        0.234      337.397        9.344      860.166
11/21/2014  21:27:00     -112.432       13.872       -7.885       50.980       38.394       29.226     2598.997     1474.114      854.145        0.891        0.246      113.285       22.963        0.041      337.772        9.973      860.186
11/21/2014  21:28:00     -129.654       56.105       -5.578       43.770       32.288       24.355     1915.787     1042.531      593.152        1.177        0.178      141.272       18.718        0.018      337.636        9.743      860.181
11/21/2014  21:29:00      -99.962       50.844      -19.536       25.065       30.208       18.198      628.279      912.518      331.171        0.742        0.094      112.150       12.828        0.013      337.626        9.728      860.143
11/21/2014  21:30:00      -48.054       61.426      -16.301       21.147       18.907       13.755      447.215      357.471      189.210        0.367        0.050       77.989        3.786        0.002      337.553        9.605      860.102
11/21/2014  21:31:00      -23.109       52.005       -9.154       24.330       17.930       11.617      591.926      321.470      134.965        0.219        0.052       56.908       10.863        0.036      337.715        9.876      860.055
11/21/2014  21:32:00        2.885      119.055      -24.895       21.798       23.105        9.959      475.162      533.819       99.172        0.795        0.055      119.089       10.363        0.008      337.785        9.993      860.010
11/21/2014  21:33:00        2.043      133.678      -25.450       10.956       18.134        7.431      120.037      328.838       55.215        0.951        0.025      133.694        6.217        0.002      337.701        9.852      859.976
11/21/2014  21:34:00       -6.700       79.772      -18.448       23.772       21.576       13.013      565.118      465.523      169.340        0.397        0.060       80.053       11.571        0.021      337.619        9.715      859.959
11/21/2014  21:35:00        4.017       81.907       -3.122       24.005       26.986       13.397      576.252      728.241      179.480        0.411        0.074       82.005       15.559        0.036      337.733        9.907      859.942
11/21/2014  21:36:00       42.345       31.063        4.223       21.775       22.745       13.373      474.157      517.333      178.830        0.197        0.059       52.517        9.604        0.033      337.620        9.716      859.904
11/21/2014  21:37:00       14.516       93.445       79.099       18.571       35.437       23.025      344.887     1255.784      530.134        0.866        0.107       94.566       21.849        0.053      337.229        9.062      859.850
11/21/2014  21:38:00       88.964       54.555       47.571       47.948       39.058       32.643     2298.971     1525.508     1065.537        0.902        0.245      104.359       34.911        0.112      337.289        9.163      859.767
11/21/2014  21:39:00        9.719       85.426       92.520       34.195       40.050       32.934     1169.310     1604.021     1084.636        0.990        0.193       85.978       29.820        0.120      337.279        9.146      859.695
11/21/2014  21:40:00       -5.086       97.774      116.274       17.657       52.947       24.592      311.770     2803.346      604.744        1.341        0.186       97.906       30.742        0.099      337.437        9.410      859.635
11/21/2014  21:41:00       -4.604       50.076       83.147       23.467       50.746       35.035      550.690     2575.191     1227.424        0.690        0.218       50.288       35.227        0.491      337.458        9.446      859.593
11/21/2014  21:42:00       30.854       -7.536       23.802       30.158       40.063       24.227      909.501     1605.011      586.929        0.234        0.155       31.761       19.444        0.375      337.398        9.343      859.550
11/21/2014  21:43:00       57.113       41.596       14.064       16.179       14.354       19.120      261.764      206.027      365.559        0.301        0.042       70.655        7.972        0.013      337.323        9.220      859.521
11/21/2014  21:44:00       96.689       68.487       21.265       59.266       34.521       29.645     3512.475     1191.717      878.807        1.004        0.279      118.487       27.362        0.053      337.240        9.083      859.511
11/21/2014  21:45:00      115.244       90.234       19.963       67.796       41.936       25.626     4596.261     1758.613      656.697        1.442        0.351      146.367       12.013        0.007      337.270        9.130      859.487
11/21/2014  21:46:00       -0.940       82.243      -13.710       63.292       33.777       31.112     4005.851     1140.889      967.962        0.653        0.306       82.248       19.513        0.056      337.178        8.976      859.438
11/21/2014  21:47:00      -66.659       -5.581      -13.204       23.469       30.499       18.291      550.792      930.174      334.552        0.323        0.091       66.892       14.308        0.046      337.085        8.822      859.417
11/21/2014  21:48:00       24.751       36.503       22.656       27.917       25.900       22.799      779.340      670.808      519.801        0.221        0.098       44.103       12.438        0.080      337.001        8.679      859.324
11/21/2014  21:49:00      132.016       62.026        7.982       84.784       73.251       32.857     7188.288     5365.749     1079.552        1.748        0.682      145.862       27.462        0.035      337.211        9.029      859.167
11/21/2014  21:50:00     -123.077      -29.645        6.212       81.300       59.117       31.444     6609.746     3494.836      988.712        1.358        0.555      126.597       30.848        0.059      337.240        9.078      859.052
11/21/2014  21:51:00      -82.105       11.729       -7.062       81.787       36.388       21.050     6689.179     1324.108      443.101        0.769        0.423       82.939       31.001        0.140      338.015       10.379      859.010
11/21/2014  21:52:00       -9.573      -98.486      -20.289       32.816       35.491       32.281     1076.868     1259.621     1042.091        0.679        0.169       98.950       22.768        0.053      337.654        9.774      859.016
11/21/2014  21:53:00      -28.675      -11.923       22.397       37.850       28.973       28.399     1432.629      839.426      806.498        0.227        0.154       31.055       10.250        0.109      337.477        9.477      858.991
11/21/2014  21:54:00      -98.024       -8.085      -19.775       29.198       23.227       17.984      852.514      539.506      323.430        0.589        0.086       98.357       12.231        0.015      337.680        9.818      858.994
11/21/2014  21:55:00     -174.380      -71.297       -8.811       65.161       47.213       28.872     4246.005     2229.061      833.603        2.144        0.365      188.392       26.528        0.020      337.673        9.804      859.018
11/21/2014  21:56:00     -119.777      -55.020       -8.006       39.197       29.217       18.805     1536.442      853.660      353.628        1.009        0.137      131.809       18.611        0.020      337.735        9.910      859.066
11/21/2014  21:57:00      -70.889      -75.709       -6.038       37.984       46.545       25.254     1442.814     2166.477      637.788        0.752        0.212      103.716       21.392        0.043      337.721        9.887      859.116
11/21/2014  21:58:00      -40.254      -40.202       10.181       61.681       50.123       29.524     3804.542     2512.278      871.687        0.526        0.359       56.891       33.852        0.354      337.708        9.864      859.170
11/21/2014  21:59:00       51.107      -77.251       -5.615       24.816       44.083       29.460      615.853     1943.307      867.870        0.602        0.171       92.626       22.108        0.057      337.740        9.919      859.220
11/21/2014  22:00:00      -47.199      -10.853        5.103       43.395       17.274       20.507     1883.160      298.389      420.522        0.249        0.130       48.431       25.418        0.275      337.670        9.801      859.328
11/21/2014  22:01:00     -111.389      -60.334       -6.972       38.256       49.907       18.548     1463.524     2490.693      344.023        1.020        0.215      126.679       18.964        0.022      337.711        9.871      859.468
11/21/2014  22:02:00      -33.587      -34.102        5.397       48.437       35.389       18.306     2346.177     1252.370      335.120        0.313        0.197       47.865       21.295        0.198      337.596        9.678      859.546
11/21/2014  22:03:00      -68.090      -26.846       -1.828       46.289       17.188       14.162     2142.637      295.435      200.571        0.400        0.132       73.191       23.037        0.099      337.598        9.681      859.603
11/21/2014  22:04:00      -73.571       25.890       -6.683       37.600       43.914       25.679     1413.723     1928.448      659.386        0.506        0.200       77.993       19.916        0.065      337.743        9.924      859.679
11/21/2014  22:05:00      -65.682       80.763      -13.304       36.612       43.758       28.636     1340.409     1914.720      820.008        0.754        0.204      104.100       29.490        0.080      337.582        9.652      859.746
11/21/2014  22:06:00       31.407       90.030        2.996       42.610       45.375       26.419     1815.631     2058.890      697.963        0.684        0.229       95.351       25.268        0.070      337.641        9.753      859.752
11/21/2014  22:07:00       20.454       73.882      -10.011       43.869       53.740       32.255     1924.453     2887.994     1040.369        0.591        0.293       76.661       17.839        0.054      337.416        9.374      859.773
11/21/2014  22:08:00     -106.747       -8.583      -13.408       63.381       41.528       21.521     4017.136     1724.570      463.145        0.893        0.310      107.092       17.522        0.027      337.560        9.615      859.863
11/21/2014  22:09:00      -99.505        8.186      -17.912       79.881       57.590       23.363     6380.939     3316.560      545.818        1.026        0.512       99.841       20.533        0.042      337.670        9.801      859.989
11/21/2014  22:10:00       22.294       94.243        7.123       50.731       56.022       32.753     2573.632     3138.502     1072.791        0.811        0.339       96.844       36.138        0.139      337.503        9.521      860.065
11/21/2014  22:11:00      -21.168      -40.327       12.330       77.386       55.951       36.207     5988.573     3130.467     1310.945        0.633        0.521       45.545       34.982        0.590      337.742        9.922      860.100
11/21/2014  22:12:00      -39.173        1.874       15.630       58.924       39.592       27.012     3472.038     1567.492      729.629        0.377        0.288       39.218       27.082        0.477      337.785        9.993      860.094
11/21/2014  22:13:00     -119.006       20.635       15.155      115.384       62.305       52.215    13313.526     3881.890     2726.361        1.737        0.996      120.782       52.490        0.189      338.303       10.861      860.105
11/21/2014  22:14:00     -186.458      -65.305        8.273      120.351       58.248       45.410    14484.459     3392.785     2062.108        2.952        0.997      197.563       53.352        0.073      338.432       11.077      860.064
11/21/2014  22:15:00      -96.999      -99.127        0.160       71.176       52.974       27.846     5065.964     2806.293      775.395        1.394        0.432      138.690       23.320        0.028      338.289       10.838      860.111
11/21/2014  22:16:00      -24.031     -127.806        0.807       62.913       88.247       35.371     3957.996     7787.486     1251.102        1.495        0.650      130.046       26.762        0.042      338.295       10.850      860.114
11/21/2014  22:17:00        2.623      -72.936       15.924       90.321       95.285       43.806     8157.912     9079.259     1918.983        1.236        0.958       72.983       45.590        0.390      338.216       10.717      860.028
11/21/2014  22:18:00      -21.317       53.077       60.548       17.684       31.548       21.162      312.740      995.273      447.820        0.435        0.088       57.198       17.467        0.093      337.711        9.868      859.917
11/21/2014  22:19:00      -31.839       48.943        6.646       45.625       27.060       27.801     2081.648      732.246      772.912        0.352        0.179       58.388       26.477        0.206      337.930       10.238      859.869
11/21/2014  22:20:00     -106.652      -39.919       -7.228       71.103       45.038       27.222     5055.589     2028.395      741.027        1.042        0.391      113.878       10.433        0.008      338.208       10.703      859.911
11/21/2014  22:21:00      -17.873      -37.432        3.850       57.378       30.844       20.869     3292.280      951.383      435.514        0.321        0.234       41.480       14.539        0.123      337.901       10.187      859.934
11/21/2014  22:22:00        0.894        6.650       17.158       25.094       25.290       13.858      629.687      639.596      192.041        0.090        0.073        6.710       11.950        3.172      337.785        9.995      859.889
11/21/2014  22:23:00       -9.007      -10.745       13.206       25.409       44.349       20.015      645.641     1966.804      400.599        0.169        0.151       14.021       21.595        2.372      337.775        9.977      859.912
11/21/2014  22:24:00        0.361       22.926       16.342        8.414       12.047       20.764       70.795      145.136      431.128        0.072        0.032       22.929       10.699        0.218      337.626        9.727      859.948
11/21/2014  22:25:00       52.042       43.324       14.263       42.212       24.663       17.020     1781.870      608.274      289.670        0.373        0.134       67.714       22.154        0.107      337.744        9.924      860.006
11/21/2014  22:26:00      101.583       67.552        5.605       38.867       21.915       17.103     1510.638      480.274      292.524        0.860        0.114      121.993       13.601        0.012      337.779        9.984      859.986
11/21/2014  22:27:00      137.171       67.077       18.844       33.200       30.389       30.623     1102.240      923.467      937.792        1.332        0.148      152.693       23.281        0.023      337.950       10.270      860.009
11/21/2014  22:28:00      127.588       58.772        5.259       37.820       31.009       28.278     1430.382      961.529      799.659        1.148        0.160      140.474       13.619        0.009      337.824       10.058      860.011
11/21/2014  22:29:00       72.343       27.504        0.870       32.396       29.055       19.333     1049.505      844.177      373.755        0.413        0.113       77.394       12.912        0.028      337.850       10.103      860.064
11/21/2014  22:30:00       36.350        1.480        1.082       28.929       27.743       11.172      836.859      769.699      124.823        0.153        0.087       36.380       10.228        0.079      337.802       10.021      860.119
11/21/2014  22:31:00      106.075       60.645       12.936       30.722       14.607       15.416      943.848      213.365      237.655        0.825        0.070      122.187        6.427        0.003      337.760        9.951      860.095
11/21/2014  22:32:00      106.130       57.840       13.718       61.319       30.810       31.359     3759.994      949.274      983.369        1.024        0.285      120.867       17.114        0.020      337.618        9.713      860.021
11/21/2014  22:33:00       71.158       84.630        1.583       42.079       45.905       37.520     1770.653     2107.233     1407.750        0.876        0.264      110.569       23.275        0.044      337.721        9.886      860.043
11/21/2014  22:34:00       44.205       95.902       -6.660       41.088       56.146       33.628     1688.196     3152.429     1130.853        0.858        0.299      105.599       32.668        0.096      337.965       10.296      860.084
11/21/2014  22:35:00        9.259       27.735       -1.208       29.758       54.297       16.730      885.532     2948.162      279.878        0.248        0.206       29.239       14.359        0.241      338.059       10.453      860.133
11/21/2014  22:36:00      -27.417       12.440        3.534       30.929       28.210       24.588      956.614      795.797      604.584        0.164        0.118       30.107       17.626        0.343      338.007       10.366      860.213
11/21/2014  22:37:00        6.924       12.376       12.628       20.192       13.173       14.882      407.725      173.516      221.472        0.058        0.040       14.182       10.030        0.500      337.755        9.943      860.182
11/21/2014  22:38:00      101.366       71.677       27.805       22.400       29.080       16.183      501.738      845.649      261.906        0.890        0.080      124.148        9.956        0.006      337.818       10.050      860.154
11/21/2014  22:39:00       -2.409       16.621       -3.808       68.465       33.562       18.410     4687.440     1126.417      338.914        0.322        0.308       16.795       23.060        1.885      337.926       10.230      860.166
11/21/2014  22:40:00      -30.627       13.618       -4.441       34.784       40.976       11.265     1209.921     1679.000      126.908        0.208        0.151       33.518       12.085        0.130      337.788        9.998      860.132
11/21/2014  22:41:00       35.879       50.992       -0.421       26.544       29.010       18.588      704.575      841.582      345.498        0.289        0.095       62.350       20.141        0.104      338.111       10.540      860.080
11/21/2014  22:42:00        2.662       11.019       -0.146       18.016       14.525       13.286      324.577      210.963      176.505        0.042        0.036       11.336        2.695        0.057      338.079       10.488      860.111
11/21/2014  22:43:00       43.547       30.325        8.354       27.051       28.926       22.804      731.773      836.729      520.029        0.249        0.104       53.065       17.473        0.108      338.120       10.555      860.164
11/21/2014  22:44:00       67.448       36.852       14.251       36.443       25.841       24.104     1328.082      667.767      581.016        0.434        0.129       76.859       16.930        0.049      338.015       10.379      860.215
11/21/2014  22:45:00      -26.600       86.633      -22.671       39.960       46.783       13.651     1596.779     2188.669      186.361        0.635        0.199       90.624       19.904        0.048      338.069       10.470      860.285
11/21/2014  22:46:00      -66.689       26.153      -11.057       35.051       41.843       19.472     1228.582     1750.875      379.175        0.431        0.168       71.634       20.106        0.079      337.999       10.353      860.369
11/21/2014  22:47:00      -37.172       -0.850       -5.676       30.912       31.850       17.897      955.549     1014.400      320.297        0.185        0.115       37.181       18.330        0.243      337.806       10.028      860.388
11/21/2014  22:48:00      -62.511       52.932      -16.221       19.110       15.649       10.644      365.181      244.881      113.298        0.385        0.036       81.911        6.503        0.006      338.028       10.400      860.357
11/21/2014  22:49:00       16.669       52.105        3.984       27.577       15.248       24.179      760.504      232.503      584.628        0.229        0.079       54.707       17.939        0.108      338.140       10.588      860.328
11/21/2014  22:50:00       35.614       50.388        4.364       25.684       23.739       28.844      659.671      563.551      831.977        0.294        0.103       61.703       22.895        0.138      337.879       10.153      860.293
11/21/2014  22:51:00      -85.434      -22.620      -14.566       35.188       37.052       17.756     1238.203     1372.881      315.287        0.547        0.146       88.378       12.645        0.020      337.777        9.980      860.348
11/21/2014  22:52:00      -12.154      -33.331        0.342       37.331       19.818       13.078     1393.585      392.769      171.032        0.161        0.098       35.478       19.344        0.297      337.763        9.958      860.416
11/21/2014  22:53:00      -15.504      -34.946       -2.484        9.914       25.517        5.633       98.284      651.110       31.732        0.112        0.039       38.231        7.151        0.035      338.025       10.397      860.424
11/21/2014  22:54:00      -60.220       24.673      -10.303       44.672       34.466       23.354     1995.625     1187.936      545.420        0.403        0.186       65.079       19.588        0.091      338.253       10.779      860.450
11/21/2014  22:55:00      -71.058       25.921       -7.049       43.038       26.701       22.910     1852.262      712.934      524.884        0.443        0.155       75.638       19.891        0.069      338.257       10.786      860.455
11/21/2014  22:56:00     -180.842      -48.895      -22.405       83.297       40.396       28.670     6938.350     1631.810      821.963        2.249        0.470      187.336       20.818        0.012      338.566       11.302      860.461
11/21/2014  22:57:00     -169.540      -18.308      -15.225       35.696       33.996       21.002     1274.224     1155.744      441.074        1.609        0.144      170.525       15.952        0.009      338.346       10.936      860.489
11/21/2014  22:58:00     -211.093      -12.038      -30.493       26.606       33.832       20.195      707.863     1144.629      407.824        2.395        0.113      211.436       12.725        0.004      338.134       10.577      860.482
11/21/2014  22:59:00     -167.868      -48.271      -17.082       41.767       41.672       30.371     1744.513     1736.569      922.390        1.760        0.220      174.670       23.248        0.018      338.098       10.518      860.504
11/21/2014  23:00:00     -229.938      -75.117      -13.333      116.462       99.511       53.284    13563.492     9902.354     2839.133        4.249        1.315      241.897       47.142        0.038      338.195       10.680      860.561
11/21/2014  23:01:00     -198.640      -79.456      -17.085      103.326       73.877       53.965    10676.295     5457.804     2912.246        3.255        0.952      213.941       57.493        0.072      338.389       11.005      860.587
11/21/2014  23:02:00     -193.521      -88.539      -10.054      132.746       92.419       46.330    17621.483     8541.294     2146.514        3.684        1.415      212.814       55.951        0.069      338.412       11.043      860.573
11/21/2014  23:03:00     -152.877       32.367      -22.683       67.508       71.756       35.367     4557.351     5148.879     1250.821        1.794        0.548      156.266       24.790        0.025      338.699       11.527      860.496
11/21/2014  23:04:00     -151.200       59.442      -16.814      105.069       85.529       40.123    11039.565     7315.217     1609.838        2.332        0.998      162.464       36.819        0.051      338.875       11.823      860.464
11/21/2014  23:05:00     -313.814       59.397      -24.009      134.994       94.395       55.408    18223.503     8910.324     3070.005        6.639        1.510      319.385       47.284        0.022      338.995       12.021      860.459
11/21/2014  23:06:00     -351.040     -100.656      -25.834      128.276      119.504       60.481    16454.762    14281.319     3657.955        8.420        1.720      365.186       61.564        0.028      338.845       11.773      860.483
11/21/2014  23:07:00     -348.027      -88.950      -25.347      137.253      148.975       82.691    18838.348    22193.537     6837.782        8.876        2.393      359.214       70.146        0.038      338.853       11.782      860.471
11/21/2014  23:08:00     -406.525      -68.583      -25.744      136.122      134.529       74.295    18529.223    18097.986     5519.776       10.638        2.107      412.269       72.054        0.031      338.913       11.884      860.472
11/21/2014  23:09:00     -616.801     -110.923      -37.847      247.906      177.551       93.930    61457.242    31524.291     8822.877       24.797        5.090      626.695      110.283        0.031      338.937       11.925      860.425
11/21/2014  23:10:00     -483.794     -174.551      -29.768      204.352      162.332       87.165    41759.626    26351.833     7597.753       17.054        3.785      514.320       87.598        0.029      338.961       11.965      860.357
11/21/2014  23:11:00     -415.518      -94.088      -27.556      172.553      144.197       76.060    29774.402    20792.875     5785.107       11.930        2.818      426.037       74.619        0.031      338.978       11.994      860.266
11/21/2014  23:12:00     -452.494      -26.892      -26.356      175.309      206.433       88.914    30733.100    42614.664     7905.612       14.369        4.063      453.292       88.201        0.038      338.991       12.015      860.276
11/21/2014  23:13:00     -430.283     -125.534      -39.450      137.435      106.685       58.989    18888.398    11381.662     3479.753       11.810        1.687      448.221       57.723        0.017      338.995       12.023      860.236
11/21/2014  23:14:00     -226.876      -52.071      -12.637      169.450       95.224       68.542    28713.191     9067.564     4698.001        4.840        2.124      232.774       85.673        0.135      338.925       11.905      860.210
11/21/2014  23:15:00     -219.391      -65.057      -16.025      139.261      152.188       66.280    19393.653    23161.168     4392.997        4.978        2.347      228.834       64.887        0.080      338.978       11.995      860.177
11/21/2014  23:16:00     -320.176      -90.621      -19.314      158.633      113.005       71.784    25164.342    12770.207     5152.907        7.708        2.154      332.754       63.855        0.037      338.896       11.857      860.178
11/21/2014  23:17:00     -268.215      -51.485      -13.558      147.184      128.794       72.151    21663.257    16587.856     5205.740        5.911        2.173      273.111       45.833        0.028      338.943       11.936      860.162
11/21/2014  23:18:00     -422.245      -22.187      -21.410      210.713      168.599       75.169    44400.036    28425.562     5650.368       12.884        3.924      422.828       91.822        0.047      338.985       12.005      860.066
11/21/2014  23:19:00     -414.866      -81.879      -20.234      168.665      147.085       81.452    28448.002    21634.012     6634.471       11.796        2.836      422.869       80.508        0.036      339.134       12.256      859.992
11/21/2014  23:20:00     -378.006     -104.137      -11.903      221.714      128.239       81.435    49156.951    16445.207     6631.685       11.304        3.612      392.088       97.685        0.062      339.077       12.161      859.962
11/21/2014  23:21:00     -622.235     -175.753      -27.687      236.947      176.208       88.777    56143.722    31049.122     7881.440       25.693        4.754      646.580       85.959        0.018      339.216       12.396      859.967
11/21/2014  23:22:00     -534.446     -227.988      -28.326      256.014      160.294       93.967    65543.123    25694.012     8829.863       21.922        5.003      581.044       99.841        0.030      339.551       12.960      859.895
11/21/2014  23:23:00     -358.835      -56.298       -8.515      220.936      153.538       80.435    48812.783    23573.788     6469.745       10.541        3.943      363.225       90.297        0.062      339.169       12.316      859.914
11/21/2014  23:24:00     -350.405      -38.005      -11.298      207.884      119.798       79.316    43215.741    14351.617     6291.096        9.409        3.193      352.460       99.666        0.080      339.098       12.197      859.972
11/21/2014  23:25:00     -478.828     -164.668      -24.051      213.101      142.103       97.840    45412.094    20193.246     9572.760       16.606        3.759      506.352      106.799        0.044      339.037       12.095      859.954
11/21/2014  23:26:00     -515.800      -82.535      -25.969      271.603      154.823       96.626    73767.935    23970.164     9336.624       19.028        5.354      522.362      124.787        0.057      339.110       12.215      860.001
11/21/2014  23:27:00     -324.286      -40.925        4.593      184.154      141.519       92.259    33912.594    20027.550     8511.657        8.464        3.123      326.858       92.928        0.081      339.113       12.220      860.073
11/21/2014  23:28:00     -350.827     -105.613      -12.934      192.356      156.430       75.113    37001.018    24470.357     5641.890       10.074        3.356      366.379       86.302        0.055      339.085       12.174      860.028
11/21/2014  23:29:00     -384.710      -91.998       -6.156      215.551      149.328       82.017    46462.244    22298.874     6726.760       11.598        3.774      395.557      101.487        0.066      339.028       12.077      860.008
11/21/2014  23:30:00     -344.160      -34.055      -29.028      173.017      109.871       80.825    29934.968    12071.642     6532.729        8.448        2.427      345.841       74.465        0.046      339.005       12.040      859.972
11/21/2014  23:31:00     -306.830      -42.354       -6.527      152.284      123.230       70.603    23190.465    15185.706     4984.828        6.966        2.168      309.739       77.568        0.063      339.029       12.080      859.941
11/21/2014  23:32:00     -269.882      -77.740       -7.433      155.788      100.135       64.628    24269.984    10026.934     4176.795        5.870        1.924      280.856       74.000        0.069      338.963       11.968      859.912
11/21/2014  23:33:00     -211.819     -111.201        2.504      136.348       84.311       65.445    18590.873     7108.414     4283.059        4.360        1.499      239.234       65.064        0.074      338.889       11.842      859.948
11/21/2014  23:34:00     -249.458     -186.913       -6.021      167.480      141.906       67.476    28049.393    20137.243     4552.943        7.496        2.637      311.715       74.079        0.056      338.849       11.778      860.031
11/21/2014  23:35:00     -178.300     -196.977       -5.510      109.585      100.376       60.839    12008.944    10075.416     3701.372        4.820        1.289      265.689       62.361        0.055      338.520       11.223      860.108
11/21/2014  23:36:00     -173.767     -243.911      -11.928       88.608      118.614       54.895     7851.307    14069.354     3013.489        5.738        1.247      299.479       47.447        0.025      338.278       10.818      860.129
11/21/2014  23:37:00     -176.712     -200.784      -14.526       87.488       97.521       42.659     7654.168     9510.425     1819.820        4.536        0.949      267.472       36.442        0.019      338.150       10.603      860.164
11/21/2014  23:38:00     -106.825     -169.255        2.587       95.048      142.060       55.567     9034.093    20181.059     3087.694        3.618        1.615      200.147       46.318        0.054      338.274       10.812      860.101
11/21/2014  23:39:00      -70.962      -97.153       -7.267       63.343       59.531       35.144     4012.391     3543.885     1235.090        1.166        0.440      120.309       37.026        0.095      338.040       10.420      859.995
11/21/2014  23:40:00     -141.766      -65.961       -6.375       94.046       50.766       23.696     8844.580     2577.227      561.496        1.823        0.599      156.359       32.546        0.043      338.061       10.455      859.929
11/21/2014  23:41:00     -159.199      -94.953       -1.473      113.634       51.494       42.499    12912.730     2651.680     1806.129        2.586        0.869      185.365       51.770        0.078      337.969       10.301      860.011
11/21/2014  23:42:00     -161.426     -142.526       -1.850       95.378       73.700       44.757     9096.950     5431.754     2003.184        3.145        0.827      215.342       42.192        0.038      338.106       10.529      860.007
11/21/2014  23:43:00     -159.667     -109.681       -1.931       72.541       56.088       34.965     5262.245     3145.833     1222.564        2.358        0.482      193.710       28.340        0.021      338.000       10.353      860.020
11/21/2014  23:44:00      -84.772      -99.772        1.014       50.308       39.876       28.377     2530.874     1590.088      805.275        1.103        0.246      130.923       25.826        0.039      337.894       10.178      859.987
11/21/2014  23:45:00      -43.379      -99.996       -7.514       38.765       28.029       17.322     1502.761      785.628      300.053        0.726        0.129      109.000       11.028        0.010      338.117       10.549      859.924
11/21/2014  23:46:00      -27.069      -91.266       -6.998       28.350       31.360       17.051      803.707      983.447      290.736        0.559        0.104       95.196       11.555        0.015      338.221       10.724      859.867
11/21/2014  23:47:00      -39.443     -135.582       -2.993       58.175       47.073       28.516     3384.327     2215.843      813.168        1.318        0.321      141.203       13.611        0.009      338.160       10.623      859.892
11/21/2014  23:48:00       49.863     -161.085      -25.956       88.455       73.374       49.398     7824.233     5383.759     2440.134        2.238        0.782      168.626       48.270        0.082      337.954       10.276      859.953
11/21/2014  23:49:00       81.812     -151.415       20.624      112.003      111.758       72.851    12544.630    12489.764     5307.220        3.019        1.517      172.104       72.059        0.175      337.877       10.145      859.939
11/21/2014  23:50:00      -13.750      -99.214      -30.799       89.076       77.914       39.881     7934.485     6070.651     1590.477        1.329        0.780      100.162       46.979        0.220      337.825       10.060      859.925
11/21/2014  23:51:00      -23.450     -178.753       -2.759       57.449      115.136       42.334     3300.433    13256.357     1792.181        2.543        0.917      180.285       20.368        0.013      338.162       10.624      859.986
11/21/2014  23:52:00      -49.701     -102.260      -11.760       96.290       73.643       46.939     9271.673     5423.355     2203.292        1.498        0.845      113.698       37.691        0.110      338.448       11.107      859.962
11/21/2014  23:53:00     -110.063        5.022       -9.330       93.600       65.723       36.278     8760.963     4319.556     1316.127        1.331        0.720      110.177       46.293        0.177      338.272       10.809      859.965
11/21/2014  23:54:00      -82.143       19.328       -3.513       39.799       54.492       34.053     1583.965     2969.420     1159.635        0.642        0.286       84.387       29.050        0.119      338.020       10.388      859.956
11/21/2014  23:55:00     -106.648      -60.455      -15.467       51.958       30.180       31.231     2699.646      910.807      975.360        0.993        0.229      122.591       24.010        0.038      337.820       10.051      859.935
11/21/2014  23:56:00     -122.658      -67.094      -10.386       76.975       61.429       32.881     5925.204     3773.486     1081.183        1.522        0.539      139.809       31.031        0.049      338.166       10.632      859.931
11/21/2014  23:57:00     -195.738      -89.686       -0.105       97.003       67.824       53.049     9409.560     4600.050     2814.180        3.159        0.841      215.306       49.901        0.054      338.329       10.904      859.952
11/21/2014  23:58:00     -206.201     -149.409       -9.750       81.499       71.035       42.443     6642.129     5045.924     1801.443        3.921        0.674      254.641       39.850        0.024      338.149       10.600      859.978
11/21/2014  23:59:00     -208.256      -90.097       -2.962       93.054       63.767       39.973     8659.032     4066.226     1597.859        3.291        0.716      226.910       44.101        0.038      338.036       10.412      860.017
